[[{"header":{"parameterUnit":"m.s-1","parameterCategory":1,"la1":30.6,"la2":29.2853,"lo1":-89.7004,"lo2":-87.6739,"dy":0.0162,"dx":0.0183,"nx":112,"ny":82,"refTime":"2023-08-21T06:00:00:Z","depth":0,"parameterNumber":2,"parameterNumberName":"U-component_of_WINDS"},"data":[0.0,0.0,0.0,0.0,0.0,0.0,0.0,0.0,0.0,0.0,0.0,0.0,0.0,0.0,0.0,0.0,0.0,0.0,0.0,0.0,0.0,0.0,0.0,0.0,0.0,0.0,0.0,0.0,0.0,0.0,0.0,0.0,0.0,0.0,0.0,0.0,0.0,0.0,0.0,0.0,0.0,0.0,0.0,0.0,0.0,0.0,0.0,0.0,0.0,0.0,0.0,0.0,0.0,0.0,0.0,0.0,0.0,0.0,0.0,0.0,0.0,0.0,0.0,0.0,0.0,0.0,0.0,0.0,0.0,0.0,0.0,0.0,0.0,0.0,0.0,0.0,0.0,0.0,0.0,0.0,0.0,0.0,0.0,0.0,0.0,0.0,0.0,0.0,0.0,0.0,0.0,-5.6506,-5.6557,-5.6601,-5.6601,-5.6598,-5.6598,-5.6581,0.0,0.0,0.0,0.0,0.0,0.0,0.0,0.0,0.0,0.0,0.0,0.0,0.0,0.0,0.0,0.0,0.0,0.0,0.0,0.0,0.0,0.0,0.0,0.0,0.0,0.0,0.0,0.0,0.0,0.0,0.0,0.0,0.0,0.0,0.0,0.0,0.0,0.0,0.0,0.0,0.0,0.0,0.0,0.0,0.0,0.0,0.0,0.0,0.0,0.0,0.0,0.0,0.0,0.0,0.0,0.0,0.0,0.0,0.0,0.0,0.0,0.0,0.0,0.0,0.0,0.0,0.0,0.0,0.0,0.0,0.0,0.0,0.0,0.0,0.0,0.0,0.0,0.0,0.0,0.0,0.0,0.0,0.0,0.0,0.0,0.0,0.0,0.0,0.0,0.0,0.0,0.0,0.0,0.0,0.0,0.0,0.0,0.0,0.0,0.0,0.0,0.0,0.0,0.0,-5.6374,-5.6484,-5.6557,-5.6601,-5.6601,-5.6598,-5.6581,-5.652,0.0,0.0,0.0,0.0,0.0,0.0,0.0,0.0,0.0,0.0,0.0,0.0,0.0,0.0,0.0,0.0,0.0,0.0,0.0,0.0,0.0,0.0,0.0,0.0,0.0,0.0,0.0,0.0,0.0,0.0,0.0,0.0,0.0,0.0,0.0,0.0,0.0,0.0,0.0,0.0,0.0,0.0,0.0,0.0,0.0,0.0,0.0,0.0,0.0,0.0,0.0,0.0,0.0,0.0,0.0,0.0,0.0,0.0,0.0,0.0,0.0,0.0,0.0,0.0,0.0,0.0,0.0,0.0,0.0,0.0,0.0,0.0,0.0,0.0,0.0,0.0,0.0,0.0,0.0,0.0,0.0,0.0,0.0,0.0,0.0,0.0,0.0,0.0,0.0,0.0,0.0,0.0,0.0,0.0,0.0,0.0,0.0,0.0,0.0,0.0,0.0,0.0,0.0,-5.623,-5.6286,-5.6377,-5.6474,-5.6527,-5.6448,-5.6475,-5.6454,-5.641,-5.6331,0.0,0.0,0.0,0.0,0.0,0.0,0.0,0.0,0.0,0.0,0.0,0.0,0.0,0.0,0.0,0.0,0.0,0.0,0.0,0.0,0.0,0.0,0.0,0.0,0.0,0.0,0.0,0.0,0.0,0.0,0.0,0.0,0.0,0.0,0.0,0.0,0.0,0.0,0.0,0.0,0.0,0.0,0.0,0.0,0.0,0.0,0.0,0.0,0.0,0.0,0.0,0.0,0.0,0.0,0.0,0.0,0.0,0.0,0.0,0.0,0.0,0.0,0.0,0.0,0.0,0.0,0.0,0.0,0.0,0.0,0.0,0.0,0.0,0.0,0.0,0.0,0.0,0.0,0.0,0.0,0.0,0.0,0.0,0.0,0.0,0.0,0.0,0.0,0.0,0.0,0.0,0.0,0.0,0.0,0.0,0.0,0.0,0.0,0.0,0.0,0.0,0.0,-5.6175,-5.6212,-5.6266,-5.6374,-5.6413,-5.6316,-5.6341,-5.6344,-5.6285,-5.622,0.0,0.0,0.0,0.0,0.0,0.0,0.0,0.0,0.0,0.0,0.0,0.0,0.0,0.0,0.0,0.0,0.0,0.0,0.0,0.0,0.0,0.0,0.0,0.0,0.0,0.0,0.0,0.0,0.0,0.0,0.0,0.0,0.0,0.0,0.0,0.0,0.0,0.0,0.0,0.0,0.0,0.0,0.0,0.0,0.0,0.0,0.0,0.0,0.0,0.0,0.0,0.0,0.0,0.0,0.0,0.0,0.0,0.0,0.0,0.0,0.0,0.0,0.0,0.0,0.0,0.0,0.0,0.0,0.0,0.0,0.0,0.0,0.0,0.0,0.0,0.0,0.0,0.0,0.0,0.0,0.0,0.0,0.0,0.0,0.0,0.0,0.0,0.0,0.0,0.0,0.0,0.0,0.0,0.0,0.0,0.0,0.0,0.0,0.0,0.0,0.0,0.0,-5.6132,-5.6201,-5.6207,-5.6261,-5.6316,-5.6292,-5.6297,-5.6284,-5.62,-5.6193,0.0,0.0,0.0,0.0,0.0,0.0,0.0,0.0,0.0,0.0,0.0,0.0,0.0,0.0,0.0,0.0,0.0,0.0,0.0,0.0,0.0,0.0,0.0,0.0,0.0,0.0,0.0,0.0,0.0,0.0,0.0,0.0,0.0,0.0,0.0,0.0,0.0,0.0,0.0,0.0,0.0,0.0,0.0,0.0,0.0,0.0,0.0,0.0,0.0,0.0,0.0,0.0,0.0,0.0,0.0,0.0,0.0,0.0,0.0,0.0,0.0,0.0,0.0,0.0,0.0,0.0,0.0,0.0,0.0,0.0,0.0,0.0,0.0,0.0,0.0,0.0,0.0,0.0,0.0,0.0,0.0,0.0,0.0,0.0,0.0,0.0,0.0,0.0,0.0,0.0,0.0,0.0,0.0,0.0,0.0,0.0,0.0,0.0,0.0,0.0,0.0,0.0,-5.6051,-5.6091,0.0,-5.6168,-5.6199,-5.6128,-5.6193,-5.6187,-5.6079,0.0,0.0,0.0,0.0,0.0,0.0,0.0,0.0,0.0,0.0,0.0,0.0,0.0,0.0,0.0,0.0,0.0,0.0,0.0,0.0,0.0,0.0,0.0,0.0,0.0,0.0,0.0,0.0,0.0,0.0,0.0,0.0,0.0,0.0,0.0,0.0,0.0,0.0,0.0,0.0,0.0,0.0,0.0,0.0,0.0,0.0,0.0,0.0,0.0,0.0,0.0,0.0,0.0,0.0,0.0,0.0,0.0,0.0,0.0,0.0,0.0,0.0,0.0,0.0,0.0,0.0,0.0,0.0,0.0,0.0,0.0,0.0,0.0,0.0,0.0,0.0,0.0,0.0,0.0,0.0,0.0,0.0,0.0,0.0,0.0,0.0,0.0,0.0,0.0,0.0,0.0,0.0,0.0,0.0,0.0,0.0,0.0,0.0,0.0,0.0,0.0,0.0,-5.5142,-5.5219,-5.5316,0.0,-5.5692,-5.5811,-5.6001,-5.6079,-5.6094,-5.6012,0.0,0.0,0.0,0.0,0.0,0.0,0.0,0.0,0.0,0.0,0.0,0.0,0.0,0.0,0.0,0.0,0.0,0.0,0.0,0.0,0.0,0.0,0.0,0.0,0.0,0.0,0.0,0.0,0.0,0.0,0.0,0.0,0.0,0.0,0.0,0.0,0.0,0.0,0.0,0.0,0.0,0.0,0.0,0.0,0.0,0.0,0.0,0.0,0.0,0.0,0.0,0.0,0.0,0.0,0.0,0.0,0.0,0.0,0.0,0.0,0.0,0.0,0.0,0.0,0.0,0.0,0.0,0.0,0.0,0.0,0.0,0.0,0.0,0.0,0.0,0.0,0.0,0.0,0.0,0.0,0.0,0.0,0.0,0.0,0.0,0.0,0.0,0.0,0.0,0.0,0.0,0.0,0.0,0.0,0.0,0.0,0.0,0.0,0.0,0.0,0.0,0.0,-5.3498,-5.3498,-5.3826,-5.4697,-5.4793,-5.5103,-5.5896,-5.5993,-5.5993,0.0,0.0,0.0,0.0,0.0,0.0,0.0,0.0,0.0,0.0,0.0,0.0,0.0,0.0,0.0,0.0,0.0,0.0,0.0,0.0,0.0,0.0,0.0,0.0,0.0,0.0,0.0,0.0,0.0,0.0,0.0,0.0,0.0,0.0,0.0,0.0,0.0,0.0,0.0,0.0,0.0,0.0,0.0,0.0,0.0,0.0,0.0,0.0,0.0,0.0,0.0,0.0,0.0,0.0,0.0,0.0,0.0,0.0,0.0,0.0,0.0,0.0,0.0,0.0,0.0,0.0,0.0,0.0,0.0,0.0,0.0,0.0,0.0,0.0,0.0,0.0,0.0,0.0,0.0,0.0,0.0,0.0,0.0,0.0,0.0,0.0,0.0,0.0,0.0,0.0,0.0,0.0,0.0,0.0,0.0,0.0,0.0,0.0,0.0,0.0,0.0,0.0,0.0,-5.342,-5.3498,-5.3594,-5.3865,-5.3884,-5.3981,-5.4213,-5.4793,-5.5142,-5.5142,0.0,0.0,0.0,0.0,0.0,0.0,0.0,0.0,0.0,0.0,0.0,0.0,0.0,0.0,0.0,0.0,0.0,0.0,0.0,0.0,0.0,0.0,0.0,0.0,0.0,0.0,0.0,0.0,0.0,0.0,0.0,0.0,0.0,0.0,0.0,0.0,0.0,0.0,0.0,0.0,0.0,0.0,0.0,0.0,0.0,0.0,0.0,0.0,0.0,0.0,0.0,0.0,0.0,0.0,0.0,0.0,0.0,0.0,0.0,0.0,0.0,0.0,0.0,0.0,0.0,0.0,0.0,0.0,0.0,0.0,0.0,0.0,0.0,0.0,0.0,0.0,0.0,0.0,0.0,0.0,0.0,0.0,0.0,0.0,0.0,0.0,0.0,0.0,0.0,0.0,0.0,0.0,0.0,0.0,0.0,0.0,0.0,0.0,0.0,0.0,0.0,0.0,-5.232,-5.242,-5.2608,-5.2937,-5.2975,-5.3111,-5.3459,-5.3981,-5.4271,-5.4271,0.0,0.0,0.0,0.0,0.0,0.0,0.0,0.0,0.0,0.0,0.0,0.0,0.0,0.0,0.0,0.0,0.0,0.0,0.0,0.0,0.0,0.0,0.0,0.0,0.0,0.0,0.0,0.0,0.0,0.0,0.0,0.0,0.0,0.0,0.0,0.0,0.0,0.0,0.0,0.0,0.0,0.0,0.0,0.0,0.0,0.0,0.0,0.0,0.0,0.0,0.0,0.0,0.0,0.0,0.0,0.0,0.0,0.0,0.0,0.0,0.0,0.0,0.0,0.0,0.0,0.0,0.0,0.0,0.0,0.0,0.0,0.0,0.0,0.0,0.0,0.0,0.0,0.0,0.0,0.0,0.0,0.0,0.0,0.0,0.0,0.0,0.0,0.0,0.0,0.0,0.0,0.0,0.0,0.0,0.0,0.0,0.0,0.0,0.0,0.0,0.0,0.0,-5.0682,-5.0771,-5.1156,-5.1957,-5.2034,-5.2343,-5.3155,-5.3299,-5.3365,-5.3365,0.0,0.0,0.0,0.0,0.0,0.0,0.0,0.0,0.0,0.0,0.0,0.0,0.0,0.0,0.0,0.0,0.0,0.0,0.0,0.0,0.0,0.0,0.0,0.0,0.0,0.0,0.0,0.0,0.0,0.0,0.0,0.0,0.0,0.0,0.0,0.0,0.0,0.0,0.0,0.0,0.0,0.0,0.0,0.0,0.0,0.0,0.0,0.0,0.0,0.0,0.0,0.0,0.0,0.0,0.0,0.0,0.0,0.0,0.0,0.0,-5.3322,0.0,0.0,0.0,0.0,0.0,0.0,0.0,0.0,0.0,0.0,0.0,0.0,0.0,0.0,0.0,0.0,0.0,0.0,0.0,0.0,0.0,0.0,0.0,0.0,0.0,0.0,0.0,0.0,0.0,0.0,0.0,0.0,0.0,0.0,0.0,0.0,0.0,0.0,0.0,0.0,0.0,-5.0457,-5.0488,-5.0585,-5.0758,-5.0787,-5.0864,-5.1056,-5.1819,-5.2308,-5.2308,0.0,0.0,0.0,0.0,0.0,0.0,0.0,0.0,0.0,0.0,0.0,0.0,0.0,0.0,0.0,0.0,0.0,0.0,0.0,0.0,0.0,0.0,0.0,0.0,0.0,0.0,0.0,0.0,0.0,0.0,0.0,0.0,0.0,0.0,0.0,0.0,0.0,0.0,0.0,0.0,0.0,0.0,0.0,0.0,0.0,0.0,0.0,0.0,0.0,0.0,0.0,0.0,0.0,0.0,0.0,0.0,0.0,0.0,0.0,0.0,0.0,-5.3086,0.0,0.0,0.0,0.0,0.0,0.0,0.0,0.0,0.0,0.0,0.0,0.0,0.0,0.0,0.0,0.0,0.0,0.0,0.0,0.0,0.0,0.0,0.0,0.0,0.0,0.0,0.0,0.0,0.0,0.0,0.0,0.0,0.0,0.0,0.0,0.0,0.0,0.0,0.0,0.0,-5.0302,-5.035,-5.0404,-5.0404,-5.0404,-5.0404,-5.0404,-5.091,-5.123,-5.123,-5.1615,0.0,0.0,0.0,0.0,0.0,0.0,0.0,0.0,0.0,0.0,0.0,0.0,0.0,0.0,0.0,0.0,0.0,0.0,0.0,0.0,0.0,0.0,0.0,0.0,0.0,0.0,0.0,0.0,0.0,0.0,0.0,0.0,0.0,0.0,0.0,0.0,0.0,0.0,0.0,0.0,0.0,0.0,0.0,0.0,0.0,0.0,0.0,0.0,0.0,0.0,0.0,0.0,0.0,-5.1394,-5.139,-5.1405,-5.1339,-5.1284,-5.1257,-5.1906,-5.2191,-5.2232,0.0,0.0,0.0,0.0,0.0,0.0,0.0,0.0,0.0,0.0,0.0,0.0,0.0,0.0,0.0,0.0,0.0,0.0,0.0,0.0,0.0,0.0,0.0,0.0,0.0,-4.5735,-4.597,0.0,0.0,0.0,0.0,0.0,0.0,0.0,0.0,0.0,0.0,0.0,0.0,-5.0139,-5.0245,-5.0317,-5.0317,-5.0317,-5.0317,-5.0317,-5.0339,-5.038,-5.038,-5.038,-5.0698,0.0,0.0,0.0,0.0,0.0,0.0,0.0,0.0,0.0,0.0,0.0,0.0,0.0,0.0,0.0,0.0,0.0,0.0,0.0,0.0,0.0,0.0,0.0,0.0,0.0,0.0,0.0,0.0,0.0,0.0,0.0,0.0,-5.2384,-5.1677,0.0,0.0,0.0,0.0,0.0,0.0,0.0,0.0,0.0,0.0,0.0,0.0,0.0,0.0,-5.1238,-5.1335,-5.1394,-5.1394,-5.1394,-5.1396,-5.1403,-5.1386,-5.1359,-5.1284,-5.1339,0.0,-5.1319,-5.0664,0.0,0.0,0.0,0.0,0.0,0.0,0.0,0.0,0.0,0.0,0.0,0.0,0.0,0.0,0.0,0.0,0.0,0.0,0.0,0.0,0.0,0.0,-4.5612,-4.5612,-4.5665,-4.5676,0.0,-4.6215,-4.6799,-4.6765,0.0,0.0,0.0,0.0,0.0,0.0,0.0,0.0,-4.9933,-4.9959,-4.9973,-4.9973,-4.9973,-4.9973,-4.9973,-5.0139,-5.0236,-5.0236,-5.0236,-5.0325,-5.0547,-5.0356,0.0,0.0,0.0,0.0,0.0,0.0,0.0,0.0,0.0,0.0,0.0,0.0,0.0,0.0,0.0,0.0,0.0,0.0,0.0,0.0,0.0,0.0,0.0,0.0,0.0,0.0,0.0,0.0,0.0,-5.1945,-5.2346,-5.2938,-5.2174,-5.1476,0.0,0.0,0.0,0.0,0.0,0.0,0.0,0.0,0.0,-5.1008,-5.1058,-5.1079,-5.1079,-5.1214,-5.1291,-5.1291,-5.1362,-5.1394,-5.1396,-5.1403,-5.1386,-5.1359,-5.1252,-5.1198,-5.1176,-5.0784,-5.1066,-5.1688,0.0,0.0,0.0,0.0,-4.9512,-4.8373,-4.7562,-4.7053,0.0,0.0,0.0,0.0,0.0,0.0,0.0,0.0,0.0,0.0,0.0,0.0,0.0,-4.5594,-4.5648,-4.5605,-4.5211,-4.5458,-4.5848,0.0,-4.6517,-4.698,-4.7832,0.0,0.0,0.0,0.0,0.0,-4.9836,-4.9912,-4.9912,-4.9912,-4.9912,-4.9912,-4.9912,-4.9973,-5.0025,-5.0025,-5.0025,-5.0063,-5.0113,-4.9999,-4.9925,0.0,0.0,0.0,0.0,0.0,0.0,0.0,0.0,0.0,0.0,0.0,0.0,0.0,0.0,0.0,0.0,0.0,0.0,0.0,0.0,0.0,0.0,0.0,0.0,0.0,0.0,0.0,0.0,-5.2289,-5.2466,-5.3991,-5.265,-5.1656,0.0,0.0,0.0,0.0,0.0,0.0,-5.0913,-5.092,-5.0913,-5.0905,-5.0953,-5.1069,-5.1283,-5.1454,-5.1632,-5.1865,-5.1781,-5.1726,-5.1728,-5.1497,-5.1405,-5.1386,-5.1293,-5.1239,-5.1176,-5.0961,-5.1008,-5.1183,-5.095,-5.0464,-4.9829,-4.9163,-4.8414,-4.7625,-4.6791,-4.6514,-4.6504,-4.635,0.0,-4.63,-4.63,0.0,0.0,0.0,0.0,-4.5939,-4.5854,-4.5749,-4.5635,-4.5603,-4.564,-4.5531,-4.5052,-4.5019,-4.5209,0.0,-4.5786,-4.6076,-4.689,0.0,0.0,0.0,0.0,-4.8507,-4.923,-4.931,-4.9405,-4.9598,-4.9617,-4.9617,-4.9617,-4.9707,-4.9755,-4.9693,-4.9783,-4.983,-4.9769,-4.9673,-4.9615,-4.9615,0.0,0.0,0.0,0.0,0.0,0.0,0.0,0.0,0.0,0.0,0.0,0.0,0.0,0.0,0.0,0.0,0.0,0.0,0.0,0.0,0.0,0.0,0.0,0.0,0.0,0.0,0.0,0.0,0.0,-5.4248,-5.2748,0.0,0.0,0.0,0.0,-5.0616,-5.0728,-5.0789,-5.0709,-5.0715,-5.0699,-5.0624,-5.0816,-5.127,-5.2047,-5.2294,-5.2844,-5.3658,-5.2972,-5.2626,-5.2607,-5.1787,-5.1395,-5.1406,-5.1386,-5.1327,-5.1137,-5.03,-5.0445,-5.1125,-5.0289,-4.9945,-4.9887,-4.9848,-4.9338,-4.8513,-4.763,-4.7374,-4.7304,-4.6545,-4.63,-4.63,-4.63,-4.63,0.0,0.0,-4.6184,-4.6057,-4.592,-4.5841,-4.5757,-4.5637,-4.5594,-4.5448,-4.4938,-4.4908,-4.4922,0.0,-4.4689,-4.5064,-4.5914,0.0,-4.6416,-4.6915,-4.6999,-4.7162,-4.7651,-4.7713,-4.801,-4.8775,-4.8867,-4.8867,-4.8867,-4.9204,-4.9349,-4.9153,-4.9506,-4.9615,-4.943,-4.943,-4.9415,-4.9415,-4.9292,0.0,0.0,0.0,0.0,0.0,0.0,0.0,0.0,0.0,0.0,0.0,0.0,0.0,0.0,0.0,0.0,0.0,0.0,0.0,0.0,0.0,0.0,0.0,0.0,0.0,0.0,0.0,0.0,-5.4027,-5.2655,0.0,-5.2595,-5.1299,-5.0493,-5.0644,-5.0699,-5.0735,-5.0689,-5.0687,-5.0939,-5.1481,-5.1443,-5.1828,-5.2664,-5.2898,-5.321,-5.3608,-5.289,-5.2629,-5.2665,-5.1804,-5.1402,-5.1394,-5.1405,-5.1365,-5.1309,-5.0951,-5.096,-5.1163,-5.0853,-5.0386,-4.9906,-4.9906,-4.9396,-4.8668,-4.8335,-4.7901,-4.7363,-4.6565,-4.63,-4.63,-4.63,-4.63,-4.63,-4.63,-4.6141,-4.5969,-4.591,-4.5783,-4.5651,-4.5612,-4.5594,-4.5448,-4.4927,-4.4837,-4.4726,-4.4273,-4.4397,-4.4678,-4.4978,-4.497,-4.5158,-4.5881,-4.5888,-4.6041,-4.6729,-4.6824,-4.6936,-4.7215,-4.7649,-4.7894,-4.7894,-4.8483,-4.878,-4.8728,-4.8851,-4.8904,-4.8805,-4.8912,-4.8955,-4.8955,-4.8996,-4.8736,0.0,0.0,0.0,0.0,0.0,0.0,0.0,0.0,0.0,0.0,0.0,0.0,0.0,0.0,0.0,0.0,0.0,0.0,0.0,0.0,0.0,0.0,0.0,0.0,0.0,0.0,-5.2236,-5.3977,-5.2903,-5.2288,-5.3037,-5.1664,-5.0688,-5.0575,-5.0635,-5.0673,-5.0671,-5.1001,-5.1434,-5.1961,-5.2135,-5.2628,-5.3433,-5.3629,-5.3923,-5.4336,-5.337,-5.2987,-5.3093,-5.1921,-5.1394,-5.1396,-5.1397,-5.1405,-5.1406,-5.1341,-5.1294,-5.1234,-5.1215,-5.0855,-5.033,-5.033,-5.0026,-4.9528,-4.8937,-4.8203,-4.7397,-4.6562,-4.63,-4.63,-4.63,-4.63,-4.63,-4.63,-4.6141,-4.5969,-4.591,-4.5783,-4.5671,-4.5612,-4.5594,-4.5448,-4.4927,-4.4788,-4.4637,-4.4091,-4.4237,-4.443,-4.443,-4.4273,-4.4319,-4.4817,-4.4652,-4.4747,-4.5509,-4.5548,-4.5623,-4.5899,-4.6324,-4.6599,-4.6599,-4.739,-4.7758,-4.7444,-4.7772,-4.784,-4.7534,-4.7619,-4.7642,-4.7639,-4.7738,-4.7396,-4.6584,0.0,0.0,0.0,0.0,0.0,0.0,0.0,0.0,0.0,0.0,0.0,0.0,0.0,0.0,0.0,0.0,0.0,0.0,0.0,0.0,0.0,0.0,0.0,-5.0987,-5.1402,-5.2288,-5.4124,-5.343,-5.2893,-5.3067,-5.22,-5.1276,-5.0409,-5.0534,-5.0645,-5.0625,-5.16,-5.2097,-5.1943,-5.2829,-5.3619,-5.4323,-5.4456,-5.5019,-5.5978,-5.4439,-5.3791,-5.3932,-5.2195,-5.1394,-5.1394,-5.1394,-5.1394,-5.1406,-5.1406,-5.1363,-5.1295,-5.1236,-5.1207,-5.1207,-5.1207,-5.1288,-5.1152,-4.9397,-4.8291,-4.7489,-4.6593,-4.63,-4.63,-4.63,-4.63,-4.63,-4.63,-4.6206,-4.6061,-4.593,-4.5847,-4.5757,-4.5637,-4.5594,-4.5448,-4.4927,-4.4788,-4.4637,-4.4091,-4.4162,-4.4285,-4.4285,-4.4102,-4.3909,-4.3707,-4.3336,0.0,-4.3888,-4.3838,-4.4065,-4.4839,-4.4946,-4.4964,-4.4964,-4.5985,-4.6254,-4.5353,-4.6323,-4.6525,-4.5619,-4.558,-4.5582,-4.5602,-4.5583,-4.5175,-4.4393,0.0,0.0,0.0,0.0,0.0,0.0,0.0,0.0,0.0,0.0,0.0,0.0,0.0,0.0,0.0,0.0,0.0,0.0,0.0,0.0,0.0,0.0,-5.0187,-5.1313,-5.1534,-5.2007,-5.3104,-5.2987,-5.2822,-5.2874,-5.2624,-5.2169,-5.1436,-5.1567,-5.1481,-5.0983,-5.1095,-5.171,-5.288,-5.2931,-5.3632,-5.5071,-5.5135,-5.542,-5.5916,-5.4316,-5.3716,-5.3938,-5.2191,-5.1394,-5.1394,-5.1394,-5.14,-5.1409,-5.1409,-5.1383,-5.1363,-5.1295,-5.1277,-5.1277,-5.1277,-5.133,-5.1152,-4.9397,-4.8662,-4.8232,-4.6768,-4.63,-4.63,-4.63,-4.63,-4.63,-4.63,-4.6138,-4.5959,-4.591,-4.5776,-4.5654,-4.5603,-4.5594,-4.5448,-4.4927,-4.4788,-4.4637,-4.4091,-4.4036,-4.402,-4.3828,-4.3646,-4.3424,-4.316,-4.2902,0.0,-4.2974,-4.2953,-4.3023,-4.3238,-4.3696,-4.3996,-4.3996,-4.471,-4.5065,-4.4807,-4.5079,-4.5136,-4.4886,-4.5117,-4.5339,-4.5593,-4.5024,-4.4624,0.0,0.0,0.0,0.0,0.0,0.0,0.0,0.0,0.0,0.0,0.0,0.0,0.0,0.0,0.0,0.0,0.0,0.0,0.0,0.0,0.0,0.0,-4.9878,-5.0019,-5.123,-5.1509,-5.1773,-5.2251,-5.2594,-5.2805,-5.2805,-5.2805,-5.2663,-5.2374,-5.2536,-5.2349,-5.1682,-5.1922,-5.2316,-5.2785,-5.2964,-5.3456,-5.4295,-5.4313,-5.4452,-5.4712,-5.3484,-5.3065,-5.3299,-5.1996,-5.1408,0.0,-5.1392,-5.1394,-5.1394,-5.1394,-5.1407,0.0,0.0,0.0,0.0,0.0,-5.1132,-5.0657,-4.9274,-4.8584,-4.8076,-4.6749,-4.63,-4.63,-4.63,-4.63,-4.63,-4.63,-4.6105,-4.5899,-4.5899,-4.5749,-4.5594,-4.5594,-4.5513,-4.5322,-4.4884,-4.4714,-4.4511,-4.4079,0.0,0.0,-4.3495,-4.3339,-4.3178,-4.2957,-4.265,-4.249,-4.2548,-4.251,-4.247,-4.247,-4.262,-4.2722,-4.2722,-4.3222,0.0,0.0,0.0,-4.3748,-4.3622,-4.3611,0.0,0.0,0.0,-4.3512,-4.3512,0.0,0.0,0.0,-4.2739,-4.2733,0.0,0.0,0.0,0.0,0.0,0.0,0.0,0.0,0.0,0.0,0.0,0.0,0.0,0.0,0.0,0.0,-4.9784,-4.9679,-5.0875,-5.1332,-5.1584,-5.1723,-5.2442,-5.2938,-5.2938,-5.3051,-5.315,-5.3271,-5.3469,-5.3231,-5.2463,0.0,0.0,0.0,0.0,-5.308,-5.2798,-5.2805,-5.2893,-5.3099,-5.2404,-5.2181,-5.2383,-5.1684,-5.1369,-5.1396,-5.1406,-5.139,-5.139,-5.1392,-5.1392,-5.1398,-5.1402,-5.1406,-5.1405,-5.1407,-5.0848,-4.9987,-4.9091,0.0,0.0,-4.6573,-4.63,-4.63,-4.63,-4.63,-4.63,-4.63,-4.6105,-4.5899,-4.5899,-4.5749,-4.5594,-4.5594,-4.5419,-4.515,-4.4861,-4.4612,-4.436,-4.4064,-4.4005,-4.3828,-4.3286,-4.3214,-4.3105,-4.2863,-4.2532,-4.2346,-4.2463,-4.2366,-4.2287,-4.2225,0.0,0.0,-4.1445,-4.1678,-4.1737,-4.1435,-4.2094,-4.2384,-4.2136,-4.1668,-4.1632,-4.2124,-4.2124,-4.2124,-4.2124,-4.2124,-4.2124,-4.2124,-4.2436,-4.2436,0.0,0.0,0.0,0.0,0.0,0.0,0.0,0.0,0.0,0.0,0.0,0.0,0.0,0.0,0.0,-4.9896,-4.9285,-4.9332,-5.0525,-5.0989,-5.1534,-5.2455,-5.332,-5.3855,-5.3855,-5.4584,-5.4839,-5.4348,-5.449,-5.4018,-5.263,-5.2635,0.0,-5.2097,-5.2105,-5.2323,-5.2798,-5.2805,-5.2909,-5.3098,0.0,0.0,-5.2372,-5.1536,-5.1246,-5.14,-5.1403,-5.1403,-5.1403,-5.1396,-5.1406,-5.1394,-5.1402,-5.1405,-5.1405,-5.1396,-5.0848,-4.9987,-4.9091,-4.8271,-4.745,-4.6573,-4.63,-4.63,-4.63,-4.63,0.0,-4.63,-4.6105,-4.5899,-4.5899,-4.5749,-4.5594,-4.5594,-4.5568,-4.54,-4.4896,-4.4751,-4.4572,-4.4075,-4.4005,-4.3828,-4.3286,-4.3214,-4.3013,-4.251,-4.2348,-4.2308,-4.2346,-4.2325,-4.2145,-4.1687,-4.1561,-4.1356,-4.0966,-4.0992,-4.0998,-4.0944,-4.1082,-4.1157,-4.1095,-4.0984,-4.0972,-4.1082,-4.1082,-4.1082,-4.1082,-4.1082,-4.1082,-4.1082,-4.1522,-4.1708,0.0,0.0,0.0,0.0,0.0,0.0,0.0,0.0,0.0,0.0,0.0,-5.2085,0.0,0.0,-5.0446,-4.9621,-4.9123,-4.9215,-5.0432,-5.0902,-5.1519,-5.2665,-5.3168,-5.3626,-5.4065,-5.4649,-5.5065,-5.5232,-5.5445,-5.4888,-5.3338,-5.3186,-5.2626,-5.1494,-5.1357,-5.1375,-5.1544,-5.1544,-5.1595,-5.17,-5.1394,-5.1376,-5.1587,-5.125,-5.1189,-5.1343,-5.1391,-5.1394,-5.1394,-5.1403,-5.1391,-5.1396,-5.1396,-5.1403,-5.1355,-5.0906,-5.0204,-4.9323,-4.8441,-4.7623,-4.6884,-4.6431,-4.6296,-4.63,-4.63,-4.63,-4.6296,-4.6214,-4.6053,-4.5889,-4.5865,-4.573,-4.5594,-4.5594,-4.5381,-4.5137,-4.4868,-4.4604,-4.4322,-4.4048,-4.4005,-4.3828,-4.3286,-4.3214,-4.2994,-4.2389,-4.2308,-4.2308,-4.2308,-4.2082,-4.1813,-4.1534,-4.1047,-4.0648,-4.0424,-4.0396,-4.039,-4.039,-4.039,-4.0514,-4.08,-4.0541,-4.0538,-4.0802,-4.0713,-4.0689,-4.0689,-4.0601,-4.0535,-4.0552,-4.0546,-4.0771,0.0,0.0,0.0,0.0,0.0,0.0,0.0,0.0,-5.0894,-5.1508,-5.175,-5.1736,-5.1447,-5.0946,-5.0287,-4.9482,-4.8955,-4.915,-5.0593,-5.1039,-5.174,-5.3099,-5.3148,-5.3397,-5.4276,-5.4559,-5.5037,-5.584,-5.6121,-5.5578,-5.3985,-5.3907,-5.2976,-5.0928,-5.0813,-5.0659,-5.0363,-5.0325,-5.0302,-5.0302,-5.0464,-5.0615,-5.0769,-5.0933,-5.1092,-5.1265,-5.1353,-5.1385,-5.1369,-5.1369,-5.1391,-5.1375,-5.1219,-5.1154,-5.1056,-5.0352,-4.9436,-4.8459,-4.7747,-4.6969,-4.6275,-4.6284,-4.6288,-4.6275,-4.6296,-4.6298,-4.6271,-4.6138,-4.6,-4.5878,-4.5822,-4.5708,-4.5594,-4.5594,-4.5263,-4.4938,-4.4812,-4.4457,-4.4121,-4.4036,-4.4005,-4.3828,-4.3286,-4.3214,-4.2994,-4.2389,-4.2308,-4.2267,-4.2166,-4.177,-4.1428,-4.1225,-4.048,-3.9952,-3.9868,-3.9868,-3.9868,-3.9868,-3.9868,-4.007,-4.049,-4.007,-4.0003,-4.0424,-4.0326,-4.026,-4.026,-4.0077,-4.001,-3.9985,-3.9603,-3.9851,-4.6752,-4.778,0.0,-4.8998,-4.9107,-4.9212,0.0,0.0,-4.9568,-5.0187,-5.0831,-5.1167,-5.0779,-5.0538,-5.0162,-4.9362,-4.8581,-4.8898,-5.1179,-5.1567,-5.2435,-5.4667,-5.4352,-5.4295,-5.5174,-5.5534,-5.5773,-5.5887,-5.6251,-5.5715,-5.3985,-5.3907,-5.3025,-5.1126,-5.0884,-5.072,-5.0576,-5.0396,-5.0302,-5.0302,-5.0325,-5.0432,-5.0625,-5.0653,-5.0832,-5.1134,-5.1252,-5.1319,-5.1314,-5.1314,-5.1343,-5.1316,-5.0555,-5.0246,-5.023,-5.0132,-4.9059,-4.7635,-4.7535,-4.693,-4.6211,-4.6211,-4.6211,-4.6214,-4.6284,-4.6306,-4.6279,-4.6135,-4.6,-4.5878,-4.5822,-4.5708,-4.5594,-4.5594,-4.554,-4.539,-4.4896,-4.4751,-4.4559,-4.4094,-4.4005,-4.3828,-4.3286,-4.3214,-4.2994,-4.2389,-4.2308,-4.2124,-4.1644,-4.1556,-4.1162,-4.026,-4.0078,-3.9817,-3.9415,-3.9362,-3.9362,-3.9362,-3.9362,-3.9405,-3.9468,-3.9239,-3.9142,-3.9195,-3.9088,-3.899,-3.899,-3.8963,-3.898,-3.898,-3.8925,-3.9206,-4.7208,0.0,0.0,0.0,-4.9001,-4.9001,-4.9063,-4.9077,-4.9256,-4.9855,-5.0247,-5.0467,-5.048,-5.0113,-4.9675,0.0,-4.8498,-4.8673,-5.0586,-5.0871,-5.1779,-5.4215,-5.4231,-5.4409,-5.5313,-5.5689,-5.5907,-5.5907,-5.6263,-5.5743,-5.3989,-5.3907,-5.3049,-5.1163,-5.0891,-5.0728,-5.0596,-5.0407,-5.0302,-5.0302,-5.0302,-5.0407,-5.0587,-5.0587,-5.0724,-5.0939,-5.1109,-5.1181,-5.1201,-5.1273,-5.1027,-5.0547,-5.0176,-4.9455,-4.8581,-4.8599,-4.8137,-4.7432,-4.6919,-4.6493,-4.6206,-4.6198,-4.6201,-4.6209,-4.6233,-4.6192,-4.6107,-4.5969,-4.585,-4.575,-4.5602,-4.5547,-4.5531,-4.5531,-4.5419,-4.5211,-4.4861,-4.4676,-4.4452,-4.4079,-4.4005,-4.3828,-4.3286,-4.3214,-4.2994,-4.2389,-4.2308,-4.2124,-4.1578,-4.1248,-4.0713,-3.9696,-3.9592,-3.9504,-3.9325,-3.9299,-3.9299,-3.9299,-3.9175,-3.9121,-3.9121,-3.8606,-3.8294,-3.8294,-3.7793,-3.7515,-3.7515,-3.7442,-3.7413,-3.7413,-3.7413,-3.7528,-4.7808,0.0,0.0,-4.9001,-4.9001,-4.9001,-4.9001,-4.9001,-4.9104,-4.9578,-4.9769,-4.9947,-5.0138,-4.9698,-4.9271,-4.9086,-4.8413,-4.8408,-4.9875,-5.0196,-5.1051,-5.3195,-5.3568,-5.3913,-5.4581,-5.542,-5.5907,-5.5907,-5.6263,-5.5743,-5.3989,-5.3907,-5.3049,-5.1163,-5.0891,-5.0728,-5.0596,-5.0407,-5.0302,-5.0302,-5.0302,-5.0374,-5.0526,-5.0567,-5.0653,-5.0753,-5.0932,-5.1049,-5.1092,-5.0958,-5.0536,-4.9956,-4.9488,-4.8573,-4.7466,-4.7239,-4.715,-4.705,-4.6417,-4.6206,-4.6192,-4.6203,-4.6206,-4.6192,-4.6161,-4.608,-4.5964,-4.5783,-4.5715,-4.5623,-4.5447,-4.5429,-4.5457,-4.5457,-4.5322,-4.5096,-4.48,-4.4599,-4.4388,-4.4033,-4.3989,-4.3828,-4.3286,-4.3214,-4.2994,-4.2389,-4.2308,-4.2061,-4.1383,-4.0761,-4.0112,-3.9379,-3.9299,-3.9272,-3.9202,-3.905,-3.8925,-3.8871,-3.8579,-3.8379,-3.8379,-3.7793,-3.7467,-3.7475,-3.6854,-3.6538,-3.6554,-3.6446,-3.6415,-3.6415,-3.6399,-3.6413,0.0,0.0,-4.9001,-4.9001,-4.9001,-4.9001,-4.9001,-4.9001,-4.9001,-4.9032,-4.9495,-4.9815,-4.9559,-4.9352,-4.9144,-4.8942,-4.8221,-4.812,-4.9352,-4.9916,-5.0667,-5.1905,-5.2465,-5.2762,0.0,-5.4667,-5.5907,-5.5907,-5.6263,-5.5743,-5.3989,-5.3907,-5.3049,-5.1163,-5.0891,-5.0728,-5.0596,-5.0407,-5.0302,-5.0302,-5.0302,-5.0302,-5.0314,-5.0516,-5.0596,-5.0616,-5.0745,-5.0925,-5.1022,-5.0192,-4.9912,-4.9839,-4.8202,-4.754,-4.7404,-4.655,-4.6238,-4.6238,-4.6219,-4.6199,-4.6199,-4.6199,-4.6199,-4.6189,-4.605,-4.6003,-4.5944,-4.5675,-4.5592,-4.5571,-4.5438,-4.541,-4.541,-4.541,-4.54,-4.5243,-4.4714,-4.4656,-4.4519,-4.4005,-4.3961,-4.3828,-4.3286,-4.3214,-4.2994,-4.2389,-4.2308,-4.1938,-4.0943,-3.9978,-3.9325,-3.9299,-3.9299,-3.9218,-3.904,-3.8402,-3.7975,-3.7835,-3.7233,-3.6858,-3.6858,-3.6722,-3.6642,-3.6629,-3.6483,-3.6413,-3.6415,-3.6415,-3.6415,-3.6384,-3.6393,-3.6388,-4.875,0.0,-4.9001,-4.9001,-4.9001,-4.9001,-4.9001,-4.9001,-4.9001,-4.9001,-4.9494,-4.9828,-4.9545,-4.9327,-4.9145,-4.8927,-4.823,-4.7936,-4.8596,-4.9029,-4.9745,-5.0992,-5.1514,0.0,0.0,0.0,0.0,-5.4987,-5.5294,-5.4996,-5.3966,-5.3907,-5.3049,-5.1163,-5.0891,-5.0728,-5.0596,-5.0407,-5.0302,-5.0302,-5.0302,-5.0302,-5.0302,-5.0363,-5.0407,-5.0418,-5.0587,-5.0707,-5.0756,-5.0557,-4.9834,-4.8812,-4.8244,-4.7319,-4.6271,-4.598,-4.5863,-4.5906,-4.6123,-4.6199,-4.6189,-4.6093,-4.6071,-4.6037,-4.5852,-4.5731,-4.565,-4.5566,-4.5491,-4.5457,-4.537,-4.537,-4.539,-4.539,-4.522,-4.4985,-4.4682,-4.4484,-4.4265,-4.3897,-4.3851,-4.3649,-4.2976,-4.2882,-4.2634,-4.1934,-4.1788,-4.1534,-4.0873,-4.0103,-3.9497,-3.9131,-3.9023,-3.8761,-3.8238,-3.7994,-3.7645,-3.7174,-3.6843,-3.6661,-3.6661,-3.6105,-3.5794,-3.5813,-3.5302,-3.5065,-3.5055,-3.5055,-3.5055,-3.5055,-3.506,-3.4776,-4.8293,-4.8568,-4.8925,-4.8925,-4.897,-4.9001,-4.9001,-4.9001,-4.9001,-4.9001,-4.948,-4.9722,-4.9211,-4.9164,-4.9043,-4.8547,-4.8049,-4.7783,-4.805,-4.8495,-4.9105,-4.9926,-5.0501,0.0,0.0,0.0,0.0,-5.4025,-5.4606,-5.4472,-5.3494,-5.3667,-5.2936,-5.1056,-5.0828,-5.0652,-5.0495,-5.0363,-5.0302,-5.0302,-5.0302,-5.0302,-5.0302,-5.0302,-5.0302,-5.0314,-5.0451,-5.0536,-5.0577,-5.0359,-4.9497,-4.8275,-4.7959,-4.696,-4.5703,-4.5703,-4.5703,-4.5731,-4.5958,-4.6027,-4.6013,-4.5925,-4.5896,-4.5853,-4.5675,-4.5563,-4.55,-4.5447,-4.54,-4.5348,-4.5307,-4.5328,-4.5359,-4.5359,-4.5205,-4.4946,-4.4585,-4.4416,-4.4192,-4.38,-4.3771,-4.3566,-4.2826,-4.2496,-4.2151,-4.1653,-4.1547,-4.1311,-4.0666,-4.0036,-3.948,-3.898,-3.886,-3.8495,-3.7793,-3.7515,-3.7054,-3.6353,-3.5993,-3.5819,-3.5819,-3.531,-3.4928,-3.462,-3.447,-3.4274,-3.398,-3.398,-3.398,-3.3965,-3.3686,-3.3302,-4.7361,-4.7964,-4.8769,-4.8769,-4.8894,-4.897,-4.9001,-4.9001,-4.9001,-4.9001,-4.9511,-4.9658,0.0,0.0,-4.8924,-4.7928,-4.7735,-4.7717,-4.7717,-4.8327,-4.8799,0.0,0.0,0.0,0.0,0.0,0.0,-5.298,0.0,-5.4105,-5.2667,-5.3188,-5.268,-5.0856,-5.0671,-5.0506,-5.0302,-5.0302,-5.0302,-5.0302,-5.0302,-5.0302,-5.0302,-5.0302,-5.0302,-5.0302,-5.0302,-5.0418,-5.0519,-4.9692,-4.8938,-4.8187,-4.7349,-4.6486,-4.5682,-4.5682,-4.5682,-4.5682,-4.5682,-4.5696,-4.5703,-4.5696,-4.5696,-4.5667,-4.5533,-4.55,-4.5464,-4.5339,-4.5307,-4.5307,-4.5307,-4.5307,-4.5307,-4.5307,-4.5286,-4.5106,-4.4506,-4.4425,-4.4285,-4.3714,-4.3651,-4.3497,-4.2789,-4.2047,-4.156,-4.156,-4.156,-4.1232,-4.0309,-3.9749,-3.9276,-3.8832,-3.8777,-3.8439,-3.7618,-3.695,-3.6244,-3.54,-3.4754,-3.4414,-3.4414,-3.4414,-3.4042,-3.3302,-3.3998,-3.3998,-3.3191,-3.3191,-3.3186,-3.3127,-3.2418,-3.21,-4.7245,-4.7853,-4.8595,-4.8595,-4.8578,-4.869,-4.8832,-4.8832,-4.8894,-4.897,-4.9812,-5.023,0.0,0.0,0.0,-4.8711,-4.8085,0.0,-4.7717,-4.8327,0.0,-4.8799,0.0,-4.9939,-4.9939,-4.9992,0.0,0.0,-5.2059,-5.2558,-5.2305,-5.2505,-5.2041,-5.0758,-5.0634,-5.0506,-5.0302,-5.0302,-5.0302,-5.0302,-5.0302,-5.0302,-5.0302,-5.0302,-5.0302,-5.0302,-5.0302,-5.0337,-5.0355,-5.0144,-4.922,-4.7912,-4.7672,-4.6704,-4.541,-4.541,-4.541,-4.541,-4.541,-4.5541,-4.5689,-4.5587,-4.5547,-4.5533,-4.539,-4.5351,-4.5341,-4.5317,-4.5307,-4.5307,-4.5307,-4.5307,-4.5307,-4.5307,-4.4953,-4.4591,-4.4425,-4.4069,-4.3712,-4.3548,-4.3032,-4.2539,-4.236,-4.164,-4.1082,-4.1082,-4.1082,-4.086,-4.0285,-4.0003,-3.9532,-3.8738,-3.856,-3.8001,-3.6814,-3.6569,-3.5946,-3.4721,-3.4501,-3.4414,-3.4414,-3.4414,-3.4288,-3.4119,-3.4301,-3.3994,-3.3191,-3.3191,-3.2926,-3.2383,-3.2177,-3.2088,-4.6601,-4.7243,-4.8004,-4.8272,-4.842,-4.8515,-4.8627,-4.8675,-4.869,-4.8784,-4.9423,0.0,0.0,0.0,0.0,0.0,0.0,0.0,-4.7675,-4.821,-4.8641,0.0,-4.9312,0.0,-4.9898,-4.992,-4.9993,0.0,-5.1171,-5.1722,-5.1501,-5.1835,-5.1583,-5.0596,-5.0467,-5.0377,-5.0302,-5.0302,-5.0302,-5.0302,-5.0302,-5.0302,-5.0302,-5.0302,-5.0302,-5.0302,0.0,-5.0302,-5.0302,-5.0302,-4.9538,-4.8334,-4.7941,-4.6997,-4.5774,-4.543,-4.5307,-4.5307,-4.5307,-4.54,-4.5507,-4.5438,-4.54,-4.54,-4.5319,-4.5307,-4.5307,-4.5307,-4.5307,-4.5307,-4.5307,-4.5307,-4.5307,-4.5307,-4.4941,-4.4546,-4.4443,-4.4042,-4.3682,-4.3513,-4.2958,-4.2438,-4.2257,-4.1622,-4.1094,-4.0918,-4.0912,-4.0662,-4.0028,-3.9876,-3.948,-3.8616,-3.8448,-3.7857,-3.6508,-3.6415,-3.5834,-3.4467,-3.4414,-3.4414,-3.4414,-3.4414,-3.4211,-3.3888,-3.3881,-3.3485,-3.2732,-3.2732,-3.2283,-3.1447,-3.1448,-3.1203,-4.5649,-4.6321,-4.7147,-4.773,-4.7992,-4.8184,-4.8284,-4.8349,-4.8333,-4.8333,0.0,-4.8778,-4.8072,0.0,-4.7844,-4.7684,0.0,-4.7165,-4.7633,-4.8046,-4.8419,-4.8712,-4.9139,-4.9503,-4.9797,-4.9866,-4.9912,-4.9912,-5.0866,-5.1195,-5.0586,-5.1151,-5.116,-5.038,-5.024,-5.02,-5.0278,-5.0278,-5.029,-5.029,-5.029,-5.029,-5.0302,-5.029,-5.029,-5.0302,0.0,0.0,-5.0302,-5.0302,-4.9824,-4.9003,-4.8143,-4.7272,-4.6405,-4.5602,-4.5307,-4.5307,-4.5307,-4.5307,-4.5307,-4.5307,-4.5307,-4.5307,-4.5307,-4.5307,-4.5307,-4.5307,-4.5307,-4.5307,-4.5307,-4.5307,-4.5307,-4.5307,-4.5023,-4.4676,-4.4452,-4.4147,-4.3846,-4.3548,-4.3178,-4.275,-4.2297,-4.1821,-4.1356,-4.0965,-4.0912,-4.059,-3.9714,-3.961,-3.9295,-3.8476,-3.8391,-3.7902,-3.6631,-3.6446,-3.5866,-3.462,-3.4448,-3.4414,-3.4414,-3.4414,-3.4057,-3.3345,-3.3209,-3.278,-3.2013,-3.1923,-3.1342,-3.0388,-3.0396,-2.9975,-4.487,-4.5448,-4.6076,-4.6208,-4.6225,-4.6454,-4.726,-4.7441,0.0,0.0,0.0,-4.8163,-4.7213,-4.75,0.0,-4.7589,0.0,0.0,0.0,0.0,-4.8318,0.0,0.0,0.0,0.0,0.0,0.0,0.0,0.0,0.0,-5.0275,-5.0451,-5.0424,-5.0151,-5.0133,-5.012,-5.0133,-5.0194,-5.0231,-5.0231,-5.0231,-5.0255,-5.0302,-5.0236,-5.0255,-5.0302,0.0,0.0,-5.0302,-5.0302,-4.9824,-4.9003,-4.8143,-4.7272,-4.6405,-4.5602,-4.5307,-4.5307,-4.5307,-4.5307,-4.5307,-4.5307,-4.5307,-4.5307,-4.5307,-4.5307,-4.5307,-4.5307,-4.5307,-4.5307,-4.5307,-4.5307,-4.5307,-4.5307,-4.4875,-4.4452,-4.4397,-4.398,-4.3565,-4.3515,-4.3178,-4.275,-4.2297,-4.1821,-4.1356,-4.0965,-4.0912,-4.059,-3.9714,-3.961,-3.9295,-3.8476,-3.8391,-3.8091,-3.7282,-3.6707,-3.6072,-3.527,-3.4721,-3.4414,-3.4414,-3.4414,-3.4269,-3.3945,-3.3276,-3.2525,-3.1589,-3.094,-3.0175,-2.9354,-2.9369,-2.9635,-4.4589,-4.4967,-4.5301,-4.5698,-4.5798,-4.5928,-4.6387,0.0,0.0,0.0,-4.6746,-4.6863,-4.6723,0.0,0.0,0.0,0.0,0.0,0.0,0.0,0.0,0.0,0.0,0.0,0.0,0.0,0.0,0.0,0.0,0.0,-5.0038,-5.0063,-5.0082,-5.0057,-5.0057,-5.007,-5.0095,-5.0133,-5.0158,-5.0158,-5.0158,-5.0151,-5.0194,-5.017,-5.0175,-5.0255,-5.0219,0.0,-5.0255,-5.0219,-4.999,-4.9529,-4.8251,-4.7518,-4.7016,-4.5755,-4.5286,-4.5246,-4.5297,-4.5286,-4.5246,-4.5297,-4.5307,-4.5307,-4.5307,-4.5307,-4.5307,-4.5307,-4.5307,-4.5307,-4.5307,-4.5307,-4.5307,-4.5307,-4.4838,-4.4299,-4.3992,-4.3695,-4.3515,-4.3515,-4.3178,-4.275,-4.2297,-4.1821,-4.1356,-4.0965,-4.0912,-4.059,-3.9714,-3.961,-3.9295,-3.8476,-3.8391,-3.8119,-3.7447,-3.6799,-3.6103,-3.5417,-3.4673,-3.423,-3.423,-3.4191,-3.4088,-3.4005,-3.3206,-3.2367,-3.1487,-3.1104,-3.0228,-2.894,-2.9378,-2.9496,-4.4337,-4.4456,-4.4589,-4.5185,-4.5334,-4.5367,-4.5516,-4.5549,0.0,0.0,-4.5481,-4.5579,-4.6207,0.0,0.0,0.0,0.0,0.0,0.0,0.0,0.0,0.0,0.0,0.0,0.0,0.0,0.0,0.0,0.0,0.0,-4.9912,-4.9912,-4.992,-4.9978,-4.9978,-4.9986,-5.0057,-5.007,-5.0082,-5.0082,-5.0082,-5.0082,-5.0095,-5.0082,-5.012,-5.0182,-5.012,0.0,0.0,-5.012,-5.0133,-5.0023,-4.8334,-4.7709,-4.7544,-4.5876,-4.5213,-4.5181,-4.5235,-4.5213,-4.5181,-4.5235,-4.5286,-4.5297,-4.5286,-4.5297,-4.5297,-4.5286,-4.5297,-4.5307,-4.5307,-4.5307,-4.5275,-4.514,-4.4752,-4.4227,-4.3631,-4.3515,-4.3497,-4.348,-4.3214,-4.2825,-4.2236,-4.1821,-4.1401,-4.0894,-4.0799,-4.0476,-3.9584,-3.9463,-3.9135,-3.829,-3.8307,-3.8148,-3.7565,-3.689,-3.6197,-3.5482,-3.4673,-3.4176,-3.4059,-3.3951,-3.3896,-3.3862,-3.3045,-3.2302,-3.1638,-3.1278,-3.0378,-2.9019,-2.947,-2.925,-4.3843,-4.3698,-4.3714,-4.378,-4.3797,-4.3962,-4.4638,0.0,0.0,-4.4818,-4.4799,-4.4888,-4.5358,-4.5442,-4.5623,0.0,0.0,-4.592,0.0,0.0,0.0,0.0,0.0,0.0,0.0,0.0,0.0,0.0,0.0,0.0,0.0,-4.9912,-4.9893,-4.9912,-4.9912,-4.9906,-4.9925,-4.9992,-5.0018,-5.0018,-5.0018,-5.0044,-5.0095,-5.0044,-5.0057,-5.0108,0.0,0.0,0.0,-5.0108,-5.0108,-4.9936,-4.8262,-4.7608,-4.7417,-4.5734,-4.5114,-4.5114,-4.5114,-4.5114,-4.5114,-4.5125,-4.5192,-4.5297,-4.5224,-4.5246,-4.5297,-4.5243,-4.5246,-4.5307,-4.5307,-4.5307,-4.5162,-4.4617,-4.4425,-4.4227,-4.3631,-4.3515,-4.348,-4.3411,-4.3394,-4.305,-4.2092,-4.1881,-4.1556,-4.0662,-4.0534,-4.0179,-3.9189,-3.9055,-3.8645,-3.7608,-3.8033,-3.8234,-3.7886,-3.7237,-3.6492,-3.5627,-3.4986,-3.4428,-3.3931,-3.3896,-3.3827,-3.364,-3.284,-3.229,-3.2042,-3.0594,-2.9768,-2.96,-2.8922,-2.859,-4.3717,-4.3598,-4.3598,-4.3598,-4.3267,-4.3118,-4.3876,0.0,-4.3512,-4.3959,-4.4042,-4.421,-4.4714,-4.5135,-4.5215,-4.4752,0.0,0.0,0.0,0.0,0.0,0.0,0.0,0.0,0.0,0.0,0.0,0.0,0.0,0.0,0.0,-4.9912,-4.9912,-4.9912,-4.9912,-4.9912,-4.9912,-4.9939,-4.9952,-4.9952,-4.9952,-4.9946,-4.9978,-4.9946,-4.9978,-5.0044,0.0,0.0,0.0,-5.0005,-4.972,-4.9188,-4.801,-4.7274,-4.6739,-4.554,-4.5061,-4.5057,-4.5091,-4.5061,-4.5057,-4.5091,-4.5136,-4.517,-4.5148,-4.5159,-4.5181,-4.5192,-4.5192,-4.5192,-4.5224,-4.5065,-4.477,-4.4374,-4.4129,-4.3852,-4.3409,-4.3304,-4.3304,-4.3286,-4.3087,-4.2709,-4.2008,-4.1683,-4.126,-4.059,-4.051,-4.0271,-3.9635,-3.9206,-3.8728,-3.8014,-3.7857,-3.774,-3.7623,-3.6966,-3.6306,-3.5627,-3.4905,-3.4293,-3.3744,-3.3605,-3.3501,-3.3431,-3.3108,-3.2654,-3.211,-3.1452,-3.0895,-3.0405,-3.0075,-2.9922,-4.3759,-4.3582,-4.3539,-4.3539,-4.3006,-4.2688,0.0,0.0,-4.2704,-4.3449,-4.3598,-4.3831,-4.4597,-4.4839,-4.4749,-4.4132,0.0,-4.3966,0.0,0.0,0.0,0.0,0.0,0.0,0.0,0.0,0.0,0.0,0.0,0.0,0.0,-4.9573,-4.966,-4.9879,-4.9797,-4.9755,-4.9755,-4.9617,-4.9573,-4.9573,-4.9693,-4.9755,-4.9755,-4.9852,-4.9939,-4.9978,0.0,0.0,0.0,-4.9925,-4.9445,-4.8688,-4.7815,-4.7004,-4.6235,-4.5349,-4.5003,-4.4986,-4.5014,-4.4955,-4.4852,-4.4991,-4.496,-4.4912,-4.5003,-4.508,-4.5114,-4.5136,-4.5125,-4.5103,-4.503,-4.4807,-4.4519,-4.4143,-4.3868,-4.361,-4.3268,-4.3214,-4.3178,-4.3178,-4.2937,-4.2552,-4.1885,-4.1512,-4.1082,-4.0468,-4.037,-4.0221,-3.9738,-3.9312,-3.8799,-3.81,-3.7637,-3.7358,-3.7284,-3.6861,-3.6305,-3.5674,-3.4971,-3.4332,-3.375,-3.3452,-3.329,-3.329,-3.329,-3.3016,-3.2461,-3.2232,-3.1819,-3.1267,-3.1007,-3.0895,-4.396,-4.3595,-4.3402,-4.3402,-4.2947,-4.2688,0.0,0.0,-4.2704,-4.3449,-4.3598,-4.3948,-4.5064,-4.4647,-4.4225,-4.4556,-4.3979,0.0,0.0,0.0,0.0,0.0,0.0,0.0,0.0,0.0,0.0,0.0,0.0,0.0,0.0,-4.8816,-4.915,-4.9866,-4.9581,-4.9415,-4.9415,-4.9021,-4.8816,-4.8816,-4.922,-4.9415,-4.943,-4.9755,-4.9912,0.0,0.0,0.0,0.0,-4.9912,-4.9438,-4.8623,-4.7751,-4.6904,-4.6089,-4.5217,-4.4895,-4.4895,-4.4895,-4.4681,-4.4457,-4.4789,-4.4681,-4.4471,-4.4802,-4.4991,-4.5091,-4.5014,-4.5057,-4.5007,-4.4688,-4.4593,-4.4447,-4.3852,-4.3691,-4.361,-4.3268,-4.3214,-4.3178,-4.3123,-4.3104,-4.2747,-4.1696,-4.1503,-4.1168,-4.0229,-4.0096,-3.9893,-3.9286,-3.9206,-3.8728,-3.7549,-3.7401,-3.7284,-3.703,-3.7015,-3.6616,-3.5752,-3.5187,-3.4643,-3.4119,-3.3577,-3.329,-3.329,-3.329,-3.329,-3.329,-3.2511,-3.211,-3.2074,-3.1267,-3.0895,-4.439,-4.3866,-4.3423,-4.3586,-4.3122,-4.2874,-4.3739,-4.3802,-4.3863,-4.4603,-4.4756,-4.4865,-4.5224,-4.4981,-4.4579,-4.4131,-4.3744,0.0,0.0,0.0,0.0,0.0,0.0,0.0,0.0,0.0,0.0,0.0,0.0,0.0,0.0,-4.8799,-4.8919,-4.9134,-4.9055,-4.8988,-4.8988,-4.8867,-4.8799,-4.8799,-4.8919,-4.8988,-4.9005,-4.9102,0.0,0.0,0.0,0.0,0.0,-4.9439,-4.8738,-4.7471,-4.7413,-4.6544,-4.5274,-4.5009,-4.4895,-4.487,-4.4642,-4.4484,-4.4369,-4.4256,-4.414,-4.408,-4.4184,-4.4416,-4.4565,-4.4313,-4.4299,-4.4308,-4.4165,-4.3937,-4.3735,-4.354,-4.332,-4.3124,-4.3031,-4.2976,-4.2994,-4.2975,-4.2957,-4.2653,-4.1656,-4.1503,-4.1168,-4.0229,-4.0096,-4.002,-3.9825,-3.9444,-3.8892,-3.8096,-3.7666,-3.7194,-3.6708,-3.6662,-3.6383,-3.5752,-3.5187,-3.4643,-3.4119,-3.3563,-3.329,-3.329,-3.329,-3.329,-3.329,-3.3051,-3.2775,-3.2497,-3.2245,-3.17,0.0,-4.4181,-4.377,-4.3902,-4.3513,-4.3322,-4.4206,-4.4294,-4.4397,-4.5147,-4.5303,-4.5355,-4.5606,-4.503,-4.4454,-4.4147,-4.35,0.0,0.0,0.0,0.0,0.0,0.0,0.0,0.0,0.0,0.0,0.0,0.0,0.0,0.0,0.0,-4.829,-4.8233,-4.8477,-4.8604,-4.8604,-4.8458,-4.8384,-4.8384,-4.8532,-4.8604,-4.8623,-4.8746,0.0,0.0,0.0,0.0,0.0,-4.9071,-4.8199,-4.6734,-4.6943,-4.5998,-4.453,-4.453,-4.453,-4.4503,-4.4285,-4.414,-4.4001,-4.3927,-4.3896,-4.3881,-4.3754,-4.3958,-4.4169,-4.3958,-4.3924,-4.3924,-4.377,-4.3557,-4.3371,-4.3249,-4.305,-4.2901,-4.2901,-4.2901,-4.2901,-4.2901,-4.2901,-4.2596,-4.1656,-4.1503,-4.1168,-4.0229,-4.0096,-4.0096,-4.0096,-3.9773,-3.9216,-3.839,-3.7953,-3.7401,-3.6585,-3.6492,-3.6352,-3.6022,-3.5494,-3.4942,-3.4409,-3.3894,-3.3437,-3.3086,-3.3086,-3.3016,-3.2838,-3.2838,-3.2717,-3.2489,-3.2489,-3.2078,0.0,-4.4524,0.0,-4.4322,-4.4096,-4.4059,-4.4761,-4.4638,0.0,-4.5295,-4.5407,-4.5606,-4.6144,-4.4928,-4.4013,-4.452,-4.3304,0.0,0.0,0.0,0.0,0.0,0.0,0.0,0.0,0.0,0.0,0.0,0.0,0.0,0.0,0.0,-4.7428,-4.7302,-4.7913,-4.8229,-4.8248,-4.7868,-4.7678,-4.7699,-4.809,-4.8248,-4.8267,-4.8586,0.0,0.0,0.0,0.0,0.0,-4.8746,-4.7799,-4.6351,-4.6385,-4.5379,-4.3896,-4.3896,-4.3896,-4.3896,-4.3881,-4.3656,-4.3457,-4.3738,-4.3833,-4.377,-4.3474,-4.359,-4.3865,-4.3833,-4.3833,-4.3754,-4.3457,-4.3371,-4.3284,-4.2958,-4.2901,-4.2901,-4.2901,-4.2901,-4.2901,-4.2901,-4.2901,-4.2596,-4.1656,-4.1503,-4.1168,-4.0229,-4.0096,-4.0096,-4.0096,-4.0096,-3.9627,-3.8418,-3.8278,-3.778,-3.6569,-3.6492,-3.6492,-3.6492,-3.599,-3.5447,-3.4942,-3.4341,-3.3624,-3.2775,-3.2704,-3.2489,-3.2092,-3.2092,-3.2092,-3.2055,-3.2055,-3.2055,-4.5274,0.0,-4.4345,-4.4492,-4.4525,-4.464,0.0,-4.5662,-4.6134,-4.6519,0.0,-4.6643,-4.6795,-4.5498,-4.4454,-4.4563,-4.3304,0.0,0.0,0.0,0.0,0.0,0.0,0.0,0.0,0.0,0.0,0.0,0.0,0.0,0.0,0.0,-4.7323,-4.7302,-4.7454,-4.7582,-4.7684,-4.7597,-4.7615,-4.7717,-4.7804,-4.7845,-4.7827,-4.7911,0.0,0.0,0.0,0.0,-4.7992,-4.8288,-4.7445,-4.5954,-4.6285,-4.5379,-4.3896,-4.3896,-4.3896,-4.3865,-4.3607,-4.3474,-4.3371,-4.3195,-4.3123,-4.3105,-4.3032,-4.3267,-4.3456,-4.3213,-4.3123,-4.3124,-4.3032,-4.3014,-4.3013,-4.292,-4.2901,-4.2901,-4.2901,-4.2901,-4.2901,-4.2901,-4.2901,-4.2596,-4.1656,-4.1503,-4.1168,-4.0229,-4.0096,-4.0096,-4.0096,-4.0096,-3.9584,-3.8218,-3.806,-3.7528,-3.6211,-3.6367,-3.6492,-3.6492,-3.5847,-3.54,-3.5302,-3.4138,-3.3374,-3.3164,-3.2561,-3.22,-3.2092,-3.2092,-3.1982,-3.174,-3.174,-3.1556,-4.5397,-4.5113,-4.4829,-4.494,-4.5093,-4.5277,-4.5547,0.0,0.0,0.0,0.0,-4.6998,-4.6998,-4.5677,0.0,-4.4603,0.0,0.0,0.0,0.0,0.0,0.0,0.0,0.0,0.0,0.0,0.0,0.0,0.0,0.0,0.0,0.0,-4.7227,-4.7165,-4.7227,-4.7298,-4.7407,-4.7468,-4.7511,-4.7511,-4.7636,-4.7657,-4.7615,-4.7615,-4.7636,0.0,0.0,0.0,-4.7681,-4.7529,-4.6717,-4.5549,-4.5407,-4.456,-4.344,-4.344,-4.344,-4.3423,-4.3213,-4.3178,-4.3142,-4.2957,-4.2901,-4.2901,-4.2901,-4.3032,-4.3123,-4.2957,-4.2901,-4.2901,-4.2901,-4.2901,-4.2901,-4.2901,-4.2881,-4.2843,-4.2843,-4.2805,-4.2786,-4.2842,-4.2689,-4.2297,-4.163,-4.1303,-4.0926,-4.0121,-4.0011,-3.9986,-3.9918,-3.9935,-3.9401,-3.8048,-3.7905,-3.7397,-3.6116,-3.6163,-3.6273,-3.6273,-3.5894,-3.5544,-3.5317,-3.4591,-3.3811,-3.3058,-3.2092,-3.1593,-3.1593,-3.1593,-3.1482,-3.131,-3.131,-3.1198,-4.5397,-4.5397,-4.5397,-4.5397,-4.5563,-4.5735,-4.5786,0.0,0.0,0.0,0.0,0.0,0.0,0.0,0.0,0.0,0.0,0.0,0.0,0.0,0.0,0.0,0.0,0.0,0.0,0.0,0.0,0.0,0.0,0.0,0.0,0.0,0.0,-4.6819,-4.7057,-4.7201,-4.7236,-4.7403,-4.7385,-4.7302,-4.7533,-4.7593,-4.7468,-4.7468,-4.7533,0.0,0.0,0.0,-4.7422,-4.6626,-4.5812,-4.5035,-4.4348,-4.3587,-4.2862,-4.2881,-4.2881,-4.2862,-4.2881,-4.2881,-4.2862,-4.2881,-4.2881,-4.2844,-4.2844,-4.2844,-4.2844,-4.2844,-4.2881,-4.2881,-4.2881,-4.2881,-4.2862,-4.2881,-4.2823,-4.2764,-4.2764,-4.2668,-4.2629,-4.2745,-4.2391,-4.1941,-4.1521,-4.1047,-4.0538,-3.9961,-3.9875,-3.9824,-3.9703,-3.9703,-3.9232,-3.8051,-3.7822,-3.7294,-3.6148,-3.5973,-3.591,-3.591,-3.5941,-3.5703,-3.5088,-3.5055,-3.4308,-3.2654,-3.1653,-3.1123,-3.0986,-3.0986,-3.0986,-3.0986,-3.0986,-3.0986,-4.5397,-4.5397,-4.5397,-4.5397,-4.5423,-4.5511,-4.5735,0.0,0.0,0.0,0.0,0.0,0.0,0.0,0.0,0.0,0.0,0.0,0.0,0.0,0.0,0.0,0.0,0.0,0.0,0.0,0.0,0.0,0.0,0.0,0.0,0.0,0.0,-4.598,-4.6663,-4.7043,-4.7048,-4.7178,-4.7249,-4.7302,-4.7341,-4.7363,-4.7341,-4.7341,-4.7341,0.0,0.0,-4.6434,-4.6467,-4.5588,-4.4816,-4.4195,-4.4068,-4.3449,-4.2668,-4.2765,-4.2746,-4.265,-4.2783,-4.2727,-4.265,-4.2783,-4.2727,-4.2649,-4.2649,-4.2649,-4.2649,-4.2649,-4.2727,-4.2822,-4.2822,-4.2727,-4.2688,-4.2803,-4.2707,-4.2629,-4.2629,-4.2609,-4.2609,-4.2629,-4.2251,-4.1774,-4.1236,-4.0767,-4.0294,-3.979,-3.9729,-3.9729,-3.9703,-3.9703,-3.9355,-3.849,-3.7937,-3.7265,-3.6399,-3.5878,-3.5602,-3.5602,-3.5686,-3.535,-3.448,-3.4447,-3.3719,-3.2232,-3.2015,-3.164,-3.0986,-3.0986,-3.0986,-3.0986,-3.0986,-3.0986,-4.5397,-4.5397,-4.5397,-4.5397,-4.5397,-4.5423,-4.5563,-4.5701,0.0,0.0,0.0,0.0,0.0,0.0,0.0,0.0,0.0,0.0,0.0,0.0,0.0,0.0,0.0,0.0,0.0,0.0,0.0,0.0,0.0,0.0,0.0,0.0,0.0,0.0,-4.5927,-4.6355,-4.6355,-4.6851,-4.7111,-4.7138,-4.7254,-4.7276,-4.7232,-4.6801,-4.6643,-4.6672,0.0,-4.5501,-4.5531,-4.4697,-4.4158,-4.3858,-4.3408,-4.2972,-4.2609,-4.2668,-4.2649,-4.2609,-4.2668,-4.2649,-4.2609,-4.2668,-4.2649,-4.2609,-4.2609,-4.2609,-4.2589,-4.2566,-4.2607,-4.2688,-4.2688,-4.2649,-4.2609,-4.2686,-4.2607,-4.2546,-4.2546,-4.2488,-4.2371,-4.2169,-4.1731,-4.1271,-4.0791,-4.0326,-3.9927,-3.9642,-3.959,-3.9563,-3.9494,-3.9468,-3.9195,-3.8463,-3.7851,-3.7191,-3.6461,-3.5861,-3.5504,-3.5504,-3.5554,-3.5394,-3.4986,-3.4528,-3.3788,-3.272,-3.229,-3.175,-3.0986,-3.0874,-3.0849,-3.0849,-3.0723,-3.0672,-4.5589,-4.5502,-4.5397,-4.5397,0.0,-4.5397,-4.5397,-4.5563,0.0,0.0,0.0,0.0,0.0,0.0,0.0,0.0,0.0,0.0,0.0,0.0,0.0,0.0,0.0,0.0,0.0,0.0,0.0,0.0,0.0,0.0,0.0,0.0,0.0,0.0,-4.5124,-4.5517,-4.5517,-4.6123,-4.6623,-4.6998,-4.7143,-4.7097,-4.6847,-4.6221,-4.5907,-4.5778,-4.4886,-4.4566,-4.4617,-4.3789,-4.3465,-4.3432,-4.2821,-4.2588,-4.257,-4.253,-4.253,-4.253,-4.2568,-4.255,-4.253,-4.2568,-4.2568,-4.253,-4.253,-4.253,-4.251,-4.2465,-4.2488,-4.253,-4.2568,-4.255,-4.253,-4.257,-4.2508,-4.2425,-4.2284,-4.2184,-4.2002,-4.1578,-4.1111,-4.0666,-4.0351,-3.9927,-3.9573,-3.9475,-3.9432,-3.9422,-3.9299,-3.9299,-3.9094,-3.859,-3.7867,-3.7071,-3.6258,-3.5765,-3.5472,-3.5439,-3.5472,-3.5504,-3.5504,-3.4872,-3.4075,-3.3143,-3.2541,-3.1773,-3.0874,-3.0685,-3.0622,-3.0622,-3.0482,-3.0406,-4.6137,-4.5778,-4.5397,-4.5397,-4.5397,0.0,-4.5397,-4.5423,0.0,-4.5423,0.0,0.0,0.0,0.0,0.0,0.0,0.0,0.0,0.0,0.0,0.0,0.0,0.0,0.0,0.0,0.0,0.0,0.0,0.0,0.0,0.0,0.0,0.0,0.0,0.0,-4.4692,-4.4692,-4.4728,-4.5517,-4.6998,-4.7002,-4.6628,-4.5891,-4.5838,-4.5392,-4.466,-4.3911,-4.3635,-4.3611,-4.2759,-4.2476,-4.2575,-4.2521,-4.2503,-4.2503,-4.2366,-4.2328,-4.2328,-4.2465,-4.2425,-4.2328,-4.2465,-4.2425,-4.2328,-4.2328,-4.2328,-4.2328,-4.2308,-4.2308,-4.2366,-4.2465,-4.2407,-4.2348,-4.2483,-4.2425,-4.2166,-4.1666,-4.1561,-4.1423,-4.0949,-4.0424,-4.0053,-4.0028,-3.9644,-3.9325,-3.9325,-3.9299,-3.9299,-3.9299,-3.9299,-3.9272,-3.9245,-3.8141,-3.6906,-3.5683,-3.5537,-3.5439,-3.5213,-3.5392,-3.5504,-3.5504,-3.5261,-3.4457,-3.2961,-3.2733,-3.1932,-3.0444,-3.0444,-3.0406,-3.0406,-3.0406,-3.0406,-4.6211,-4.5803,-4.5397,-4.5397,-4.5397,0.0,0.0,-4.5397,-4.5397,-4.5397,-4.5485,0.0,0.0,0.0,0.0,0.0,0.0,0.0,0.0,0.0,0.0,0.0,0.0,0.0,0.0,0.0,0.0,0.0,0.0,0.0,0.0,0.0,0.0,0.0,0.0,-4.3907,-4.3907,-4.4371,-4.4906,-4.5517,-4.5517,-4.5356,-4.5053,-4.4589,-4.4193,-4.3854,-4.309,-4.2772,-4.2759,-4.2433,-4.2346,-4.2366,-4.2366,-4.2366,-4.2366,-4.2308,-4.2308,-4.2308,-4.2366,-4.2346,-4.2308,-4.2366,-4.2346,-4.2308,-4.2308,-4.2308,-4.2308,-4.2308,-4.2308,-4.2308,-4.2366,-4.2346,-4.2308,-4.2366,-4.2346,-4.2145,-4.1622,-4.1494,-4.1271,-4.0473,-4.0128,-3.9919,-3.9618,-3.9415,-3.9299,-3.9299,-3.9299,-3.9299,-3.9299,-3.9299,-3.9245,-3.9121,-3.7895,-3.6569,-3.5231,-3.5115,-3.5082,-3.5001,-3.518,-3.5261,-3.5115,-3.5034,-3.4303,-3.2804,-3.2725,-3.1932,-3.0406,-3.0254,-3.0228,-3.0228,-3.0075,-3.0049,-4.6235,-4.5803,-4.5397,0.0,0.0,0.0,-4.5397,-4.5397,-4.5397,-4.5397,0.0,0.0,0.0,0.0,0.0,0.0,0.0,0.0,0.0,0.0,0.0,0.0,0.0,0.0,0.0,0.0,0.0,0.0,0.0,0.0,0.0,0.0,0.0,0.0,0.0,-4.296,-4.3126,-4.3625,-4.3875,-4.3875,-4.3875,-4.4018,-4.4228,-4.3711,-4.3375,-4.309,-4.2537,-4.2308,-4.2308,-4.2308,-4.2308,-4.2308,-4.2308,-4.2308,-4.2308,-4.2308,-4.2308,-4.2308,-4.2308,-4.2308,-4.2308,-4.2308,-4.2308,-4.2267,-4.2103,-4.2044,-4.2023,-4.1874,-4.1831,-4.1831,-4.1831,-4.1938,-4.2044,-4.2044,-4.1938,-4.1683,-4.1139,-4.1024,-4.0791,-3.9944,-3.9782,-3.9653,-3.9282,-3.9218,-3.9175,-3.9148,-3.9148,-3.9148,-3.9148,-3.9148,-3.8942,-3.8395,-3.728,-3.6134,-3.5001,-3.4902,-3.4868,-3.4835,-3.4949,-3.5016,-3.4902,-3.4868,-3.4133,-3.2591,-3.2533,-3.1736,-3.0228,-3.0075,-3.0011,-3.0011,-2.9869,-2.9792,-4.6332,-4.5803,-4.5397,0.0,0.0,0.0,-4.5397,-4.5397,-4.5397,-4.5397,0.0,0.0,0.0,0.0,0.0,0.0,0.0,0.0,0.0,0.0,0.0,0.0,0.0,0.0,0.0,0.0,0.0,0.0,0.0,0.0,0.0,0.0,0.0,0.0,0.0,0.0,-4.2287,-4.2287,-4.2308,-4.2287,-4.2308,-4.2715,-4.35,-4.35,-4.3054,-4.2308,-4.2308,-4.2308,-4.2308,-4.2308,-4.2308,-4.2308,-4.2308,-4.2308,-4.2308,-4.2308,-4.2308,-4.2308,-4.2308,-4.2287,-4.2287,-4.2287,-4.2287,-4.2187,-4.1644,-4.1494,-4.1401,-4.0943,-4.0802,-4.0802,-4.0802,-4.1134,-4.1472,-4.1494,-4.1134,-4.0659,-4.0128,-4.0003,-3.9868,-3.9388,-3.9299,-3.9245,-3.9023,-3.8996,-3.8942,-3.8832,-3.8805,-3.8805,-3.8805,-3.8805,-3.8298,-3.7041,-3.6306,-3.564,-3.4953,-3.4902,-3.4835,-3.4698,-3.4698,-3.475,-3.4902,-3.475,-3.3948,-3.2321,-3.2169,-3.1331,-2.9792,-2.9792,-2.9792,-2.9792,-2.9792,-2.9792,-4.6332,-4.5803,0.0,-4.5397,0.0,0.0,0.0,-4.5397,0.0,0.0,0.0,0.0,0.0,0.0,0.0,0.0,0.0,0.0,0.0,0.0,0.0,0.0,0.0,0.0,0.0,0.0,0.0,0.0,0.0,0.0,0.0,0.0,0.0,0.0,0.0,0.0,-4.1378,-4.198,-4.2205,-4.2019,-4.2225,-4.2412,-4.2662,-4.2662,-4.2519,-4.2308,-4.2308,-4.2308,-4.2308,-4.2308,-4.2308,-4.2308,-4.2308,-4.2308,-4.2308,-4.2308,-4.2308,-4.2308,-4.2308,-4.2044,-4.1749,-4.1749,-4.1512,-4.122,-4.1059,-4.1013,-4.099,-4.0849,-4.0713,-4.0666,-4.0666,-4.0407,-4.0309,-4.0879,-4.0896,-4.0659,-4.0128,-3.9927,-3.9697,-3.9185,-3.9013,-3.8914,-3.886,-3.886,-3.886,-3.8805,-3.8805,-3.8805,-3.8805,-3.8327,-3.7618,-3.6768,-3.6009,-3.5285,-3.4601,-3.4534,-3.4549,-3.4481,-3.4481,-3.4515,-3.4534,-3.4515,-3.3742,-3.2205,-3.211,-3.1331,-2.9792,-2.9792,-2.9792,-2.9792,-2.9792,-2.9792,-4.6013,-4.5641,0.0,-4.5397,-4.5397,-4.5397,0.0,0.0,0.0,0.0,0.0,0.0,0.0,0.0,0.0,0.0,0.0,0.0,0.0,0.0,0.0,0.0,0.0,0.0,0.0,0.0,0.0,0.0,0.0,0.0,0.0,0.0,0.0,0.0,0.0,0.0,-4.0703,-4.1236,-4.1432,-4.1276,-4.1622,-4.177,-4.1792,-4.2145,-4.2308,-4.2308,-4.2308,-4.2308,-4.2308,-4.2308,-4.2308,-4.2308,-4.2308,-4.2308,-4.2287,-4.2166,-4.2044,-4.1899,-4.1813,-4.145,-4.1013,-4.1013,-4.0821,-4.0577,-4.0375,-4.0326,-4.0277,-4.0053,-3.9952,-3.9885,-3.9885,-3.9594,-3.9454,-4.0153,-4.0153,-3.9927,-3.9594,-3.9463,-3.9322,-3.898,-3.886,-3.8777,-3.8738,-3.8711,-3.8711,-3.8655,-3.8655,-3.8528,-3.8286,-3.7605,-3.6859,-3.6182,-3.5449,-3.4839,-3.4448,-3.4414,-3.4414,-3.4414,-3.4414,-3.4414,-3.4414,-3.4414,-3.3673,-3.211,-3.2015,-3.122,-2.965,-2.9585,-2.9507,-2.9507,-2.9507,-2.9507,-4.5537,0.0,0.0,-4.5397,0.0,0.0,0.0,0.0,0.0,0.0,0.0,0.0,0.0,0.0,0.0,0.0,0.0,0.0,0.0,0.0,0.0,0.0,0.0,0.0,0.0,0.0,0.0,0.0,0.0,0.0,0.0,0.0,0.0,0.0,0.0,0.0,-4.0184,-4.0258,-4.0283,0.0,-4.0703,-4.0926,-4.0972,-4.1852,-4.2246,-4.2246,-4.2246,-4.2246,-4.2246,-4.2205,-4.2166,-4.2166,-4.2127,-4.2124,-4.2086,-4.1835,-4.1516,-4.119,-4.1001,-4.0631,-4.0234,-4.0234,-4.0209,-4.0085,-3.9671,-3.9532,-3.9428,-3.8925,-3.8805,-3.8777,-3.8777,-3.8777,-3.8871,-3.9375,-3.9125,-3.8805,-3.8805,-3.8805,-3.8777,-3.8777,-3.8777,-3.8722,-3.8588,-3.856,-3.8532,-3.842,-3.8335,-3.8091,-3.7476,-3.6768,-3.6072,-3.5464,-3.482,-3.4414,-3.4414,-3.438,-3.438,-3.438,-3.4346,-3.4346,-3.4346,-3.438,-3.3687,-3.211,-3.1905,-3.1007,-2.938,-2.9197,-2.9091,-2.9091,-2.9091,-2.9091,-4.5537,-4.5397,0.0,0.0,0.0,0.0,0.0,0.0,0.0,0.0,0.0,0.0,0.0,0.0,0.0,0.0,0.0,0.0,0.0,0.0,0.0,0.0,0.0,0.0,0.0,0.0,0.0,0.0,0.0,0.0,0.0,0.0,0.0,0.0,0.0,-3.9385,-3.9269,-3.9952,-4.0226,0.0,-4.0341,-4.0453,-4.0494,-4.1333,-4.1758,-4.1758,-4.1758,-4.1758,-4.1736,-4.1418,-4.1288,-4.1225,-4.0874,-4.0716,-4.0716,-4.0685,-4.0597,-4.0501,-4.047,-4.0127,-3.9757,-3.9757,-3.9463,-3.9109,-3.899,-3.898,-3.8952,-3.8816,-3.8738,-3.8644,-3.8644,-3.856,-3.8532,-3.8628,-3.8722,-3.8805,-3.8805,-3.8711,-3.8644,-3.8644,-3.856,-3.8476,-3.8464,-3.842,-3.842,-3.8391,-3.796,-3.7565,-3.7417,-3.6368,-3.5546,-3.5432,-3.482,-3.4414,-3.4414,-3.4264,-3.4162,-3.4162,-3.4088,-3.402,-3.402,-3.4244,-3.3618,-3.1905,-3.1833,-3.0945,-2.917,-2.9131,-2.9091,-2.9091,-2.9091,-2.9091,-4.5476,0.0,0.0,0.0,0.0,0.0,0.0,0.0,0.0,0.0,0.0,0.0,0.0,0.0,0.0,0.0,0.0,0.0,0.0,0.0,0.0,0.0,0.0,0.0,0.0,0.0,0.0,0.0,0.0,0.0,0.0,0.0,0.0,0.0,-3.875,-3.8843,-3.8711,-3.9146,-3.9332,-3.9259,-3.9542,-3.9766,-3.9994,-4.0902,-4.1323,-4.1323,-4.1323,-4.1323,-4.1283,-4.0838,-4.0655,-4.0655,-4.0404,-4.0307,-4.0283,-4.0201,-4.0027,-3.9851,-3.9715,-3.9385,-3.9034,-3.9034,-3.8832,-3.86,-3.86,-3.86,-3.86,-3.86,-3.856,-3.8504,-3.8504,-3.8448,-3.8391,-3.8391,-3.8504,-3.86,-3.86,-3.8544,-3.8504,-3.8504,-3.8464,-3.8391,-3.8391,-3.8119,-3.7931,-3.7931,-3.7342,-3.6814,-3.6492,-3.577,-3.5124,-3.4824,-3.4399,-3.4157,-3.4157,-3.4074,-3.4005,-3.4005,-3.3951,-3.3896,-3.3896,-3.3681,-3.2974,-3.1686,-3.1193,-3.0304,-2.8973,-2.8855,-2.8816,-2.8816,-2.8816,-2.8816,0.0,0.0,0.0,0.0,0.0,0.0,0.0,0.0,0.0,0.0,0.0,0.0,0.0,0.0,0.0,0.0,0.0,0.0,0.0,0.0,0.0,0.0,0.0,0.0,0.0,0.0,0.0,0.0,0.0,0.0,0.0,0.0,-3.8391,-3.8391,-3.8391,-3.8391,-3.8391,-3.8391,-3.8391,-3.8391,-3.8738,-3.9061,-3.9428,-4.0277,-4.0689,-4.0761,-4.0761,-4.0761,-4.0737,-4.0251,-4.0077,-4.006,-3.9985,-3.996,-3.9935,-3.9783,-3.9516,-3.9189,-3.8952,-3.8683,-3.8391,-3.8391,-3.8391,-3.8391,-3.8391,-3.8391,-3.8391,-3.8391,-3.8391,-3.8391,-3.8391,-3.8391,-3.8391,-3.8391,-3.8391,-3.8391,-3.8391,-3.8391,-3.8391,-3.8391,-3.8335,-3.8278,-3.8119,-3.7623,-3.7237,-3.7147,-3.6569,-3.5946,-3.54,-3.5073,-3.4677,-3.4128,-3.3985,-3.3896,-3.3896,-3.3862,-3.3862,-3.3862,-3.3827,-3.3793,-3.3793,-3.2881,-3.2064,-3.1392,-3.0481,-2.9575,-2.8764,-2.8578,-2.851,-2.851,-2.851,-2.851,0.0,0.0,0.0,0.0,0.0,0.0,0.0,0.0,0.0,0.0,0.0,0.0,0.0,0.0,0.0,0.0,0.0,0.0,0.0,0.0,0.0,0.0,0.0,0.0,0.0,0.0,0.0,0.0,0.0,0.0,0.0,-3.842,-3.8391,-3.8391,-3.8391,-3.8391,-3.8391,-3.8391,-3.8391,-3.8391,-3.8448,-3.8504,-3.8572,-3.9034,-3.947,-3.9774,-3.9774,-3.9774,-3.9749,-3.9322,-3.9152,-3.9125,-3.8805,-3.8667,-3.8639,-3.8611,-3.8572,-3.8516,-3.8504,-3.8448,-3.8391,-3.8391,-3.8391,-3.8391,-3.8391,-3.8391,-3.8391,-3.8391,-3.8391,-3.8391,-3.8391,-3.8391,-3.8391,-3.8391,-3.8391,-3.8391,-3.8391,-3.8391,-3.8391,-3.8391,-3.8177,-3.7725,-3.6965,-3.6768,-3.6538,-3.6073,-3.5484,-3.5073,-3.4975,-3.4452,-3.402,-3.3931,-3.3917,-3.3896,-3.3896,-3.3744,-3.364,-3.364,-3.3466,-3.3396,-3.3396,-3.1955,-3.1082,-3.097,-3.0329,-2.951,-2.855,-2.851,-2.851,-2.851,-2.851,-2.851,-4.5397,0.0,0.0,0.0,0.0,0.0,0.0,0.0,0.0,0.0,0.0,0.0,0.0,0.0,0.0,0.0,0.0,0.0,0.0,0.0,0.0,0.0,0.0,0.0,0.0,0.0,0.0,0.0,0.0,0.0,-3.8103,-3.8307,-3.8391,-3.8391,-3.8391,-3.8391,-3.8391,-3.8391,-3.8391,-3.8391,-3.8391,-3.8391,-3.8408,-3.8572,-3.8887,-3.9259,-3.9259,-3.9259,-3.9232,-3.8832,-3.8655,-3.8655,-3.8476,-3.8391,-3.8391,-3.8391,-3.8391,-3.8391,-3.8391,-3.8391,-3.8391,-3.8391,-3.8391,-3.8391,-3.8391,-3.8391,-3.8363,-3.8177,-3.8103,-3.8091,-3.7902,-3.7844,-3.7844,-3.7844,-3.7844,-3.7844,-3.7844,-3.7988,-3.8075,-3.7873,-3.7474,-3.7055,-3.6676,-3.6056,-3.5548,-3.5322,-3.4743,-3.4332,-3.4332,-3.3971,-3.3709,-3.3709,-3.364,-3.357,-3.357,-3.3466,-3.3431,-3.3431,-3.3361,-3.329,-3.329,-3.1759,-3.0895,-3.0895,-2.973,-2.8961,-2.851,-2.851,-2.851,-2.851,-2.851,-2.8354,0.0,0.0,0.0,0.0,0.0,0.0,0.0,0.0,0.0,0.0,0.0,0.0,0.0,0.0,0.0,0.0,0.0,0.0,0.0,0.0,0.0,0.0,0.0,0.0,0.0,0.0,0.0,0.0,0.0,0.0,-3.777,-3.8017,-3.8177,-3.8278,-3.8262,-3.8307,-3.8391,-3.8391,-3.8391,-3.8391,-3.8391,-3.8391,-3.8391,-3.8391,-3.856,-3.8849,-3.8849,-3.8849,-3.8805,-3.8532,-3.8391,-3.8391,-3.8391,-3.8391,-3.8391,-3.8391,-3.8391,-3.8391,-3.8391,-3.8391,-3.8391,-3.8391,-3.8391,-3.8363,-3.8307,-3.8262,-3.8205,-3.7857,-3.777,-3.7711,-3.7476,-3.7417,-3.7387,-3.7237,-3.7207,-3.7207,-3.7207,-3.7385,-3.7445,-3.6966,-3.6569,-3.6213,-3.601,-3.5272,-3.4658,-3.4524,-3.4059,-3.3744,-3.3744,-3.3605,-3.3536,-3.3536,-3.3396,-3.329,-3.329,-3.329,-3.329,-3.329,-3.329,-3.3206,-3.3016,-3.1613,-3.0745,-3.0506,-2.9106,-2.8351,-2.8431,-2.8431,-2.8319,-2.8148,-2.8148,-2.7861,0.0,0.0,0.0,0.0,0.0,0.0,0.0,0.0,0.0,0.0,0.0,0.0,0.0,0.0,0.0,0.0,0.0,0.0,0.0,0.0,0.0,0.0,0.0,0.0,0.0,0.0,0.0,0.0,0.0,0.0,-3.7447,-3.7447,-3.7594,-3.7915,-3.7915,-3.8075,-3.8391,-3.8391,-3.8391,-3.8391,-3.8391,-3.8391,-3.8391,-3.8391,-3.8391,-3.842,-3.842,-3.842,-3.842,-3.8408,-3.8391,-3.8391,-3.8391,-3.8391,-3.8391,-3.8391,-3.8391,-3.8391,-3.8391,-3.8391,-3.8391,-3.8391,-3.8391,-3.8335,-3.8001,-3.7915,-3.7857,-3.7535,-3.7447,-3.7417,-3.7401,-3.7417,-3.7282,-3.6768,-3.6646,-3.6646,-3.6646,-3.6676,-3.643,-3.5642,-3.5497,-3.519,-3.4361,-3.4172,-3.3948,-3.3452,-3.3347,-3.3326,-3.3326,-3.3326,-3.3326,-3.3326,-3.3326,-3.329,-3.329,-3.329,-3.329,-3.329,-3.329,-3.298,-3.2196,-3.1156,-3.0253,-2.9485,-2.8447,-2.8042,-2.8219,-2.8219,-2.7878,-2.7184,-2.7184,-2.6874,0.0,0.0,0.0,0.0,0.0,0.0,0.0,0.0,0.0,0.0,0.0,0.0,0.0,0.0,0.0,0.0,0.0,0.0,0.0,0.0,0.0,0.0,0.0,0.0,0.0,0.0,0.0,0.0,0.0,0.0,-3.7135,-3.7314,-3.7476,-3.7594,-3.7594,-3.7623,-3.7756,-3.796,-3.8075,-3.8075,-3.7873,-3.796,-3.8408,-3.796,-3.7873,-3.8075,-3.7844,-3.8004,-3.8391,-3.8391,-3.8391,-3.8391,-3.8391,-3.8391,-3.8391,-3.8391,-3.8262,-3.8075,-3.8075,-3.7931,-3.7756,-3.7756,-3.7756,-3.7756,-3.7623,-3.7594,-3.7447,-3.6815,-3.6631,-3.6492,-3.5929,-3.5802,-3.577,-3.5563,-3.5499,-3.5402,-3.5062,-3.5272,-3.5402,-3.5139,-3.481,-3.4476,-3.4138,-3.3825,-3.3507,-3.3312,-3.329,-3.329,-3.329,-3.329,-3.329,-3.329,-3.329,-3.329,-3.329,-3.3051,-3.2895,-3.2895,-3.2318,-3.1819,-3.1549,-3.0329,-2.9498,-2.9225,-2.8339,-2.7921,-2.8002,-2.7648,-2.7376,-2.7097,-2.6729,-2.6306,-4.5044,0.0,0.0,0.0,0.0,0.0,0.0,0.0,0.0,0.0,0.0,0.0,0.0,0.0,0.0,0.0,0.0,0.0,0.0,0.0,0.0,0.0,0.0,0.0,0.0,0.0,0.0,0.0,0.0,0.0,-3.6847,-3.6998,-3.7164,-3.7254,-3.7358,-3.7417,-3.7417,-3.7623,-3.7725,-3.774,-3.7506,-3.7623,-3.8062,-3.7594,-3.7535,-3.774,-3.7506,-3.7727,-3.8234,-3.8119,-3.8119,-3.8205,-3.8119,-3.8062,-3.8062,-3.8062,-3.7931,-3.7725,-3.7725,-3.7594,-3.7417,-3.7417,-3.7282,-3.7117,-3.7012,-3.686,-3.66,-3.5959,-3.5769,-3.564,-3.5041,-3.4776,-3.4643,-3.4643,-3.4476,-3.4269,-3.3894,-3.4254,-3.4591,-3.439,-3.4099,-3.3825,-3.3825,-3.3542,-3.329,-3.329,-3.329,-3.3241,-3.3122,-3.3086,-3.3051,-3.2909,-3.2909,-3.2909,-3.2909,-3.2475,-3.2209,-3.2209,-3.1365,-3.0769,-3.0506,-2.9512,-2.8834,-2.8569,-2.7978,-2.769,-2.7638,-2.7221,-2.687,-2.6617,-2.6092,-2.5428,0.0,0.0,0.0,0.0,0.0,0.0,0.0,0.0,0.0,0.0,0.0,0.0,0.0,0.0,0.0,0.0,0.0,0.0,0.0,0.0,0.0,0.0,0.0,0.0,0.0,0.0,0.0,0.0,0.0,-3.6492,-3.6492,-3.6492,-3.6647,-3.6969,-3.7254,-3.7387,-3.7387,-3.7387,-3.7387,-3.7387,-3.7387,-3.7387,-3.7417,-3.7387,-3.7387,-3.7387,-3.7387,-3.7549,-3.7857,-3.7535,-3.7594,-3.7857,-3.7535,-3.7417,-3.7417,-3.7417,-3.7387,-3.7387,-3.7387,-3.7358,-3.7358,-3.7328,-3.6981,-3.6492,-3.6243,-3.58,-3.5302,-3.4975,-3.489,-3.4876,-3.4843,-3.4476,-3.4085,-3.4085,-3.3667,-3.329,-3.329,-3.3701,-3.3914,-3.3417,-3.329,-3.329,-3.3276,-3.3276,-3.329,-3.329,-3.3241,-3.3122,-3.2739,-3.2668,-3.2525,-3.2128,-3.2092,-3.2092,-3.2055,-3.1539,-3.1167,-3.118,-3.0568,-2.9909,-2.9121,-2.8809,-2.8307,-2.751,-2.7301,-2.719,-2.719,-2.6903,-2.6394,-2.5704,-2.5153,-2.419,-4.4311,0.0,0.0,0.0,0.0,0.0,0.0,0.0,0.0,0.0,0.0,0.0,0.0,0.0,0.0,0.0,0.0,0.0,0.0,0.0,0.0,0.0,0.0,0.0,0.0,0.0,0.0,0.0,-3.6492,-3.6492,-3.6492,-3.6492,-3.6554,-3.6631,-3.6953,-3.6984,-3.6754,-3.6984,-3.7105,-3.7105,-3.6846,-3.6983,-3.7387,-3.6952,-3.6877,-3.7105,-3.6846,-3.6938,-3.7255,-3.7373,-3.7431,-3.7535,-3.7447,-3.7417,-3.7417,-3.7417,-3.7284,-3.7044,-3.6677,-3.6368,-3.6117,-3.5706,-3.5482,-3.5352,-3.527,-3.5139,-3.4942,-3.4442,-3.4308,-3.4221,-3.3839,-3.3646,-3.3507,-3.3507,-3.3417,-3.329,-3.329,-3.3417,-3.3486,-3.3312,-3.329,-3.3206,-3.2931,-3.286,-3.2789,-3.2467,-3.2431,-3.2395,-3.2273,-3.2273,-3.2237,-3.2092,-3.2092,-3.1932,-3.1489,-3.1044,-3.0594,-3.0139,-2.9277,-2.8661,-2.8447,-2.7914,-2.7522,-2.7301,-2.7231,-2.719,-2.719,-2.6398,-2.5892,-2.5693,-2.4809,-2.3594,0.0,0.0,0.0,0.0,0.0,0.0,0.0,-3.794,0.0,0.0,0.0,0.0,0.0,0.0,0.0,0.0,0.0,0.0,0.0,0.0,0.0,0.0,0.0,0.0,0.0,0.0,0.0,0.0,-3.6492,-3.6492,-3.6492,-3.6492,-3.6492,-3.6492,-3.6677,-3.6693,-3.6492,-3.6677,-3.6785,-3.6785,-3.6585,-3.6693,-3.7013,-3.6662,-3.6616,-3.6785,-3.6585,-3.6492,-3.6476,-3.6631,-3.6906,-3.7194,-3.683,-3.6708,-3.6677,-3.643,-3.6274,-3.607,-3.5769,-3.5544,-3.5317,-3.5023,-3.4743,-3.4576,-3.4576,-3.4423,-3.4167,-3.3859,-3.377,-3.3701,-3.3382,-3.329,-3.329,-3.329,-3.3171,-3.3051,-3.3051,-3.2909,-3.2838,-3.3016,-3.3051,-3.2931,-3.2525,-3.2453,-3.2381,-3.2128,-3.2092,-3.2055,-3.1909,-3.1873,-3.1726,-3.127,-3.1233,-3.0996,-3.0392,-2.9871,-2.9433,-2.9094,-2.8247,-2.7777,-2.7777,-2.7423,-2.719,-2.719,-2.719,-2.7087,-2.6909,-2.6106,-2.5497,-2.5061,-2.4464,-2.3361,0.0,0.0,0.0,0.0,0.0,0.0,-3.8423,-3.803,-3.7653,0.0,0.0,0.0,0.0,0.0,0.0,0.0,0.0,0.0,0.0,0.0,0.0,0.0,0.0,0.0,0.0,0.0,-3.6492,-3.6492,-3.6492,-3.6492,-3.6492,-3.6492,-3.6492,-3.6492,-3.6492,-3.6492,-3.6492,-3.6429,-3.6429,-3.6492,-3.6429,-3.6445,-3.6492,-3.6429,-3.6429,-3.6429,-3.6352,-3.6053,-3.5623,-3.5623,-3.6085,-3.6677,-3.5911,-3.5623,-3.5544,-3.5088,-3.4909,-3.4876,-3.481,-3.481,-3.481,-3.4758,-3.4409,-3.4016,-3.4016,-3.3667,-3.329,-3.329,-3.329,-3.329,-3.329,-3.329,-3.3241,-3.3241,-3.2945,-3.2632,-3.2632,-3.2345,-3.22,-3.2525,-3.2596,-3.2525,-3.2092,-3.2019,-3.2019,-3.1982,-3.1982,-3.1873,-3.1556,-3.1482,-3.106,-3.0114,-2.9922,-2.9639,-2.9042,-2.8514,-2.8179,-2.8099,-2.7545,-2.719,-2.719,-2.719,-2.719,-2.719,-2.719,-2.6978,-2.6501,-2.6014,-2.5279,-2.4281,-2.4196,-2.3294,0.0,0.0,0.0,0.0,0.0,0.0,-3.8601,-3.8141,-3.7711,0.0,0.0,0.0,0.0,0.0,0.0,0.0,0.0,0.0,0.0,0.0,0.0,0.0,0.0,0.0,0.0,0.0,-3.6492,-3.6492,-3.6492,-3.6492,-3.6492,-3.6492,-3.6492,-3.6492,-3.6492,-3.6492,-3.6492,-3.6085,-3.6085,-3.6492,-3.6053,-3.6085,-3.6492,-3.6053,-3.5847,-3.5816,-3.5382,-3.5154,-3.5055,-3.5055,-3.5154,-3.5285,-3.5121,-3.5055,-3.5041,-3.4957,-3.4909,-3.4843,-3.4423,-3.424,-3.4172,-3.3736,-3.3542,-3.3437,-3.3437,-3.3382,-3.329,-3.329,-3.329,-3.329,-3.329,-3.3051,-3.281,-3.281,-3.2525,-3.2237,-3.2237,-3.2164,-3.2019,-3.185,-3.2019,-3.2092,-3.1776,-3.1703,-3.1593,-3.1272,-3.1198,-3.1198,-3.1123,-3.0659,-3.0228,-3.0037,-2.9561,-2.9015,-2.8447,-2.8247,-2.7978,-2.7423,-2.7272,-2.719,-2.719,-2.719,-2.719,-2.719,-2.719,-2.6978,-2.6501,-2.6409,-2.5784,-2.4737,-2.4089,-2.3075,0.0,0.0,0.0,-3.9418,0.0,0.0,0.0,-3.7927,-3.7522,0.0,0.0,0.0,0.0,0.0,0.0,0.0,0.0,0.0,0.0,0.0,0.0,0.0,0.0,0.0,0.0,0.0,-3.6492,-3.6492,-3.6258,-3.6085,-3.6085,-3.5847,-3.5688,-3.5688,-3.5688,-3.5688,-3.5688,-3.5447,-3.5447,-3.5688,-3.5415,-3.5447,-3.5688,-3.5415,-3.5317,-3.5285,-3.5023,-3.4743,-3.4509,-3.4509,-3.4356,-3.4133,-3.439,-3.4509,-3.4476,-3.4187,-3.4099,-3.4065,-3.3791,-3.3701,-3.3667,-3.3382,-3.329,-3.329,-3.329,-3.329,-3.329,-3.329,-3.3171,-3.3016,-3.3016,-3.2704,-3.2417,-3.2417,-3.2128,-3.185,-3.185,-3.1703,-3.1482,-3.1347,-3.1172,-3.1097,-3.1272,-3.131,-3.1235,-3.1024,-3.071,-3.0508,-3.0508,-2.996,-2.9445,-2.9145,-2.8831,-2.8395,-2.7736,-2.7708,-2.7545,-2.7231,-2.719,-2.719,-2.719,-2.719,-2.719,-2.719,-2.719,-2.7064,-2.6852,-2.6373,-2.5632,-2.458,-2.4183,-2.3186,0.0,0.0,0.0,0.0,0.0,-3.8722,0.0,0.0,0.0,0.0,0.0,0.0,0.0,0.0,0.0,0.0,0.0,0.0,0.0,0.0,0.0,0.0,0.0,0.0,0.0,0.0,-3.6429,-3.6352,-3.5911,-3.5608,-3.5559,-3.5154,-3.4909,-3.4909,-3.4909,-3.4909,-3.4909,-3.4791,-3.481,-3.4909,-3.4791,-3.481,-3.4909,-3.4776,-3.4743,-3.4743,-3.4658,-3.4356,-3.3948,-3.3948,-3.3701,-3.3347,-3.3791,-3.3948,-3.3894,-3.3437,-3.329,-3.329,-3.329,-3.3241,-3.3171,-3.3171,-3.3136,-3.3065,-3.3065,-3.3065,-3.3065,-3.3065,-3.2824,-3.2596,-3.2596,-3.2309,-3.1982,-3.1982,-3.174,-3.1445,-3.1334,-3.1035,-3.0785,-3.0672,-3.019,-3.0037,-3.071,-3.071,-3.0621,-3.0621,-3.0152,-2.9832,-2.9832,-2.9289,-2.874,-2.8247,-2.8099,-2.7777,-2.7272,-2.719,-2.719,-2.719,-2.719,-2.719,-2.719,-2.719,-2.7149,-2.7056,-2.7056,-2.6974,-2.6745,-2.5997,-2.5166,-2.436,-2.4031,-2.3052,0.0,0.0,0.0,0.0,-3.8476,0.0,0.0,0.0,0.0,0.0,0.0,0.0,0.0,0.0,0.0,0.0,0.0,0.0,0.0,0.0,0.0,0.0,0.0,0.0,0.0,0.0,0.0,-3.5816,-3.5576,-3.5302,-3.5023,-3.4942,-3.4909,-3.4909,-3.4909,-3.4909,-3.4909,-3.4442,-3.4442,-3.4876,-3.4409,-3.4442,-3.4876,-3.4409,-3.4172,-3.4172,-3.3681,-3.3452,-3.3382,-3.3382,-3.3347,-3.3326,-3.3347,-3.3382,-3.3382,-3.3312,-3.329,-3.329,-3.329,-3.3086,-3.2775,-3.2775,-3.2525,-3.225,-3.225,-3.225,-3.225,-3.225,-3.22,-3.2164,-3.2164,-3.1909,-3.1666,-3.1666,-3.1347,-3.0898,-3.0305,-3.0152,-2.996,-2.9406,-2.9238,-2.9406,-2.9999,-2.9678,-2.9316,-2.9316,-2.9238,-2.9199,-2.9199,-2.8673,-2.8287,-2.8219,-2.7667,-2.726,-2.7231,-2.719,-2.719,-2.719,-2.719,-2.719,-2.719,-2.719,-2.7003,-2.6569,-2.6569,-2.6091,-2.5094,-2.4957,-2.4829,-2.4626,-2.3088,-2.1874,0.0,0.0,0.0,0.0,0.0,0.0,0.0,0.0,-3.7915,0.0,0.0,0.0,0.0,0.0,0.0,0.0,0.0,0.0,0.0,0.0,0.0,0.0,0.0,0.0,0.0,0.0,0.0,0.0,0.0,-3.4327,-3.4442,-3.4133,-3.3962,-3.3962,-3.3962,-3.3962,-3.3962,-3.3736,-3.3736,-3.3977,-3.3736,-3.3736,-3.3962,-3.3736,-3.3632,-3.3597,-3.3382,-3.329,-3.329,-3.329,-3.3157,-3.298,-3.3206,-3.329,-3.329,-3.329,-3.3157,-3.2931,-3.2931,-3.2682,-3.2345,-3.2345,-3.2237,-3.2092,-3.2092,-3.2092,-3.2092,-3.2092,-3.1946,-3.1726,-3.1331,-3.0972,-3.0558,-3.0241,-3.0024,-2.9832,-2.9523,-2.9484,-2.9394,-2.916,-2.8819,-2.8673,-2.891,-2.9055,-2.9081,-2.9081,-2.8819,-2.8593,-2.8593,-2.8007,-2.7626,-2.7626,-2.7394,-2.719,-2.719,-2.719,-2.719,-2.719,-2.6921,-2.6787,-2.6787,-2.6561,-2.6354,-2.6177,-2.6135,-2.5726,-2.4787,-2.4233,-2.367,-2.3104,-2.2563,-2.1826,-3.8914,0.0,0.0,0.0,0.0,0.0,0.0,0.0,0.0,0.0,0.0,0.0,0.0,0.0,0.0,0.0,0.0,0.0,0.0,0.0,0.0,0.0,0.0,0.0,0.0,0.0,0.0,0.0,-3.3679,-3.3416,-3.3693,-3.3353,-3.3206,-3.329,-3.329,-3.329,-3.329,-3.329,-3.329,-3.329,-3.329,-3.329,-3.329,-3.329,-3.329,-3.329,-3.329,-3.329,-3.329,-3.3171,-3.2966,-3.2704,-3.2909,-3.298,-3.298,-3.3086,-3.2931,-3.2668,-3.2561,-3.2273,-3.1946,-3.185,-3.1813,-3.1813,-3.1813,-3.169,-3.1529,-3.1529,-3.1233,-3.0822,-3.0304,-2.9973,-2.9639,-2.9199,-2.9081,-2.9042,-2.8897,-2.8858,-2.8819,-2.8621,-2.8247,-2.7938,-2.7938,-2.8275,-2.8581,-2.8581,-2.8207,-2.7938,-2.7938,-2.7505,-2.719,-2.719,-2.719,-2.7149,-2.7015,-2.7015,-2.6974,-2.685,-2.6509,-2.6332,-2.6332,-2.6063,-2.5853,-2.5728,-2.5506,-2.4999,-2.4147,-2.325,-2.2394,-2.1552,-2.1828,-2.1516,0.0,0.0,0.0,-3.8391,0.0,0.0,0.0,0.0,-3.8363,0.0,0.0,0.0,0.0,0.0,0.0,0.0,0.0,0.0,0.0,0.0,0.0,0.0,0.0,0.0,0.0,0.0,0.0,-3.3003,-3.2818,-3.2739,-3.2725,-3.2739,-3.2895,-3.329,-3.329,-3.329,-3.329,-3.329,-3.329,-3.329,-3.329,-3.329,-3.329,-3.329,-3.329,-3.329,-3.329,-3.329,-3.329,-3.2895,-3.2704,-3.2668,-3.2273,-3.2128,-3.22,-3.2561,-3.2704,-3.2632,-3.2237,-3.1909,-3.1556,-3.1161,-3.1061,-3.1061,-3.1061,-3.0583,-3.0075,-3.0075,-2.9639,-2.916,-2.916,-2.9121,-2.9121,-2.9081,-2.9081,-2.8937,-2.8367,-2.8207,-2.8059,-2.7383,-2.7272,-2.7231,-2.7231,-2.7272,-2.7272,-2.7272,-2.7219,-2.7231,-2.7231,-2.7231,-2.719,-2.719,-2.719,-2.7015,-2.6569,-2.6528,-2.6373,-2.5979,-2.5937,-2.5937,-2.5937,-2.5895,-2.5686,-2.5242,-2.4531,-2.3607,-2.2482,-2.1793,-2.1087,-2.0374,-2.0654,-2.0609,0.0,0.0,-3.8391,-3.8391,0.0,0.0,0.0,0.0,0.0,0.0,0.0,0.0,0.0,0.0,0.0,0.0,0.0,0.0,0.0,0.0,0.0,0.0,0.0,0.0,0.0,0.0,0.0,-3.2367,-3.2345,-3.2309,0.0,-3.2309,-3.2489,-3.2895,-3.2646,-3.2646,-3.2895,-3.2895,-3.2895,-3.2895,-3.3171,-3.3171,-3.2895,-3.2895,-3.2753,-3.2503,-3.2503,-3.2503,-3.2503,-3.2345,-3.2164,-3.1982,-3.2055,-3.1946,-3.1813,-3.2164,-3.2164,-3.1909,-3.1519,-3.131,-3.1123,-3.0545,-3.0355,-3.0279,-2.9871,-2.96,-2.9394,-2.9394,-2.925,-2.9003,-2.8593,-2.8514,-2.8395,-2.7966,-2.7846,-2.7777,-2.7586,-2.7545,-2.7464,-2.7219,-2.719,-2.719,-2.719,-2.719,-2.719,-2.719,-2.719,-2.7097,-2.6787,-2.6745,-2.6633,-2.6354,-2.6365,-2.6271,-2.6135,-2.6093,-2.6052,-2.5895,-2.5591,-2.5232,-2.4754,-2.4466,-2.3993,-2.3357,-2.3096,-2.257,-2.1748,-2.1526,-2.1006,-2.0292,-2.0382,-2.0382,-3.842,-3.8391,0.0,-3.8391,-3.8205,0.0,-3.8033,0.0,0.0,0.0,0.0,0.0,0.0,0.0,0.0,0.0,0.0,0.0,0.0,-3.329,0.0,0.0,0.0,0.0,0.0,0.0,-3.1982,-3.2092,-3.185,-3.1813,0.0,0.0,-3.2092,-3.2489,-3.2237,-3.2237,-3.2489,-3.2489,-3.2489,-3.2489,-3.2753,-3.2753,-3.2489,-3.2489,-3.2345,-3.2092,-3.2092,-3.2092,-3.2092,-3.1982,-3.1776,-3.1593,-3.1666,-3.1431,-3.1097,-3.169,-3.1542,-3.0985,-3.0735,-3.0508,-3.0266,-2.9832,-2.9678,-2.96,-2.9199,-2.8964,-2.8779,-2.8779,-2.8621,-2.8315,-2.7938,-2.7857,-2.7748,-2.7313,-2.719,-2.719,-2.719,-2.719,-2.719,-2.719,-2.719,-2.7149,-2.6974,-2.6962,-2.6962,-2.6962,-2.6962,-2.6798,-2.6332,-2.629,-2.6177,-2.5937,-2.5895,-2.5728,-2.5285,-2.5115,-2.4946,-2.4669,-2.436,-2.3973,-2.3521,-2.3246,-2.2906,-2.2394,-2.2183,-2.1828,-2.1401,-2.1132,-2.0781,-2.0292,-2.0292,-2.0292]},{"header":{"parameterUnit":"m.s-1","parameterCategory":1,"la1":30.6,"la2":29.2853,"lo1":-89.7004,"lo2":-87.6739,"dy":0.0162,"dx":0.0183,"nx":112,"ny":82,"refTime":"2023-08-21T06:00:00:Z","depth":0,"parameterNumber":3,"parameterNumberName":"V-component_of_WINDS"},"data":[0.0,0.0,0.0,0.0,0.0,0.0,0.0,0.0,0.0,0.0,0.0,0.0,0.0,0.0,0.0,0.0,0.0,0.0,0.0,0.0,0.0,0.0,0.0,0.0,0.0,0.0,0.0,0.0,0.0,0.0,0.0,0.0,0.0,0.0,0.0,0.0,0.0,0.0,0.0,0.0,0.0,0.0,0.0,0.0,0.0,0.0,0.0,0.0,0.0,0.0,0.0,0.0,0.0,0.0,0.0,0.0,0.0,0.0,0.0,0.0,0.0,0.0,0.0,0.0,0.0,0.0,0.0,0.0,0.0,0.0,0.0,0.0,0.0,0.0,0.0,0.0,0.0,0.0,0.0,0.0,0.0,0.0,0.0,0.0,0.0,0.0,0.0,0.0,0.0,0.0,0.0,0.2035,0.0802,0.0,0.0,-0.0617,-0.0617,0.0247,0.0,0.0,0.0,0.0,0.0,0.0,0.0,0.0,0.0,0.0,0.0,0.0,0.0,0.0,0.0,0.0,0.0,0.0,0.0,0.0,0.0,0.0,0.0,0.0,0.0,0.0,0.0,0.0,0.0,0.0,0.0,0.0,0.0,0.0,0.0,0.0,0.0,0.0,0.0,0.0,0.0,0.0,0.0,0.0,0.0,0.0,0.0,0.0,0.0,0.0,0.0,0.0,0.0,0.0,0.0,0.0,0.0,0.0,0.0,0.0,0.0,0.0,0.0,0.0,0.0,0.0,0.0,0.0,0.0,0.0,0.0,0.0,0.0,0.0,0.0,0.0,0.0,0.0,0.0,0.0,0.0,0.0,0.0,0.0,0.0,0.0,0.0,0.0,0.0,0.0,0.0,0.0,0.0,0.0,0.0,0.0,0.0,0.0,0.0,0.0,0.0,0.0,0.0,0.0,0.3201,0.2096,0.0802,0.0,0.0,-0.0617,-0.0247,0.1603,0.0,0.0,0.0,0.0,0.0,0.0,0.0,0.0,0.0,0.0,0.0,0.0,0.0,0.0,0.0,0.0,0.0,0.0,0.0,0.0,0.0,0.0,0.0,0.0,0.0,0.0,0.0,0.0,0.0,0.0,0.0,0.0,0.0,0.0,0.0,0.0,0.0,0.0,0.0,0.0,0.0,0.0,0.0,0.0,0.0,0.0,0.0,0.0,0.0,0.0,0.0,0.0,0.0,0.0,0.0,0.0,0.0,0.0,0.0,0.0,0.0,0.0,0.0,0.0,0.0,0.0,0.0,0.0,0.0,0.0,0.0,0.0,0.0,0.0,0.0,0.0,0.0,0.0,0.0,0.0,0.0,0.0,0.0,0.0,0.0,0.0,0.0,0.0,0.0,0.0,0.0,0.0,0.0,0.0,0.0,0.0,0.0,0.0,0.0,0.0,0.0,0.0,0.0,0.5352,0.4492,0.314,0.1849,0.1357,0.2033,0.1047,0.1109,0.2895,0.326,0.0,0.0,0.0,0.0,0.0,0.0,0.0,0.0,0.0,0.0,0.0,0.0,0.0,0.0,0.0,0.0,0.0,0.0,0.0,0.0,0.0,0.0,0.0,0.0,0.0,0.0,0.0,0.0,0.0,0.0,0.0,0.0,0.0,0.0,0.0,0.0,0.0,0.0,0.0,0.0,0.0,0.0,0.0,0.0,0.0,0.0,0.0,0.0,0.0,0.0,0.0,0.0,0.0,0.0,0.0,0.0,0.0,0.0,0.0,0.0,0.0,0.0,0.0,0.0,0.0,0.0,0.0,0.0,0.0,0.0,0.0,0.0,0.0,0.0,0.0,0.0,0.0,0.0,0.0,0.0,0.0,0.0,0.0,0.0,0.0,0.0,0.0,0.0,0.0,0.0,0.0,0.0,0.0,0.0,0.0,0.0,0.0,0.0,0.0,0.0,0.0,0.0,0.609,0.5536,0.449,0.3201,0.2833,0.3815,0.2706,0.2645,0.4244,0.5042,0.0,0.0,0.0,0.0,0.0,0.0,0.0,0.0,0.0,0.0,0.0,0.0,0.0,0.0,0.0,0.0,0.0,0.0,0.0,0.0,0.0,0.0,0.0,0.0,0.0,0.0,0.0,0.0,0.0,0.0,0.0,0.0,0.0,0.0,0.0,0.0,0.0,0.0,0.0,0.0,0.0,0.0,0.0,0.0,0.0,0.0,0.0,0.0,0.0,0.0,0.0,0.0,0.0,0.0,0.0,0.0,0.0,0.0,0.0,0.0,0.0,0.0,0.0,0.0,0.0,0.0,0.0,0.0,0.0,0.0,0.0,0.0,0.0,0.0,0.0,0.0,0.0,0.0,0.0,0.0,0.0,0.0,0.0,0.0,0.0,0.0,0.0,0.0,0.0,0.0,0.0,0.0,0.0,0.0,0.0,0.0,0.0,0.0,0.0,0.0,0.0,0.0,0.6644,0.5845,0.5784,0.4551,0.3815,0.3875,0.3505,0.3997,0.5659,0.5535,0.0,0.0,0.0,0.0,0.0,0.0,0.0,0.0,0.0,0.0,0.0,0.0,0.0,0.0,0.0,0.0,0.0,0.0,0.0,0.0,0.0,0.0,0.0,0.0,0.0,0.0,0.0,0.0,0.0,0.0,0.0,0.0,0.0,0.0,0.0,0.0,0.0,0.0,0.0,0.0,0.0,0.0,0.0,0.0,0.0,0.0,0.0,0.0,0.0,0.0,0.0,0.0,0.0,0.0,0.0,0.0,0.0,0.0,0.0,0.0,0.0,0.0,0.0,0.0,0.0,0.0,0.0,0.0,0.0,0.0,0.0,0.0,0.0,0.0,0.0,0.0,0.0,0.0,0.0,0.0,0.0,0.0,0.0,0.0,0.0,0.0,0.0,0.0,0.0,0.0,0.0,0.0,0.0,0.0,0.0,0.0,0.0,0.0,0.0,0.0,0.0,0.0,0.7441,0.7136,0.0,0.5965,0.5473,0.6333,0.5535,0.5596,0.7072,0.0,0.0,0.0,0.0,0.0,0.0,0.0,0.0,0.0,0.0,0.0,0.0,0.0,0.0,0.0,0.0,0.0,0.0,0.0,0.0,0.0,0.0,0.0,0.0,0.0,0.0,0.0,0.0,0.0,0.0,0.0,0.0,0.0,0.0,0.0,0.0,0.0,0.0,0.0,0.0,0.0,0.0,0.0,0.0,0.0,0.0,0.0,0.0,0.0,0.0,0.0,0.0,0.0,0.0,0.0,0.0,0.0,0.0,0.0,0.0,0.0,0.0,0.0,0.0,0.0,0.0,0.0,0.0,0.0,0.0,0.0,0.0,0.0,0.0,0.0,0.0,0.0,0.0,0.0,0.0,0.0,0.0,0.0,0.0,0.0,0.0,0.0,0.0,0.0,0.0,0.0,0.0,0.0,0.0,0.0,0.0,0.0,0.0,0.0,0.0,0.0,0.0,0.775,0.7761,0.7774,0.0,0.7023,0.6853,0.7808,0.7072,0.695,0.7872,0.0,0.0,0.0,0.0,0.0,0.0,0.0,0.0,0.0,0.0,0.0,0.0,0.0,0.0,0.0,0.0,0.0,0.0,0.0,0.0,0.0,0.0,0.0,0.0,0.0,0.0,0.0,0.0,0.0,0.0,0.0,0.0,0.0,0.0,0.0,0.0,0.0,0.0,0.0,0.0,0.0,0.0,0.0,0.0,0.0,0.0,0.0,0.0,0.0,0.0,0.0,0.0,0.0,0.0,0.0,0.0,0.0,0.0,0.0,0.0,0.0,0.0,0.0,0.0,0.0,0.0,0.0,0.0,0.0,0.0,0.0,0.0,0.0,0.0,0.0,0.0,0.0,0.0,0.0,0.0,0.0,0.0,0.0,0.0,0.0,0.0,0.0,0.0,0.0,0.0,0.0,0.0,0.0,0.0,0.0,0.0,0.0,0.0,0.0,0.0,0.0,0.0,0.7519,0.7519,0.7565,0.7687,0.7701,0.7744,0.7856,0.7869,0.7869,0.0,0.0,0.0,0.0,0.0,0.0,0.0,0.0,0.0,0.0,0.0,0.0,0.0,0.0,0.0,0.0,0.0,0.0,0.0,0.0,0.0,0.0,0.0,0.0,0.0,0.0,0.0,0.0,0.0,0.0,0.0,0.0,0.0,0.0,0.0,0.0,0.0,0.0,0.0,0.0,0.0,0.0,0.0,0.0,0.0,0.0,0.0,0.0,0.0,0.0,0.0,0.0,0.0,0.0,0.0,0.0,0.0,0.0,0.0,0.0,0.0,0.0,0.0,0.0,0.0,0.0,0.0,0.0,0.0,0.0,0.0,0.0,0.0,0.0,0.0,0.0,0.0,0.0,0.0,0.0,0.0,0.0,0.0,0.0,0.0,0.0,0.0,0.0,0.0,0.0,0.0,0.0,0.0,0.0,0.0,0.0,0.0,0.0,0.0,0.0,0.0,0.0,0.0,0.7508,0.7519,0.7532,0.757,0.7573,0.7587,0.7619,0.7701,0.775,0.775,0.0,0.0,0.0,0.0,0.0,0.0,0.0,0.0,0.0,0.0,0.0,0.0,0.0,0.0,0.0,0.0,0.0,0.0,0.0,0.0,0.0,0.0,0.0,0.0,0.0,0.0,0.0,0.0,0.0,0.0,0.0,0.0,0.0,0.0,0.0,0.0,0.0,0.0,0.0,0.0,0.0,0.0,0.0,0.0,0.0,0.0,0.0,0.0,0.0,0.0,0.0,0.0,0.0,0.0,0.0,0.0,0.0,0.0,0.0,0.0,0.0,0.0,0.0,0.0,0.0,0.0,0.0,0.0,0.0,0.0,0.0,0.0,0.0,0.0,0.0,0.0,0.0,0.0,0.0,0.0,0.0,0.0,0.0,0.0,0.0,0.0,0.0,0.0,0.0,0.0,0.0,0.0,0.0,0.0,0.0,0.0,0.0,0.0,0.0,0.0,0.0,0.0,0.7878,0.7601,0.7394,0.744,0.7445,0.7464,0.7513,0.7587,0.7627,0.7627,0.0,0.0,0.0,0.0,0.0,0.0,0.0,0.0,0.0,0.0,0.0,0.0,0.0,0.0,0.0,0.0,0.0,0.0,0.0,0.0,0.0,0.0,0.0,0.0,0.0,0.0,0.0,0.0,0.0,0.0,0.0,0.0,0.0,0.0,0.0,0.0,0.0,0.0,0.0,0.0,0.0,0.0,0.0,0.0,0.0,0.0,0.0,0.0,0.0,0.0,0.0,0.0,0.0,0.0,0.0,0.0,0.0,0.0,0.0,0.0,0.0,0.0,0.0,0.0,0.0,0.0,0.0,0.0,0.0,0.0,0.0,0.0,0.0,0.0,0.0,0.0,0.0,0.0,0.0,0.0,0.0,0.0,0.0,0.0,0.0,0.0,0.0,0.0,0.0,0.0,0.0,0.0,0.0,0.0,0.0,0.0,0.0,0.0,0.0,0.0,0.0,0.0,0.8595,0.7928,0.7474,0.7533,0.7545,0.7589,0.7707,0.7669,0.7619,0.7619,0.0,0.0,0.0,0.0,0.0,0.0,0.0,0.0,0.0,0.0,0.0,0.0,0.0,0.0,0.0,0.0,0.0,0.0,0.0,0.0,0.0,0.0,0.0,0.0,0.0,0.0,0.0,0.0,0.0,0.0,0.0,0.0,0.0,0.0,0.0,0.0,0.0,0.0,0.0,0.0,0.0,0.0,0.0,0.0,0.0,0.0,0.0,0.0,0.0,0.0,0.0,0.0,0.0,0.0,0.0,0.0,0.0,0.0,0.0,0.0,-0.5193,0.0,0.0,0.0,0.0,0.0,0.0,0.0,0.0,0.0,0.0,0.0,0.0,0.0,0.0,0.0,0.0,0.0,0.0,0.0,0.0,0.0,0.0,0.0,0.0,0.0,0.0,0.0,0.0,0.0,0.0,0.0,0.0,0.0,0.0,0.0,0.0,0.0,0.0,0.0,0.0,0.0,0.9523,0.9357,0.9261,0.9293,0.9241,0.9255,0.929,0.8788,0.846,0.846,0.0,0.0,0.0,0.0,0.0,0.0,0.0,0.0,0.0,0.0,0.0,0.0,0.0,0.0,0.0,0.0,0.0,0.0,0.0,0.0,0.0,0.0,0.0,0.0,0.0,0.0,0.0,0.0,0.0,0.0,0.0,0.0,0.0,0.0,0.0,0.0,0.0,0.0,0.0,0.0,0.0,0.0,0.0,0.0,0.0,0.0,0.0,0.0,0.0,0.0,0.0,0.0,0.0,0.0,0.0,0.0,0.0,0.0,0.0,0.0,0.0,-0.558,0.0,0.0,0.0,0.0,0.0,0.0,0.0,0.0,0.0,0.0,0.0,0.0,0.0,0.0,0.0,0.0,0.0,0.0,0.0,0.0,0.0,0.0,0.0,0.0,0.0,0.0,0.0,0.0,0.0,0.0,0.0,0.0,0.0,0.0,0.0,0.0,0.0,0.0,0.0,0.0,1.0406,1.0072,0.9798,0.9798,0.9798,0.9798,0.9798,0.9436,0.9206,0.9206,0.9275,0.0,0.0,0.0,0.0,0.0,0.0,0.0,0.0,0.0,0.0,0.0,0.0,0.0,0.0,0.0,0.0,0.0,0.0,0.0,0.0,0.0,0.0,0.0,0.0,0.0,0.0,0.0,0.0,0.0,0.0,0.0,0.0,0.0,0.0,0.0,0.0,0.0,0.0,0.0,0.0,0.0,0.0,0.0,0.0,0.0,0.0,0.0,0.0,0.0,0.0,0.0,0.0,0.0,0.1795,0.129,0.028,-0.0952,-0.2127,-0.336,-0.4598,-0.5313,-0.549,0.0,0.0,0.0,0.0,0.0,0.0,0.0,0.0,0.0,0.0,0.0,0.0,0.0,0.0,0.0,0.0,0.0,0.0,0.0,0.0,0.0,0.0,0.0,0.0,0.0,0.7141,0.7024,0.0,0.0,0.0,0.0,0.0,0.0,0.0,0.0,0.0,0.0,0.0,0.0,1.1345,1.068,1.0237,1.0237,1.0237,1.0237,1.0237,1.0127,1.0021,1.0021,1.0021,1.0027,0.0,0.0,0.0,0.0,0.0,0.0,0.0,0.0,0.0,0.0,0.0,0.0,0.0,0.0,0.0,0.0,0.0,0.0,0.0,0.0,0.0,0.0,0.0,0.0,0.0,0.0,0.0,0.0,0.0,0.0,0.0,0.0,1.1135,1.0984,0.0,0.0,0.0,0.0,0.0,0.0,0.0,0.0,0.0,0.0,0.0,0.0,0.0,0.0,0.3358,0.2297,0.1795,0.1795,0.1795,0.1739,0.1514,0.0336,-0.0896,-0.2127,-0.3309,0.0,-0.5394,-0.5269,0.0,0.0,0.0,0.0,0.0,0.0,0.0,0.0,0.0,0.0,0.0,0.0,0.0,0.0,0.0,0.0,0.0,0.0,0.0,0.0,0.0,0.0,0.7889,0.7889,0.7693,0.7746,0.0,0.8931,0.9203,1.0047,0.0,0.0,0.0,0.0,0.0,0.0,0.0,0.0,1.2219,1.211,1.2055,1.2055,1.2055,1.2055,1.2055,1.1345,1.0907,1.0907,1.0907,1.0582,0.9883,1.0531,0.0,0.0,0.0,0.0,0.0,0.0,0.0,0.0,0.0,0.0,0.0,0.0,0.0,0.0,0.0,0.0,0.0,0.0,0.0,0.0,0.0,0.0,0.0,0.0,0.0,0.0,0.0,0.0,0.0,1.1041,1.1126,1.1252,1.109,1.0707,0.0,0.0,0.0,0.0,0.0,0.0,0.0,0.0,0.0,0.5361,0.486,0.4637,0.4637,0.3413,0.28,0.28,0.213,0.1795,0.1739,0.0561,-0.028,-0.0896,-0.2798,-0.3917,-0.4421,-0.5058,-0.5367,-0.5433,0.0,0.0,0.0,0.0,-0.4822,-0.3966,-0.2285,-0.1283,0.0,0.0,0.0,0.0,0.0,0.0,0.0,0.0,0.0,0.0,0.0,0.0,0.0,0.7988,0.7793,0.8041,0.9558,0.9714,0.985,0.0,1.1221,1.1713,1.1926,0.0,0.0,0.0,0.0,0.0,1.2368,1.2387,1.2387,1.2387,1.2387,1.2387,1.2387,1.2055,1.1837,1.1837,1.1837,1.1673,1.1282,1.1946,1.2332,0.0,0.0,0.0,0.0,0.0,0.0,0.0,0.0,0.0,0.0,0.0,0.0,0.0,0.0,0.0,0.0,0.0,0.0,0.0,0.0,0.0,0.0,0.0,0.0,0.0,0.0,0.0,0.0,1.1114,1.1032,1.0985,1.1011,1.051,0.0,0.0,0.0,0.0,0.0,0.0,0.6195,0.6139,0.6195,0.642,0.6031,0.5875,0.59,0.4389,0.361,0.3627,0.2374,0.1806,0.175,0.0843,0.028,-0.0112,-0.1903,-0.3022,-0.3691,-0.4851,-0.5361,-0.538,-0.5355,-0.5304,-0.5182,-0.5167,-0.4395,-0.3226,-0.2043,-0.0913,0.0152,0.1264,0.0,0.1617,0.1617,0.0,0.0,0.0,0.0,0.4626,0.5732,0.6786,0.7637,0.7939,0.7842,0.8233,1.0194,1.0342,1.0385,0.0,1.1575,1.1702,1.1909,0.0,0.0,0.0,0.0,1.2601,1.3076,1.3155,1.318,1.329,1.3295,1.3295,1.3295,1.3029,1.2925,1.3083,1.2817,1.2713,1.2871,1.331,1.3527,1.3527,0.0,0.0,0.0,0.0,0.0,0.0,0.0,0.0,0.0,0.0,0.0,0.0,0.0,0.0,0.0,0.0,0.0,0.0,0.0,0.0,0.0,0.0,0.0,0.0,0.0,0.0,0.0,0.0,0.0,0.9749,1.0432,0.0,0.0,0.0,0.0,0.8754,0.7695,0.7421,0.8315,0.8033,0.8257,0.9154,0.7765,0.7091,0.7315,0.4863,0.3637,0.3752,0.2429,0.178,0.178,0.1752,0.1065,0.0,-0.0112,-0.1456,-0.3688,-0.4788,-0.5302,-0.5373,-0.5286,-0.5194,-0.5188,-0.5184,-0.4371,-0.3127,-0.208,-0.093,0.0155,0.127,0.1617,0.1617,0.1617,0.1617,0.0,0.0,0.2471,0.3524,0.4624,0.5679,0.6736,0.7739,0.7988,0.8577,1.0685,1.073,1.0837,0.0,1.2288,1.2022,1.2249,0.0,1.195,1.3176,1.331,1.3802,1.5081,1.5273,1.5368,1.5672,1.5701,1.5701,1.5701,1.475,1.4326,1.4852,1.3846,1.3527,1.4116,1.4116,1.4169,1.4169,1.4659,0.0,0.0,0.0,0.0,0.0,0.0,0.0,0.0,0.0,0.0,0.0,0.0,0.0,0.0,0.0,0.0,0.0,0.0,0.0,0.0,0.0,0.0,0.0,0.0,0.0,0.0,0.0,0.0,1.0808,1.0892,0.0,0.9451,0.9797,0.9644,0.8702,0.8257,0.8036,0.8198,0.8085,0.8239,0.8673,0.8897,0.908,0.9286,0.7434,0.6063,0.528,0.3814,0.2643,0.1782,0.1809,0.157,0.1121,0.0336,-0.0504,-0.14,-0.2559,-0.3955,-0.5377,-0.5345,-0.5296,-0.519,-0.519,-0.4376,-0.3137,-0.2058,-0.0941,0.0155,0.127,0.1617,0.1617,0.1617,0.1617,0.1617,0.1617,0.2873,0.4325,0.4724,0.6129,0.7537,0.7889,0.7988,0.8577,1.0734,1.1023,1.1463,1.3377,1.3098,1.2548,1.2632,1.2736,1.3002,1.3591,1.3975,1.4406,1.5014,1.5101,1.5137,1.5227,1.5597,1.5851,1.5851,1.5812,1.5908,1.6068,1.5169,1.466,1.4921,1.443,1.4211,1.4211,1.5097,1.56,0.0,0.0,0.0,0.0,0.0,0.0,0.0,0.0,0.0,0.0,0.0,0.0,0.0,0.0,0.0,0.0,0.0,0.0,0.0,0.0,0.0,0.0,0.0,0.0,0.0,0.0,1.0984,1.0859,1.0944,1.0638,0.9531,1.0277,1.037,0.9316,0.8871,0.8537,0.8309,0.785,0.7859,0.8404,0.9134,0.9813,1.0386,0.8974,0.7578,0.6191,0.4669,0.3241,0.1854,0.1813,0.1795,0.1739,0.0953,0.0393,-0.0056,-0.084,-0.2352,-0.4201,-0.465,-0.4729,-0.468,-0.468,-0.3608,-0.2054,-0.0908,-0.0053,0.0672,0.1372,0.1617,0.1617,0.1617,0.1617,0.1617,0.1617,0.2873,0.4325,0.4724,0.6129,0.754,0.7889,0.7988,0.8577,1.0734,1.1219,1.1804,1.3902,1.363,1.3055,1.3055,1.3377,1.3761,1.4131,1.4832,1.5462,1.5948,1.6073,1.6212,1.631,1.6689,1.6903,1.6903,1.7015,1.7088,1.7151,1.6216,1.5891,1.6309,1.5875,1.5365,1.4792,1.5511,1.5801,1.5643,0.0,0.0,0.0,0.0,0.0,0.0,0.0,0.0,0.0,0.0,0.0,0.0,0.0,0.0,0.0,0.0,0.0,0.0,0.0,0.0,0.0,0.0,0.0,1.2594,1.169,1.0638,0.9665,1.0507,1.0701,0.9476,1.0383,1.0899,1.0657,0.9537,0.8816,0.8813,0.7539,0.738,0.8634,0.8545,0.9153,1.0621,0.9357,0.7916,0.644,0.5002,0.3526,0.1883,0.1823,0.1795,0.1795,0.1795,0.1121,0.0056,0.0056,-0.0672,-0.1847,-0.3078,-0.3525,-0.3525,-0.3525,-0.2015,0.0167,0.1294,0.1686,0.171,0.1627,0.1617,0.1617,0.1617,0.1617,0.1617,0.1617,0.2422,0.3473,0.4524,0.5629,0.6736,0.7739,0.7988,0.8577,1.0734,1.1219,1.1804,1.3902,1.3871,1.3539,1.3539,1.38,1.4214,1.4943,1.5988,0.0,1.8067,1.8439,1.8705,1.9033,1.9079,1.9086,1.9086,1.8404,1.7987,1.8037,1.7089,1.7106,1.8373,1.8416,1.7669,1.6037,1.5974,1.572,1.5232,0.0,0.0,0.0,0.0,0.0,0.0,0.0,0.0,0.0,0.0,0.0,0.0,0.0,0.0,0.0,0.0,0.0,0.0,0.0,0.0,0.0,0.0,1.2165,1.1552,1.1189,1.0936,1.0744,1.1021,1.1047,1.0697,1.0946,1.0732,0.9707,0.8514,0.7407,0.6429,0.6783,0.7325,0.7962,0.9571,1.079,1.1455,1.0842,0.9398,0.7113,0.6189,0.4522,0.2237,0.1937,0.1795,0.1795,0.1795,0.1627,0.129,0.129,0.0617,-0.0616,-0.1847,-0.2295,-0.2295,-0.2295,-0.1344,0.0167,0.1294,0.1699,0.1684,0.1633,0.1617,0.1617,0.1617,0.1617,0.1617,0.1617,0.2923,0.4425,0.4724,0.6179,0.764,0.7939,0.7988,0.8577,1.0734,1.1219,1.1804,1.3902,1.4202,1.425,1.4771,1.5242,1.5805,1.6567,1.7225,0.0,1.8076,1.8177,1.8262,1.8354,1.8773,1.9016,1.9016,1.9382,1.9595,1.9599,1.9659,1.9626,1.9517,1.8977,1.8491,1.8017,1.802,1.7916,0.0,0.0,0.0,0.0,0.0,0.0,0.0,0.0,0.0,0.0,0.0,0.0,0.0,0.0,0.0,0.0,0.0,0.0,0.0,0.0,0.0,0.0,1.4184,1.2761,1.1827,1.1301,1.1005,1.1106,1.1179,1.1224,1.1224,1.1224,1.0655,0.9353,0.8145,0.6834,0.5489,0.5629,0.6308,0.7536,0.8923,1.027,1.1541,1.1359,1.0154,0.7994,0.7041,0.5402,0.326,0.2384,0.1964,0.0,0.1851,0.1795,0.1795,0.1795,0.1402,0.0,0.0,0.0,0.0,0.0,0.0167,0.0829,0.1505,0.1697,0.1679,0.1633,0.1617,0.1617,0.1617,0.1617,0.1617,0.1617,0.3123,0.4824,0.4824,0.6379,0.7988,0.7988,0.8333,0.9118,1.0828,1.1512,1.2344,1.4004,0.0,0.0,1.5724,1.615,1.6574,1.7192,1.7939,1.8365,1.828,1.8319,1.8411,1.8411,1.9087,1.9526,1.9526,2.0442,0.0,0.0,0.0,2.0053,1.9479,1.9019,0.0,0.0,0.0,1.8807,1.8807,0.0,0.0,0.0,1.7105,1.7537,0.0,0.0,0.0,0.0,0.0,0.0,0.0,0.0,0.0,0.0,0.0,0.0,0.0,0.0,0.0,0.0,1.4511,1.3953,1.3039,1.191,1.1141,1.1053,1.1147,1.1252,1.1252,1.1095,1.0512,0.9214,0.7991,0.6713,0.5341,0.0,0.0,0.0,0.0,0.8823,1.1162,1.1224,1.0401,0.8826,0.7715,0.6291,0.4525,0.3105,0.2411,0.2244,0.202,0.1907,0.1907,0.1851,0.1851,0.1683,0.0617,0.0224,0.0336,0.1402,0.1776,0.18,0.1714,0.0,0.0,0.1626,0.1617,0.1617,0.1617,0.1617,0.1617,0.1617,0.3123,0.4824,0.4824,0.6379,0.7988,0.7988,0.8726,0.9752,1.0925,1.1901,1.2877,1.4052,1.4298,1.4771,1.6346,1.6588,1.6817,1.7372,1.8218,1.8743,1.8574,1.8697,1.8827,1.8966,0.0,0.0,2.0439,2.1581,2.1381,1.9377,1.9629,1.9652,1.9258,1.9154,1.9138,1.9142,1.9142,1.9142,1.9142,1.9142,1.9142,1.9142,1.9116,1.9116,0.0,0.0,0.0,0.0,0.0,0.0,0.0,0.0,0.0,0.0,0.0,0.0,0.0,0.0,0.0,1.7425,1.6311,1.52,1.419,1.3068,1.2075,1.1269,1.1334,1.1447,1.1447,1.061,0.9546,0.8183,0.6872,0.5499,0.4142,0.4779,0.0,0.738,0.8369,0.9638,1.1162,1.1224,1.0524,0.9184,0.0,0.0,0.487,0.4339,0.3527,0.2581,0.2525,0.2525,0.2525,0.2244,0.202,0.1795,0.157,0.1458,0.1458,0.1739,0.1776,0.18,0.1714,0.1686,0.1709,0.1626,0.1617,0.1617,0.1617,0.1617,0.0,0.1617,0.3123,0.4824,0.4824,0.6379,0.7988,0.7988,0.8137,0.8825,1.0779,1.1365,1.2047,1.395,1.4298,1.4771,1.6346,1.6588,1.7052,1.8319,1.8689,1.8781,1.8743,1.8789,1.9096,1.994,2.0158,2.0619,2.1382,2.2084,2.2318,2.1885,2.1959,2.1941,2.1851,2.1392,2.1159,2.1159,2.1159,2.1159,2.1159,2.1159,2.1159,2.1159,2.1157,2.1137,0.0,0.0,0.0,0.0,0.0,0.0,0.0,0.0,0.0,0.0,0.0,2.1242,0.0,0.0,1.8611,1.8306,1.6914,1.5576,1.4521,1.3401,1.2309,1.1315,1.1301,1.1399,1.1492,1.0375,0.9153,0.7947,0.6624,0.5225,0.3847,0.4303,0.5473,0.718,0.7847,0.9059,1.0956,1.0956,1.0614,0.9991,0.9178,0.785,0.5992,0.5104,0.4029,0.2915,0.275,0.2693,0.2693,0.2525,0.2356,0.2244,0.2244,0.2076,0.1793,0.1778,0.1753,0.1776,0.185,0.1767,0.1688,0.1774,0.1718,0.1617,0.1617,0.1617,0.1718,0.227,0.3574,0.4924,0.5479,0.6783,0.7988,0.7988,0.8821,0.9903,1.0979,1.2004,1.3076,1.41,1.4298,1.4771,1.6346,1.6588,1.7099,1.8596,1.8781,1.8781,1.8781,1.9234,1.972,2.0257,2.1141,2.1898,2.235,2.2681,2.2851,2.2851,2.2851,2.2631,2.2152,2.2299,2.2183,2.1695,2.1819,2.1863,2.1863,2.1987,2.2066,2.2076,2.2533,2.2368,0.0,0.0,0.0,0.0,0.0,0.0,0.0,0.0,2.4275,2.3135,2.2636,2.2027,2.0525,1.9556,1.8927,1.8624,1.7336,1.597,1.4806,1.3795,1.2721,1.1529,1.1297,1.135,1.1537,1.0112,0.884,0.7972,0.6394,0.4985,0.3834,0.3829,0.4693,0.6705,0.6972,0.8137,1.0304,1.0582,1.0692,1.0692,0.9695,0.864,0.7418,0.6197,0.492,0.3529,0.3085,0.2862,0.2805,0.2805,0.275,0.2692,0.2684,0.2401,0.195,0.1978,0.1888,0.1904,0.2085,0.1999,0.1768,0.2021,0.192,0.1768,0.1718,0.1667,0.1869,0.2923,0.3974,0.5024,0.6134,0.7188,0.7988,0.7988,0.9312,1.0685,1.1121,1.2538,1.3806,1.4202,1.4298,1.4771,1.6346,1.6588,1.7099,1.8596,1.8781,1.8874,1.905,1.9812,2.043,2.0836,2.2208,2.3183,2.3367,2.3367,2.3367,2.3367,2.3367,2.3018,2.2271,2.3018,2.3096,2.235,2.2526,2.2604,2.2604,2.2848,2.2926,2.2969,2.3737,2.3357,2.6992,2.7516,0.0,2.8218,2.8067,2.7843,0.0,0.0,2.7124,2.5917,2.4586,2.3318,2.2079,2.0483,1.9255,1.8886,1.8466,1.7496,1.5708,1.5092,1.4173,1.2307,1.1739,1.1541,1.1727,0.9542,0.8025,0.7917,0.554,0.4018,0.3834,0.3829,0.4348,0.5543,0.6586,0.775,0.9089,1.0139,1.0692,1.0692,1.0582,0.986,0.8699,0.8533,0.7257,0.5093,0.3977,0.3307,0.3082,0.3082,0.2915,0.2689,0.265,0.2578,0.2523,0.2518,0.2464,0.2392,0.2439,0.2408,0.2321,0.2321,0.2321,0.227,0.2021,0.1971,0.2122,0.2973,0.3974,0.5024,0.6134,0.7188,0.7988,0.7988,0.8184,0.8874,1.0779,1.1365,1.2096,1.3956,1.4298,1.4771,1.6346,1.6588,1.7099,1.8596,1.8781,1.9142,2.0031,2.0212,2.0917,2.2604,2.2965,2.3454,2.4272,2.4358,2.4358,2.4358,2.4358,2.4325,2.4186,2.4519,2.4637,2.4551,2.4722,2.484,2.484,2.4882,2.4893,2.4893,2.4978,2.4498,2.7256,0.0,0.0,0.0,2.8291,2.8291,2.8184,2.8121,2.7726,2.63,2.6227,2.5368,2.1884,2.095,2.0323,0.0,1.8738,1.7716,1.5707,1.531,1.4421,1.2268,1.1837,1.1751,1.182,0.9444,0.7919,0.7919,0.5418,0.3898,0.3775,0.3829,0.4292,0.5377,0.6531,0.7695,0.8865,1.0084,1.0692,1.0692,1.0692,1.0084,0.892,0.892,0.7977,0.6311,0.5146,0.459,0.4367,0.3698,0.3289,0.3147,0.3124,0.3079,0.2971,0.2653,0.2523,0.2538,0.2613,0.2538,0.2422,0.2573,0.2522,0.2371,0.2271,0.2674,0.3376,0.4325,0.5275,0.6226,0.7478,0.8031,0.8233,0.8233,0.8726,0.9558,1.0925,1.1658,1.2484,1.4004,1.4298,1.4771,1.6346,1.6588,1.7099,1.8596,1.8781,1.9142,2.0167,2.0791,2.1819,2.3734,2.3907,2.409,2.4454,2.4497,2.4497,2.4497,2.4658,2.4743,2.4743,2.5432,2.583,2.583,2.6524,2.6883,2.6883,2.7017,2.7058,2.7058,2.7058,2.683,2.7741,0.0,0.0,2.8291,2.8291,2.8291,2.8291,2.8291,2.7994,2.6779,2.7163,2.6627,2.3313,2.1868,2.0787,1.9645,1.901,1.8039,1.6266,1.5646,1.4699,1.2771,1.2121,1.1829,1.1788,0.9398,0.7919,0.7919,0.5418,0.3898,0.3775,0.3829,0.4292,0.5377,0.6531,0.7695,0.8865,1.0084,1.0692,1.0692,1.0692,1.0249,0.9364,0.903,0.842,0.7529,0.6366,0.5704,0.5314,0.4458,0.3866,0.3493,0.3461,0.3397,0.3267,0.2838,0.2677,0.2723,0.2839,0.2775,0.2674,0.2826,0.2775,0.2674,0.2874,0.3475,0.4375,0.5672,0.6476,0.7226,0.8474,0.8676,0.8528,0.8528,0.9118,0.9998,1.117,1.195,1.278,1.4148,1.4346,1.4771,1.6346,1.6588,1.7099,1.8596,1.8781,1.9279,2.052,2.173,2.2984,2.4368,2.4497,2.454,2.4615,2.4818,2.4978,2.5062,2.5474,2.5704,2.5704,2.6524,2.6849,2.6669,2.7521,2.8036,2.8176,2.8347,2.8386,2.8386,2.8566,2.8642,0.0,0.0,2.8291,2.8291,2.8291,2.8291,2.8291,2.8291,2.8291,2.8237,2.7013,2.6418,2.7825,2.3606,1.9918,1.9898,1.9544,1.8955,1.7963,1.6581,1.5309,1.4334,1.2717,1.1697,0.0,0.9394,0.7919,0.7919,0.5418,0.3898,0.3775,0.3829,0.4292,0.5377,0.6531,0.7695,0.8865,1.0084,1.0692,1.0692,1.0692,1.0692,1.0637,0.942,0.8865,0.8754,0.7584,0.6422,0.5419,0.5275,0.4531,0.3485,0.3371,0.3324,0.3315,0.3204,0.3183,0.3183,0.3181,0.318,0.318,0.318,0.318,0.3331,0.4079,0.4379,0.4778,0.6623,0.717,0.7422,0.8524,0.8775,0.8775,0.8775,0.8825,0.941,1.1512,1.1809,1.2242,1.4298,1.4496,1.4771,1.6346,1.6588,1.7099,1.8596,1.8781,1.95,2.1427,2.3256,2.4454,2.4497,2.4497,2.4625,2.4871,2.5599,2.616,2.6431,2.7238,2.7711,2.7711,2.7924,2.7738,2.7104,2.743,2.7878,2.8386,2.8386,2.8386,2.8426,2.9013,2.927,2.8644,0.0,2.8291,2.8291,2.8291,2.8291,2.8291,2.8291,2.8291,2.8291,2.786,2.7054,2.5586,2.3793,2.1816,1.983,1.9364,1.8943,1.7868,1.6643,1.5387,1.4261,1.2904,0.0,0.0,0.0,0.0,0.7728,0.6056,0.4691,0.3833,0.3829,0.4292,0.5377,0.6531,0.7695,0.8865,1.0084,1.0692,1.0692,1.0692,1.0692,1.0692,1.0304,1.0084,1.0029,0.8806,0.8088,0.7642,0.6824,0.6174,0.5669,0.5657,0.5496,0.5374,0.534,0.5327,0.5129,0.3681,0.318,0.3331,0.4033,0.4284,0.4433,0.5427,0.6224,0.6924,0.7574,0.8124,0.863,0.9179,0.9179,0.908,0.908,0.9612,1.0489,1.1712,1.2441,1.327,1.4688,1.4885,1.535,1.7037,1.7326,1.7878,1.9554,1.982,2.0257,2.1561,2.2921,2.4026,2.469,2.4861,2.5232,2.5913,2.6235,2.6666,2.7319,2.7763,2.8004,2.8004,2.8591,2.8792,2.8551,2.9425,2.9948,3.0139,3.0139,3.0139,3.0139,3.0343,3.0431,2.8803,2.8608,2.8461,2.8461,2.8344,2.8291,2.8291,2.8291,2.8291,2.8291,2.828,2.7208,2.3538,2.286,2.2092,1.9676,1.9291,1.9063,1.8325,1.6876,1.5601,1.4789,1.3237,0.0,0.0,0.0,0.0,0.7833,0.6403,0.5065,0.3858,0.4165,0.4922,0.5986,0.7143,0.8306,0.953,1.0304,1.0692,1.0692,1.0692,1.0692,1.0692,1.0692,1.0692,1.0637,0.9864,0.9309,0.8861,0.8032,0.7342,0.6785,0.6794,0.66,0.6423,0.6423,0.6423,0.6224,0.483,0.4331,0.4481,0.5131,0.5381,0.5579,0.6623,0.7471,0.8074,0.8474,0.8928,0.9381,0.9579,0.948,0.9331,0.9331,0.9867,1.0739,1.1999,1.2684,1.3511,1.4975,1.5178,1.5642,1.7412,1.8203,1.8988,2.0147,2.032,2.0709,2.1908,2.2999,2.4016,2.4893,2.5115,2.56,2.6524,2.6883,2.7481,2.8402,2.8888,2.9135,2.9135,2.9628,2.9897,2.9896,3.0631,3.0996,3.1,3.1,3.1,3.0987,3.1003,3.0987,2.9023,2.882,2.8727,2.8727,2.8514,2.8344,2.8291,2.8291,2.8291,2.8291,2.8226,2.6752,0.0,0.0,2.0704,1.9486,1.9286,1.9279,1.9279,1.7351,1.5914,0.0,0.0,0.0,0.0,0.0,0.0,0.8214,0.0,0.521,0.3914,0.4946,0.606,0.7091,0.8309,0.9475,1.0692,1.0692,1.0692,1.0692,1.0692,1.0692,1.0692,1.0692,1.0692,1.0692,1.0692,1.0029,0.8965,0.893,0.8135,0.6987,0.6918,0.674,0.6573,0.6573,0.6573,0.6573,0.6573,0.6473,0.6423,0.6473,0.6473,0.6672,0.7773,0.8074,0.8273,0.9327,0.9579,0.9579,0.9579,0.9579,0.9579,0.9579,0.9677,1.031,1.229,1.2581,1.3065,1.5105,1.5404,1.5832,1.7451,1.9217,2.0382,2.0382,2.0382,2.0952,2.2517,2.3531,2.4423,2.5158,2.5242,2.5684,2.6771,2.7654,2.8573,2.9704,3.0545,3.0986,3.0986,3.0986,3.099,3.0987,3.1154,3.1154,3.1019,3.1019,3.1082,3.1231,3.1238,3.1202,2.8952,2.8967,2.8983,2.8983,2.8973,2.8824,2.8621,2.8621,2.8514,2.8344,2.7328,2.5663,0.0,0.0,0.0,1.9372,1.9306,0.0,1.9279,1.7351,0.0,1.5914,0.0,1.2278,1.2278,1.206,0.0,0.0,0.8537,0.7328,0.6075,0.604,0.6621,0.7756,0.853,0.9475,1.0692,1.0692,1.0692,1.0692,1.0692,1.0692,1.0692,1.0692,1.0692,1.0692,1.0692,1.0527,1.0245,1.0202,0.9846,0.9313,0.932,0.9078,0.8775,0.8775,0.8775,0.8775,0.8775,0.7723,0.6523,0.7322,0.7571,0.7773,0.8874,0.9175,0.9225,0.9529,0.9579,0.9579,0.9579,0.9579,0.9579,0.9579,1.0792,1.2052,1.2581,1.3842,1.5051,1.5635,1.6897,1.8002,1.8419,2.0085,2.1329,2.1329,2.1329,2.1668,2.2561,2.3096,2.393,2.5338,2.5644,2.6362,2.7867,2.8187,2.8978,3.0583,3.0861,3.0986,3.0986,3.0986,3.1009,3.0992,3.3196,3.326,3.1019,3.1019,3.2145,3.4349,3.4355,3.374,2.8768,2.888,2.9058,2.9292,2.9237,2.9079,2.893,2.8887,2.8824,2.8664,2.7185,0.0,0.0,0.0,0.0,0.0,0.0,0.0,1.9383,1.7786,1.6452,0.0,1.4315,0.0,1.2441,1.2273,1.1887,0.0,0.9947,0.8655,0.741,0.7689,0.817,0.8751,0.9467,1.0135,1.0692,1.0692,1.0692,1.0692,1.0692,1.0692,1.0692,1.0692,1.0692,1.0692,0.0,1.0692,1.0692,1.0692,1.053,1.0274,1.0245,0.9989,0.973,0.9657,0.9579,0.9579,0.9579,0.8825,0.7922,0.8524,0.8722,0.8825,0.9426,0.9579,0.9579,0.9579,0.9579,0.9579,0.9579,0.9579,0.9579,0.9579,1.0841,1.2145,1.2587,1.3992,1.5255,1.573,1.7084,1.8288,1.8703,2.0076,2.1221,2.1642,2.1696,2.2078,2.3052,2.3313,2.4016,2.5559,2.5812,2.6569,2.8267,2.8386,2.9147,3.0898,3.0986,3.0986,3.0986,3.0986,3.1007,3.0985,3.2647,3.2691,3.0994,3.0994,3.2708,3.5938,3.5781,3.5268,2.8524,2.8664,2.8962,2.9393,2.9265,2.9023,2.9084,2.9051,2.9041,2.9041,0.0,2.5325,2.3382,0.0,2.1615,1.9874,0.0,2.0692,1.9487,1.8443,1.7384,1.624,1.4965,1.3786,1.2762,1.2491,1.2387,1.2387,1.1044,0.972,0.8465,0.9423,1.0002,1.0021,1.0794,1.1072,1.0802,1.0802,1.0747,1.0747,1.0747,1.0747,1.0692,1.0747,1.0747,1.0692,0.0,0.0,1.0692,1.0692,1.059,1.0416,1.0233,1.0102,0.9864,0.9693,0.9579,0.9579,0.9579,0.9579,0.9579,0.9579,0.9579,0.9579,0.9579,0.9579,0.9579,0.9579,0.9579,0.9579,0.9579,0.9579,0.9579,0.9579,1.0498,1.1658,1.2484,1.3655,1.4777,1.5635,1.6629,1.7598,1.8611,1.9613,2.0619,2.1553,2.1696,2.2211,2.3627,2.38,2.4317,2.577,2.5895,2.6539,2.8108,2.8347,2.9108,3.0697,3.0949,3.0986,3.0986,3.0986,3.1003,3.1026,3.1172,3.1312,3.1459,3.1577,3.3317,3.6457,3.6144,3.5962,2.8038,2.833,2.8652,2.8734,2.8745,2.8746,2.889,2.893,0.0,0.0,0.0,2.5946,2.4056,2.1898,0.0,2.094,0.0,0.0,0.0,0.0,1.8608,0.0,0.0,0.0,0.0,0.0,0.0,0.0,0.0,0.0,1.0629,1.0551,1.0775,1.1291,1.1459,1.1514,1.1459,1.1185,1.1021,1.1021,1.1021,1.0911,1.0692,1.0907,1.0911,1.0692,0.0,0.0,1.0692,1.0692,1.059,1.0416,1.0233,1.0102,0.9864,0.9693,0.9579,0.9579,0.9579,0.9579,0.9579,0.9579,0.9579,0.9579,0.9579,0.9579,0.9579,0.9579,0.9579,0.9579,0.9579,0.9579,0.9579,0.9579,1.1033,1.2484,1.2678,1.4184,1.5588,1.5784,1.6629,1.7598,1.8611,1.9613,2.0619,2.1553,2.1696,2.2211,2.3627,2.38,2.4317,2.577,2.5895,2.6302,2.7336,2.8039,2.8821,2.9858,3.0583,3.0986,3.0986,3.0986,3.106,3.1241,3.2064,3.2881,3.3728,3.4665,3.5487,3.6169,3.6107,3.5711,2.7862,2.803,2.8307,2.8556,2.8618,2.863,2.8705,0.0,0.0,0.0,2.7467,2.6043,2.4452,0.0,0.0,0.0,0.0,0.0,0.0,0.0,0.0,0.0,0.0,0.0,0.0,0.0,0.0,0.0,0.0,0.0,1.1782,1.1673,1.1678,1.1787,1.1787,1.1732,1.1623,1.1459,1.135,1.135,1.135,1.1291,1.1185,1.1295,1.1181,1.0911,1.1076,0.0,1.0911,1.1076,1.1025,1.0754,1.0476,1.0263,0.9994,0.9726,0.9677,0.9772,0.9628,0.9677,0.9772,0.9628,0.9579,0.9579,0.9579,0.9579,0.9579,0.9579,0.9579,0.9579,0.9579,0.9579,0.9579,0.9579,1.1179,1.3017,1.4082,1.5099,1.5784,1.5784,1.6629,1.7598,1.8611,1.9613,2.0619,2.1553,2.1696,2.2211,2.3627,2.38,2.4317,2.577,2.5895,2.626,2.7144,2.7919,2.8782,2.9653,3.0608,3.1161,3.1161,3.1261,3.1373,3.1434,3.1997,3.3009,3.4513,3.4545,3.5159,3.6302,3.5797,3.5623,2.7638,2.7779,2.7862,2.8235,2.8328,2.8349,2.8442,2.8462,0.0,0.0,2.753,2.6249,2.4633,0.0,0.0,0.0,0.0,0.0,0.0,0.0,0.0,0.0,0.0,0.0,0.0,0.0,0.0,0.0,0.0,0.0,1.2387,1.2387,1.2273,1.2114,1.2114,1.2001,1.1787,1.1732,1.1678,1.1678,1.1678,1.1678,1.1623,1.1678,1.1514,1.124,1.1514,0.0,0.0,1.1514,1.1459,1.1147,1.0826,1.0577,1.0323,0.9908,0.992,1.0068,0.9821,0.992,1.0068,0.9821,0.9677,0.9628,0.9677,0.9628,0.9628,0.9677,0.9628,0.9579,0.9579,0.9579,0.9727,1.0162,1.1521,1.3258,1.5343,1.5784,1.5832,1.5879,1.6534,1.7466,1.875,1.9613,2.0529,2.1687,2.1865,2.2378,2.3844,2.4006,2.4573,2.601,2.6021,2.6218,2.6981,2.7799,2.8664,2.9575,3.0608,3.1248,3.1347,3.1522,3.1609,3.1646,3.1911,3.2799,3.4376,3.391,3.4563,3.6238,3.5671,3.58,2.7064,2.7372,2.7382,2.7423,2.7434,2.7537,2.7893,0.0,0.0,2.7937,2.7858,2.7038,2.4563,2.3908,2.2871,0.0,0.0,1.908,0.0,0.0,0.0,0.0,0.0,0.0,0.0,0.0,0.0,0.0,0.0,0.0,0.0,1.2387,1.2382,1.2387,1.2387,1.2327,1.2332,1.206,1.1951,1.1951,1.1951,1.1841,1.1623,1.1841,1.1787,1.1568,0.0,0.0,0.0,1.1568,1.1568,1.1529,1.1142,1.0936,1.0893,1.0454,1.0364,1.0364,1.0364,1.0364,1.0364,1.0314,1.0019,0.9628,0.9871,0.9772,0.9628,0.9875,0.9772,0.9579,0.9579,0.9579,1.0064,1.1955,1.2581,1.3258,1.5343,1.5784,1.5879,1.6123,1.6224,1.6958,1.9072,1.953,2.0212,2.2078,2.2353,2.2906,2.4488,2.4701,2.5337,2.6887,2.6385,2.6093,2.6528,2.7366,2.8319,2.9369,3.0279,3.0999,3.1572,3.1609,3.1683,3.1853,3.2484,3.3003,3.3325,3.4581,3.532,3.5512,3.6116,3.6429,2.7119,2.7309,2.7309,2.7309,2.7102,2.7009,2.7417,0.0,2.7189,2.7469,2.7521,2.7026,2.5362,2.4442,2.3287,2.1226,0.0,0.0,0.0,0.0,0.0,0.0,0.0,0.0,0.0,0.0,0.0,0.0,0.0,0.0,0.0,1.2387,1.2387,1.2387,1.2387,1.2387,1.2387,1.2278,1.2223,1.2223,1.2223,1.2164,1.2114,1.2164,1.2114,1.1841,0.0,0.0,0.0,1.2005,1.1937,1.1639,1.136,1.1077,1.0791,1.0514,1.0507,1.0609,1.0462,1.0507,1.0609,1.0462,1.0265,1.0117,1.0216,1.0167,1.0068,1.0019,1.0019,1.0019,0.9871,1.0404,1.137,1.2829,1.365,1.4513,1.5961,1.6298,1.6298,1.64,1.6918,1.78,1.9255,1.9994,2.0853,2.2211,2.2397,2.2784,2.3874,2.4498,2.521,2.631,2.6569,2.6734,2.6899,2.773,2.8557,2.9369,3.0343,3.1149,3.1743,3.189,3.2,3.2073,3.2322,3.2725,3.3178,3.3802,3.4312,3.4747,3.5059,3.519,2.7013,2.7299,2.7404,2.7404,2.7004,2.6739,0.0,0.0,2.675,2.7216,2.7309,2.686,2.5489,2.4536,2.3295,2.1346,0.0,1.9231,0.0,0.0,0.0,0.0,0.0,0.0,0.0,0.0,0.0,0.0,0.0,0.0,0.0,1.3457,1.3132,1.2436,1.2762,1.2925,1.2925,1.3295,1.3457,1.3457,1.3083,1.2925,1.2925,1.2545,1.2278,1.2114,0.0,0.0,0.0,1.2332,1.2156,1.1801,1.159,1.1285,1.0887,1.0731,1.0752,1.0904,1.0703,1.0949,1.1287,1.0801,1.0846,1.1042,1.0752,1.0511,1.0364,1.0265,1.0314,1.0413,1.0551,1.1224,1.2242,1.3601,1.4465,1.5283,1.6393,1.6588,1.6629,1.6683,1.7293,1.8172,1.9476,2.0303,2.1159,2.2432,2.2608,2.2872,2.3701,2.4327,2.5137,2.6185,2.6846,2.7267,2.74,2.7966,2.8621,2.9342,3.0266,3.1048,3.168,3.2023,3.2218,3.2218,3.2218,3.2444,3.2889,3.3087,3.3457,3.3973,3.4211,3.4312,2.661,2.7241,2.7584,2.7584,2.7098,2.6739,0.0,0.0,2.675,2.7216,2.7309,2.6668,2.4531,2.3864,2.2777,2.0305,1.9638,0.0,0.0,0.0,0.0,0.0,0.0,0.0,0.0,0.0,0.0,0.0,0.0,0.0,0.0,1.5861,1.4793,1.2491,1.3576,1.4169,1.4169,1.528,1.5861,1.5861,1.4696,1.4169,1.4116,1.2925,1.2387,0.0,0.0,0.0,0.0,1.2387,1.2269,1.2067,1.185,1.1694,1.1491,1.1274,1.1194,1.1194,1.1194,1.1868,1.2538,1.1531,1.1868,1.249,1.1482,1.0801,1.0462,1.0703,1.0609,1.065,1.1609,1.1896,1.2431,1.4513,1.4991,1.5283,1.6393,1.6588,1.6683,1.6932,1.6979,1.7707,1.9832,2.0187,2.0863,2.2818,2.3091,2.344,2.437,2.4498,2.521,2.6969,2.7174,2.74,2.7841,2.7893,2.8351,2.9341,2.9986,3.0582,3.1196,3.1863,3.2218,3.2218,3.2218,3.2218,3.2218,3.2868,3.3178,3.3213,3.3973,3.4312,2.5887,2.5968,2.5834,2.5482,2.4959,2.4567,2.4746,2.4593,2.4565,2.5043,2.5129,2.4933,2.4236,2.3229,2.2165,2.1168,2.0108,0.0,0.0,0.0,0.0,0.0,0.0,0.0,0.0,0.0,0.0,0.0,0.0,0.0,0.0,1.5914,1.5541,1.4846,1.5173,1.5387,1.5387,1.5701,1.5914,1.5914,1.5541,1.5387,1.5334,1.4953,0.0,0.0,0.0,0.0,0.0,1.3943,1.3402,1.2998,1.2151,1.1605,1.1288,1.1222,1.1194,1.1292,1.2014,1.2441,1.2775,1.3162,1.3547,1.374,1.3403,1.2684,1.215,1.2969,1.3017,1.2915,1.3397,1.4064,1.474,1.5365,1.6089,1.6662,1.7005,1.7091,1.7099,1.72,1.7192,1.7831,1.9869,2.0187,2.0863,2.2818,2.3091,2.3222,2.3517,2.4112,2.4956,2.6121,2.6805,2.7522,2.8231,2.8323,2.8618,2.9341,2.9986,3.0582,3.1196,3.185,3.2218,3.2218,3.2218,3.2218,3.2218,3.2408,3.2632,3.2854,3.3101,3.3624,0.0,2.5508,2.5398,2.5092,2.4431,2.389,2.4065,2.3738,2.3544,2.4005,2.4088,2.3989,2.3552,2.2574,2.1622,2.0998,1.9939,0.0,0.0,0.0,0.0,0.0,0.0,0.0,0.0,0.0,0.0,0.0,0.0,0.0,0.0,0.0,1.7397,1.7496,1.6869,1.6558,1.6558,1.6982,1.7193,1.7193,1.677,1.6558,1.6505,1.6074,0.0,0.0,0.0,0.0,0.0,1.512,1.4564,1.401,1.3295,1.2756,1.2349,1.2349,1.2349,1.2446,1.3065,1.3547,1.3926,1.422,1.4316,1.4364,1.4746,1.4124,1.3451,1.4124,1.4166,1.4166,1.4698,1.5317,1.5893,1.6278,1.685,1.7279,1.7279,1.7279,1.7279,1.7279,1.7279,1.7917,1.9869,2.0187,2.0863,2.2818,2.3091,2.3091,2.3091,2.3604,2.4445,2.5652,2.6329,2.7174,2.8391,2.851,2.8657,2.904,2.9651,3.0241,3.0846,3.1468,3.2009,3.2372,3.2372,3.2444,3.2624,3.2624,3.2717,3.2917,3.2917,3.329,0.0,2.5577,0.0,2.5848,2.4948,2.4172,2.4557,2.3922,0.0,2.3768,2.389,2.3552,2.2568,2.1852,2.1052,2.0055,1.928,0.0,0.0,0.0,0.0,0.0,0.0,0.0,0.0,0.0,0.0,0.0,0.0,0.0,0.0,0.0,1.9828,2.0078,1.8572,1.7793,1.774,1.8795,1.9324,1.9272,1.822,1.774,1.7687,1.6611,0.0,0.0,0.0,0.0,0.0,1.6074,1.5704,1.5228,1.5127,1.4745,1.4316,1.4316,1.4316,1.4316,1.4364,1.5032,1.5656,1.4794,1.4507,1.4698,1.5609,1.5222,1.4411,1.4507,1.4507,1.4746,1.5656,1.5893,1.6129,1.7084,1.7279,1.7279,1.7279,1.7279,1.7279,1.7279,1.7279,1.7917,1.9869,2.0187,2.0863,2.2818,2.3091,2.3091,2.3091,2.3091,2.381,2.561,2.5819,2.6577,2.8379,2.851,2.851,2.851,2.9079,2.9678,3.0241,3.0921,3.17,3.2632,3.2704,3.2917,3.3304,3.3304,3.3304,3.3339,3.3339,3.3339,2.439,0.0,2.4015,2.3657,2.3302,2.2868,0.0,2.2086,2.2005,2.1692,0.0,2.1564,2.1326,2.0735,2.02,1.9957,1.928,0.0,0.0,0.0,0.0,0.0,0.0,0.0,0.0,0.0,0.0,0.0,0.0,0.0,0.0,0.0,2.0027,2.0078,1.9717,1.9406,1.9205,1.9472,1.948,1.9279,1.9011,1.8907,1.89,1.8632,0.0,0.0,0.0,0.0,1.8422,1.7575,1.6859,1.633,1.543,1.4745,1.4316,1.4316,1.4316,1.4411,1.5175,1.5609,1.5893,1.6419,1.6608,1.6655,1.6897,1.6231,1.5602,1.6372,1.6608,1.6662,1.6897,1.6943,1.6998,1.7232,1.7279,1.7279,1.7279,1.7279,1.7279,1.7279,1.7279,1.7917,1.9869,2.0187,2.0863,2.2818,2.3091,2.3091,2.3091,2.3091,2.3844,2.5839,2.6036,2.683,2.8803,2.8669,2.851,2.851,2.9223,2.9704,2.9819,3.1145,3.2019,3.2237,3.2846,3.3199,3.3304,3.3304,3.3409,3.3667,3.3667,3.3839,2.4202,2.3987,2.3773,2.3519,2.3225,2.2821,2.2276,0.0,0.0,0.0,0.0,2.0925,2.0925,2.0337,0.0,1.9917,0.0,0.0,0.0,0.0,0.0,0.0,0.0,0.0,0.0,0.0,0.0,0.0,0.0,0.0,0.0,0.0,2.0351,2.0447,2.0351,2.0138,1.9879,1.9783,1.968,1.968,1.9428,1.9376,1.948,1.948,1.9428,0.0,0.0,0.0,1.9264,1.8483,1.7874,1.7428,1.6639,1.6053,1.5704,1.5704,1.5704,1.5751,1.6318,1.6466,1.656,1.7138,1.7279,1.7279,1.7279,1.6897,1.6608,1.7138,1.7279,1.7279,1.7279,1.7279,1.7279,1.7279,1.738,1.7473,1.7473,1.7567,1.7613,1.7527,1.7846,1.8611,1.9968,2.0593,2.1418,2.3047,2.3276,2.3319,2.3396,2.3406,2.4145,2.6088,2.6295,2.7046,2.8922,2.8895,2.8788,2.8788,2.9197,2.9561,2.9832,3.0671,3.1529,3.2345,3.3304,3.3805,3.3805,3.3805,3.3908,3.4094,3.4094,3.4196,2.4202,2.4202,2.4202,2.4202,2.3845,2.3429,2.3329,0.0,0.0,0.0,0.0,0.0,0.0,0.0,0.0,0.0,0.0,0.0,0.0,0.0,0.0,0.0,0.0,0.0,0.0,0.0,0.0,0.0,0.0,0.0,0.0,0.0,0.0,2.0845,2.0644,2.0462,2.0233,1.9939,1.9931,2.0078,1.9628,1.9532,1.9783,1.9783,1.9628,0.0,0.0,0.0,1.928,1.8956,1.8625,1.8253,1.7974,1.7666,1.7426,1.738,1.738,1.7426,1.738,1.738,1.7426,1.738,1.738,1.7419,1.7419,1.7419,1.7419,1.7419,1.738,1.738,1.738,1.738,1.7426,1.738,1.7574,1.7768,1.7768,1.7947,1.804,1.7815,1.8542,1.9446,2.0195,2.1141,2.2183,2.3363,2.3547,2.3634,2.3797,2.3797,2.4456,2.6152,2.6483,2.7221,2.8882,2.9131,2.9209,2.9209,2.917,2.9431,3.0101,3.0139,3.0959,3.2725,3.3722,3.4264,3.4414,3.4414,3.4414,3.4414,3.4414,3.4414,2.4202,2.4202,2.4202,2.4202,2.4152,2.3945,2.3429,0.0,0.0,0.0,0.0,0.0,0.0,0.0,0.0,0.0,0.0,0.0,0.0,0.0,0.0,0.0,0.0,0.0,0.0,0.0,0.0,0.0,0.0,0.0,0.0,0.0,0.0,2.0472,2.0715,2.0822,2.0763,2.0514,2.03,2.0078,2.0034,1.9983,2.0034,2.0034,2.0034,0.0,0.0,1.9471,1.9188,1.9116,1.8735,1.8193,1.8141,1.8053,1.7947,1.7714,1.7761,1.7939,1.7721,1.7807,1.7939,1.7721,1.7807,1.7994,1.7994,1.7994,1.7994,1.7994,1.7807,1.7628,1.7628,1.7807,1.79,1.7675,1.7854,1.804,1.804,1.8087,1.8087,1.804,1.8812,1.9758,2.0728,2.1676,2.2624,2.3614,2.3754,2.3754,2.3797,2.3797,2.4294,2.5537,2.6318,2.7261,2.8502,2.9248,2.9675,2.9675,2.9482,2.9793,3.0707,3.0745,3.1513,3.3087,3.3297,3.3707,3.4414,3.4414,3.4414,3.4414,3.4414,3.4414,2.4202,2.4202,2.4202,2.4202,2.4202,2.4152,2.3845,2.3538,0.0,0.0,0.0,0.0,0.0,0.0,0.0,0.0,0.0,0.0,0.0,0.0,0.0,0.0,0.0,0.0,0.0,0.0,0.0,0.0,0.0,0.0,0.0,0.0,0.0,0.0,2.0448,2.0639,2.0639,2.0676,2.0668,2.0557,2.0241,2.0189,2.0292,2.0107,1.9979,1.9811,0.0,1.9372,1.9151,1.8915,1.8687,1.8391,1.8203,1.813,1.8087,1.7947,1.7994,1.8087,1.7947,1.7994,1.8087,1.7947,1.7994,1.8087,1.8087,1.8087,1.8133,1.8288,1.8141,1.79,1.79,1.7994,1.8087,1.7955,1.8141,1.8334,1.8334,1.8419,1.8589,1.8996,1.9849,2.0746,2.1632,2.2526,2.3343,2.3937,2.4024,2.4067,2.4143,2.4186,2.4551,2.5579,2.6442,2.7395,2.8422,2.93,2.9792,2.9792,2.9702,2.9831,3.0279,3.0683,3.1439,3.2577,3.3003,3.3604,3.4414,3.4515,3.4563,3.4563,3.465,3.4668,2.3795,2.4003,2.4202,2.4202,0.0,2.4202,2.4202,2.3845,0.0,0.0,0.0,0.0,0.0,0.0,0.0,0.0,0.0,0.0,0.0,0.0,0.0,0.0,0.0,0.0,0.0,0.0,0.0,0.0,0.0,0.0,0.0,0.0,0.0,0.0,2.0091,2.0265,2.0265,2.0535,2.0758,2.0925,2.0498,2.0357,2.0491,2.0217,1.9961,1.9668,1.9517,1.932,1.9054,1.8757,1.8618,1.8548,1.8287,1.8187,1.8179,1.8272,1.8272,1.8272,1.8234,1.8226,1.8272,1.8234,1.8234,1.8272,1.8272,1.8272,1.8319,1.852,1.8419,1.8272,1.8234,1.8226,1.8272,1.8179,1.8373,1.8612,1.8881,1.9058,1.9363,2.0167,2.106,2.1908,2.2482,2.3343,2.4013,2.4249,2.4282,2.4335,2.4497,2.4497,2.4786,2.5421,2.6453,2.7557,2.8712,2.9417,2.983,2.9869,2.983,2.9792,2.9792,3.0381,3.1156,3.2146,3.2755,3.3555,3.4515,3.4683,3.4765,3.4765,3.4835,3.4902,2.2627,2.3388,2.4202,2.4202,2.4202,0.0,2.4202,2.4152,0.0,2.4152,0.0,0.0,0.0,0.0,0.0,0.0,0.0,0.0,0.0,0.0,0.0,0.0,0.0,0.0,0.0,0.0,0.0,0.0,0.0,0.0,0.0,0.0,0.0,0.0,0.0,1.9957,1.9957,1.9972,2.0265,2.0925,2.0865,2.0699,2.0432,2.0408,2.021,1.9884,1.955,1.9257,1.9019,1.887,1.869,1.8512,1.8489,1.8481,1.8481,1.8697,1.8735,1.8735,1.852,1.8612,1.8735,1.852,1.8612,1.8735,1.8735,1.8735,1.8735,1.8781,1.8781,1.8697,1.852,1.8604,1.8689,1.8527,1.8612,1.905,1.9985,2.0158,2.0484,2.1373,2.235,2.3008,2.3052,2.382,2.4454,2.4454,2.4497,2.4497,2.4497,2.4497,2.454,2.4583,2.6091,2.781,2.9546,2.9753,2.9869,3.0075,2.9895,2.9792,2.9792,3.0049,3.0822,3.2249,3.2591,3.343,3.4868,3.4868,3.4902,3.4902,3.4902,3.4902,2.2476,2.3338,2.4202,2.4202,2.4202,0.0,0.0,2.4202,2.4202,2.4202,2.3994,0.0,0.0,0.0,0.0,0.0,0.0,0.0,0.0,0.0,0.0,0.0,0.0,0.0,0.0,0.0,0.0,0.0,0.0,0.0,0.0,0.0,0.0,0.0,0.0,1.9606,1.9606,1.9813,2.0052,2.0265,2.0265,2.0194,2.0059,1.9852,1.9734,1.9582,1.9185,1.8987,1.887,1.8837,1.8743,1.8697,1.8697,1.8697,1.8697,1.8781,1.8781,1.8781,1.8697,1.8743,1.8781,1.8697,1.8743,1.8781,1.8781,1.8781,1.8781,1.8781,1.8781,1.8781,1.8697,1.8743,1.8781,1.8697,1.8743,1.9096,2.0076,2.0294,2.0746,2.2262,2.2877,2.328,2.3864,2.4272,2.4497,2.4497,2.4497,2.4497,2.4497,2.4497,2.4583,2.4743,2.6412,2.8251,3.0024,3.019,3.0228,3.0292,3.0113,3.0049,3.019,3.0254,3.1022,3.2519,3.2654,3.343,3.4902,3.5034,3.5082,3.5082,3.5213,3.5261,2.2426,2.3338,2.4202,0.0,0.0,0.0,2.4202,2.4202,2.4202,2.4202,0.0,0.0,0.0,0.0,0.0,0.0,0.0,0.0,0.0,0.0,0.0,0.0,0.0,0.0,0.0,0.0,0.0,0.0,0.0,0.0,0.0,0.0,0.0,0.0,0.0,1.9521,1.9201,1.9423,1.9534,1.9534,1.9534,1.9598,1.975,1.9519,1.9312,1.9185,1.8939,1.8781,1.8781,1.8781,1.8781,1.8781,1.8781,1.8781,1.8781,1.8781,1.8781,1.8781,1.8781,1.8781,1.8781,1.8781,1.8781,1.8874,1.9188,1.9271,1.9317,1.9637,1.9729,1.9729,1.9729,1.95,1.9271,1.9271,1.95,1.9994,2.0962,2.1186,2.1632,2.3236,2.3551,2.3767,2.4487,2.4625,2.4658,2.47,2.47,2.47,2.47,2.47,2.4988,2.5715,2.7273,2.8806,3.0292,3.0406,3.0444,3.0482,3.0381,3.0305,3.0406,3.0444,3.1209,3.2733,3.2818,3.3589,3.5082,3.5213,3.5294,3.5294,3.5439,3.5504,2.2224,2.3338,2.4202,0.0,0.0,0.0,2.4202,2.4202,2.4202,2.4202,0.0,0.0,0.0,0.0,0.0,0.0,0.0,0.0,0.0,0.0,0.0,0.0,0.0,0.0,0.0,0.0,0.0,0.0,0.0,0.0,0.0,0.0,0.0,0.0,0.0,0.0,1.8827,1.8827,1.8781,1.8827,1.8781,1.9018,1.9368,1.9368,1.9169,1.8781,1.8781,1.8781,1.8781,1.8781,1.8781,1.8781,1.8781,1.8781,1.8781,1.8781,1.8781,1.8781,1.8781,1.8827,1.8827,1.8827,1.8827,1.9004,2.0031,2.0294,2.0529,2.1427,2.1695,2.1695,2.1695,2.1015,2.0339,2.0294,2.1015,2.1961,2.2877,2.3096,2.3367,2.4315,2.4497,2.4583,2.4861,2.4903,2.4988,2.5158,2.52,2.52,2.52,2.52,2.5893,2.7597,2.8557,2.9445,3.0317,3.0406,3.0482,3.0698,3.0698,3.0609,3.0406,3.0609,3.1381,3.289,3.3094,3.3968,3.5504,3.5504,3.5504,3.5504,3.5504,3.5504,2.2224,2.3338,0.0,2.4202,0.0,0.0,0.0,2.4202,0.0,0.0,0.0,0.0,0.0,0.0,0.0,0.0,0.0,0.0,0.0,0.0,0.0,0.0,0.0,0.0,0.0,0.0,0.0,0.0,0.0,0.0,0.0,0.0,0.0,0.0,0.0,0.0,2.0574,1.9409,1.9012,1.9371,1.8966,1.8883,1.8994,1.8994,1.8931,1.8781,1.8781,1.8781,1.8781,1.8781,1.8781,1.8781,1.8781,1.8781,1.8781,1.8781,1.8781,1.8781,1.8781,1.9271,1.9857,1.9857,2.0303,2.0889,2.1204,2.1293,2.1338,2.1606,2.1819,2.1908,2.1908,2.234,2.2517,2.1507,2.1516,2.1961,2.2877,2.3226,2.3617,2.4605,2.4914,2.5031,2.5115,2.5115,2.5115,2.52,2.52,2.52,2.52,2.5852,2.6771,2.7896,2.89,2.9871,3.0748,3.0823,3.0836,3.0911,3.0911,3.0874,3.0823,3.0874,3.1603,3.3059,3.3178,3.3968,3.5504,3.5504,3.5504,3.5504,3.5504,3.5504,2.2878,2.3696,0.0,2.4202,2.4202,2.4202,0.0,0.0,0.0,0.0,0.0,0.0,0.0,0.0,0.0,0.0,0.0,0.0,0.0,0.0,0.0,0.0,0.0,0.0,0.0,0.0,0.0,0.0,0.0,0.0,0.0,0.0,0.0,0.0,0.0,0.0,2.1756,2.0728,2.0376,2.0692,2.0076,1.9812,1.9766,1.9096,1.8781,1.8781,1.8781,1.8781,1.8781,1.8781,1.8781,1.8781,1.8781,1.8781,1.8827,1.905,1.9271,1.9538,1.972,2.0385,2.1123,2.1123,2.1534,2.2031,2.2438,2.2526,2.2614,2.3008,2.3183,2.326,2.326,2.379,2.4059,2.2833,2.2833,2.3226,2.379,2.4006,2.4274,2.4893,2.5115,2.5242,2.5338,2.538,2.538,2.5464,2.5464,2.5622,2.5946,2.6823,2.7775,2.8652,2.9614,3.0419,3.0949,3.0986,3.0986,3.0986,3.0986,3.0986,3.0986,3.0986,3.1676,3.3178,3.3297,3.407,3.5572,3.5651,3.5716,3.5716,3.5716,3.5716,2.3895,0.0,0.0,2.4202,0.0,0.0,0.0,0.0,0.0,0.0,0.0,0.0,0.0,0.0,0.0,0.0,0.0,0.0,0.0,0.0,0.0,0.0,0.0,0.0,0.0,0.0,0.0,0.0,0.0,0.0,0.0,0.0,0.0,0.0,0.0,0.0,2.262,2.2488,2.2444,0.0,2.1756,2.1418,2.1329,1.9683,1.892,1.892,1.892,1.892,1.892,1.9012,1.905,1.905,1.9088,1.9142,1.918,1.9675,2.0249,2.0818,2.123,2.1889,2.2532,2.2532,2.2576,2.2795,2.3661,2.393,2.4102,2.4978,2.52,2.5242,2.5242,2.5242,2.5062,2.4188,2.4627,2.52,2.52,2.52,2.5242,2.5242,2.5242,2.5327,2.5601,2.5644,2.5686,2.5853,2.5979,2.6302,2.7103,2.7959,2.8821,2.9626,3.047,3.0986,3.0986,3.1024,3.1024,3.1024,3.1061,3.1061,3.1061,3.1024,3.169,3.3178,3.3402,3.4211,3.572,3.5894,3.6005,3.6005,3.6005,3.6005,2.3895,2.4202,0.0,0.0,0.0,0.0,0.0,0.0,0.0,0.0,0.0,0.0,0.0,0.0,0.0,0.0,0.0,0.0,0.0,0.0,0.0,0.0,0.0,0.0,0.0,0.0,0.0,0.0,0.0,0.0,0.0,0.0,0.0,0.0,0.0,2.4135,2.436,2.3066,2.2585,0.0,2.2419,2.2136,2.2101,2.0664,1.9973,1.9973,1.9973,1.9973,2.0019,2.0538,2.0754,2.0836,2.1391,2.1649,2.1649,2.1747,2.1871,2.2047,2.2145,2.2761,2.3477,2.3477,2.4006,2.4616,2.484,2.4893,2.4935,2.5147,2.5338,2.5517,2.5517,2.5644,2.5686,2.5506,2.5327,2.52,2.52,2.538,2.5517,2.5517,2.5644,2.577,2.5822,2.5853,2.5853,2.5895,2.6456,2.6981,2.7185,2.8478,2.9498,2.9665,3.047,3.0986,3.0986,3.1123,3.1235,3.1235,3.1373,3.1447,3.1447,3.1174,3.1763,3.3402,3.3471,3.4293,3.5941,3.5973,3.6005,3.6005,3.6005,3.6005,2.4053,0.0,0.0,0.0,0.0,0.0,0.0,0.0,0.0,0.0,0.0,0.0,0.0,0.0,0.0,0.0,0.0,0.0,0.0,0.0,0.0,0.0,0.0,0.0,0.0,0.0,0.0,0.0,0.0,0.0,0.0,0.0,0.0,0.0,2.5285,2.5105,2.538,2.452,2.4221,2.4413,2.3877,2.3424,2.3033,2.1463,2.0772,2.0772,2.0772,2.0772,2.0808,2.1543,2.1845,2.1845,2.2224,2.24,2.2444,2.2629,2.2935,2.324,2.3511,2.4135,2.4807,2.4807,2.5158,2.5549,2.5549,2.5549,2.5549,2.5549,2.5644,2.5728,2.5728,2.5812,2.5895,2.5895,2.5728,2.5549,2.5549,2.5633,2.5728,2.5728,2.5822,2.5895,2.5895,2.626,2.6498,2.6498,2.7255,2.7931,2.8319,2.9225,2.9999,3.0406,3.0973,3.1299,3.1299,3.136,3.1434,3.1434,3.1522,3.1609,3.1609,3.1753,3.2403,3.361,3.4041,3.4861,3.61,3.6195,3.6226,3.6226,3.6226,3.6226,0.0,0.0,0.0,0.0,0.0,0.0,0.0,0.0,0.0,0.0,0.0,0.0,0.0,0.0,0.0,0.0,0.0,0.0,0.0,0.0,0.0,0.0,0.0,0.0,0.0,0.0,0.0,0.0,0.0,0.0,0.0,0.0,2.5895,2.5895,2.5895,2.5895,2.5895,2.5895,2.5895,2.5895,2.5338,2.4765,2.4102,2.2614,2.1863,2.173,2.173,2.173,2.1774,2.2541,2.2848,2.2838,2.2969,2.3013,2.3057,2.3434,2.392,2.4488,2.4935,2.5422,2.5895,2.5895,2.5895,2.5895,2.5895,2.5895,2.5895,2.5895,2.5895,2.5895,2.5895,2.5895,2.5895,2.5895,2.5895,2.5895,2.5895,2.5895,2.5895,2.5895,2.5979,2.6063,2.626,2.6899,2.7366,2.7487,2.8187,2.8978,2.9704,3.0088,3.0545,3.1272,3.1485,3.1609,3.1609,3.1646,3.1646,3.1646,3.1683,3.172,3.172,3.2525,3.3276,3.3885,3.4681,3.5482,3.6242,3.6414,3.6492,3.6492,3.6492,3.6492,0.0,0.0,0.0,0.0,0.0,0.0,0.0,0.0,0.0,0.0,0.0,0.0,0.0,0.0,0.0,0.0,0.0,0.0,0.0,0.0,0.0,0.0,0.0,0.0,0.0,0.0,0.0,0.0,0.0,0.0,0.0,2.5853,2.5895,2.5895,2.5895,2.5895,2.5895,2.5895,2.5895,2.5895,2.5812,2.5728,2.5591,2.4807,2.4069,2.3487,2.3487,2.3487,2.3531,2.4274,2.4584,2.4627,2.52,2.5411,2.5454,2.5496,2.5591,2.5675,2.5728,2.5812,2.5895,2.5895,2.5895,2.5895,2.5895,2.5895,2.5895,2.5895,2.5895,2.5895,2.5895,2.5895,2.5895,2.5895,2.5895,2.5895,2.5895,2.5895,2.5895,2.5895,2.6177,2.6723,2.7666,2.7896,2.8164,2.8694,2.9512,3.0088,3.0203,3.0885,3.1447,3.1572,3.1559,3.1609,3.1609,3.1743,3.1853,3.1853,3.2036,3.2109,3.2109,3.3381,3.4143,3.4245,3.4813,3.5561,3.646,3.6492,3.6492,3.6492,3.6492,3.6492,2.4202,0.0,0.0,0.0,0.0,0.0,0.0,0.0,0.0,0.0,0.0,0.0,0.0,0.0,0.0,0.0,0.0,0.0,0.0,0.0,0.0,0.0,0.0,0.0,0.0,0.0,0.0,0.0,0.0,0.0,2.6249,2.6021,2.5895,2.5895,2.5895,2.5895,2.5895,2.5895,2.5895,2.5895,2.5895,2.5895,2.5906,2.5591,2.5073,2.4413,2.4413,2.4413,2.4456,2.5158,2.5464,2.5464,2.577,2.5895,2.5895,2.5895,2.5895,2.5895,2.5895,2.5895,2.5895,2.5895,2.5895,2.5895,2.5895,2.5895,2.5937,2.6177,2.6249,2.6302,2.6539,2.6622,2.6622,2.6622,2.6622,2.6622,2.6622,2.6415,2.629,2.658,2.704,2.7545,2.8016,2.8809,2.9434,2.9705,3.0469,3.1048,3.1048,3.1471,3.178,3.178,3.1853,3.1927,3.1927,3.2036,3.2073,3.2073,3.2146,3.2218,3.2218,3.3541,3.4312,3.4312,3.5352,3.6085,3.6492,3.6492,3.6492,3.6492,3.6492,3.6292,0.0,0.0,0.0,0.0,0.0,0.0,0.0,0.0,0.0,0.0,0.0,0.0,0.0,0.0,0.0,0.0,0.0,0.0,0.0,0.0,0.0,0.0,0.0,0.0,0.0,0.0,0.0,0.0,0.0,0.0,2.6693,2.6373,2.6177,2.6063,2.6052,2.6021,2.5895,2.5895,2.5895,2.5895,2.5895,2.5895,2.5895,2.5895,2.5644,2.5168,2.5168,2.5168,2.52,2.5686,2.5895,2.5895,2.5895,2.5895,2.5895,2.5895,2.5895,2.5895,2.5895,2.5895,2.5895,2.5895,2.5895,2.5937,2.6021,2.6052,2.6135,2.6569,2.6693,2.6775,2.7103,2.7185,2.7226,2.7366,2.7406,2.7406,2.7406,2.7162,2.708,2.773,2.8187,2.8612,2.8836,2.9794,3.0595,3.0746,3.1347,3.1743,3.1743,3.189,3.1963,3.1963,3.2109,3.2218,3.2218,3.2218,3.2218,3.2218,3.2218,3.2277,3.2444,3.3679,3.4447,3.4633,3.5943,3.6616,3.6554,3.6554,3.6492,3.6353,3.6353,3.5982,0.0,0.0,0.0,0.0,0.0,0.0,0.0,0.0,0.0,0.0,0.0,0.0,0.0,0.0,0.0,0.0,0.0,0.0,0.0,0.0,0.0,0.0,0.0,0.0,0.0,0.0,0.0,0.0,0.0,0.0,2.7144,2.7144,2.694,2.6487,2.6487,2.629,2.5895,2.5895,2.5895,2.5895,2.5895,2.5895,2.5895,2.5895,2.5895,2.5853,2.5853,2.5853,2.5853,2.5906,2.5895,2.5895,2.5895,2.5895,2.5895,2.5895,2.5895,2.5895,2.5895,2.5895,2.5895,2.5895,2.5895,2.5979,2.6362,2.6487,2.6569,2.7021,2.7144,2.7185,2.7174,2.7185,2.7336,2.7896,2.8056,2.8056,2.8056,2.8016,2.8335,2.9381,2.9588,2.9922,3.0871,3.1108,3.1381,3.2023,3.2132,3.2182,3.2182,3.2182,3.2182,3.2182,3.2182,3.2218,3.2218,3.2218,3.2218,3.2218,3.2218,3.248,3.3122,3.4075,3.4879,3.5531,3.6492,3.6877,3.6693,3.6693,3.6413,3.591,3.591,3.5582,0.0,0.0,0.0,0.0,0.0,0.0,0.0,0.0,0.0,0.0,0.0,0.0,0.0,0.0,0.0,0.0,0.0,0.0,0.0,0.0,0.0,0.0,0.0,0.0,0.0,0.0,0.0,0.0,0.0,0.0,2.7667,2.736,2.7103,2.694,2.694,2.6899,2.6745,2.6456,2.629,2.629,2.658,2.6456,2.5906,2.6456,2.658,2.629,2.6622,2.6426,2.5895,2.5895,2.5895,2.5895,2.5895,2.5895,2.5895,2.5895,2.6052,2.629,2.629,2.6498,2.6745,2.6745,2.6745,2.6745,2.6899,2.694,2.7144,2.7995,2.8235,2.8383,2.903,2.9186,2.9225,2.9447,2.9524,2.964,3.0012,2.9794,2.964,3.0012,3.0393,3.0771,3.1145,3.1542,3.1936,3.2169,3.2218,3.2218,3.2218,3.2218,3.2218,3.2218,3.2218,3.2218,3.2218,3.2408,3.2538,3.2538,3.303,3.3457,3.3685,3.4813,3.5546,3.577,3.66,3.6969,3.6908,3.6441,3.6083,3.5878,3.5471,3.4909,2.395,0.0,0.0,0.0,0.0,0.0,0.0,0.0,0.0,0.0,0.0,0.0,0.0,0.0,0.0,0.0,0.0,0.0,0.0,0.0,0.0,0.0,0.0,0.0,0.0,0.0,0.0,0.0,0.0,0.0,2.8082,2.7817,2.7563,2.7441,2.7267,2.7185,2.7185,2.6899,2.6723,2.6734,2.7062,2.6899,2.6343,2.694,2.7021,2.6734,2.7062,2.6787,2.6093,2.626,2.626,2.6135,2.626,2.6343,2.6343,2.6343,2.6498,2.6723,2.6723,2.694,2.7185,2.7185,2.7336,2.7528,2.7701,2.7903,2.8211,2.9055,2.9289,2.9445,3.0126,3.0431,3.0582,3.0582,3.0771,3.106,3.1468,3.1046,3.0671,3.0897,3.1246,3.1542,3.1542,3.19,3.2218,3.2218,3.2218,3.2241,3.2336,3.2372,3.2408,3.2552,3.2552,3.2552,3.2552,3.2903,3.3136,3.3136,3.3856,3.4399,3.4633,3.5484,3.6087,3.6321,3.6877,3.7166,3.7181,3.6371,3.5902,3.5725,3.5021,3.4443,0.0,0.0,0.0,0.0,0.0,0.0,0.0,0.0,0.0,0.0,0.0,0.0,0.0,0.0,0.0,0.0,0.0,0.0,0.0,0.0,0.0,0.0,0.0,0.0,0.0,0.0,0.0,0.0,0.0,2.851,2.851,2.851,2.8311,2.7921,2.7441,2.7226,2.7226,2.7226,2.7226,2.7226,2.7226,2.7226,2.7185,2.7226,2.7226,2.7226,2.7226,2.6969,2.6569,2.7021,2.694,2.6569,2.7021,2.7185,2.7185,2.7185,2.7226,2.7226,2.7226,2.7267,2.7267,2.7307,2.7678,2.8255,2.87,2.925,2.9819,3.0203,3.033,3.0317,3.0355,3.0771,3.1233,3.1233,3.174,3.2218,3.2218,3.1703,3.1418,3.2059,3.2218,3.2218,3.2205,3.2205,3.2218,3.2218,3.2241,3.2336,3.2668,3.2739,3.2881,3.3269,3.3304,3.3304,3.3339,3.3748,3.4013,3.4027,3.4551,3.5175,3.5881,3.6056,3.6477,3.7178,3.7405,3.751,3.751,3.6607,3.5915,3.5379,3.462,3.4229,2.3499,0.0,0.0,0.0,0.0,0.0,0.0,0.0,0.0,0.0,0.0,0.0,0.0,0.0,0.0,0.0,0.0,0.0,0.0,0.0,0.0,0.0,0.0,0.0,0.0,0.0,0.0,0.0,2.851,2.851,2.851,2.851,2.8431,2.8363,2.7909,2.7869,2.8139,2.7869,2.7708,2.7708,2.8018,2.7805,2.7226,2.7846,2.7978,2.7708,2.8018,2.7898,2.7505,2.7278,2.7133,2.7021,2.7144,2.7185,2.7185,2.7185,2.74,2.7788,2.8207,2.8542,2.8858,2.9303,2.9575,2.973,2.9858,3.0012,3.0241,3.0809,3.0959,3.1084,3.1556,3.179,3.1936,3.1936,3.2059,3.2218,3.2218,3.2059,3.1986,3.2169,3.2218,3.2277,3.2503,3.2574,3.2646,3.2966,3.3002,3.3037,3.3129,3.3129,3.3164,3.3304,3.3304,3.343,3.3768,3.4177,3.4581,3.4978,3.5753,3.6274,3.6492,3.6876,3.7194,3.7405,3.748,3.751,3.751,3.625,3.5556,3.5363,3.4146,3.3931,0.0,0.0,0.0,0.0,0.0,0.0,0.0,2.6381,0.0,0.0,0.0,0.0,0.0,0.0,0.0,0.0,0.0,0.0,0.0,0.0,0.0,0.0,0.0,0.0,0.0,0.0,0.0,0.0,2.851,2.851,2.851,2.851,2.851,2.851,2.8271,2.8283,2.851,2.8271,2.8163,2.8163,2.8391,2.8219,2.7765,2.8259,2.8351,2.8163,2.8391,2.851,2.8498,2.8235,2.7874,2.7522,2.7943,2.8103,2.8143,2.8398,2.8661,2.8949,2.9289,2.9561,2.9832,3.0177,3.0469,3.0658,3.0658,3.0859,3.1172,3.1505,3.1629,3.1703,3.2096,3.2218,3.2218,3.2218,3.2314,3.2408,3.2408,3.2552,3.2624,3.2444,3.2408,3.2503,3.2881,3.2952,3.3023,3.3269,3.3304,3.3339,3.3479,3.3514,3.3652,3.4051,3.4085,3.4274,3.4732,3.5207,3.5625,3.5928,3.6646,3.7029,3.7029,3.7315,3.751,3.751,3.751,3.7368,3.7038,3.5932,3.5094,3.4494,3.3672,3.3832,0.0,0.0,0.0,0.0,0.0,0.0,2.5673,2.6321,2.6857,0.0,0.0,0.0,0.0,0.0,0.0,0.0,0.0,0.0,0.0,0.0,0.0,0.0,0.0,0.0,0.0,0.0,2.851,2.851,2.851,2.851,2.851,2.851,2.851,2.851,2.851,2.851,2.851,2.859,2.859,2.851,2.859,2.8538,2.851,2.859,2.859,2.859,2.8657,2.9,2.9496,2.9496,2.8961,2.8271,2.9145,2.9496,2.9561,3.0101,3.0279,3.0317,3.0393,3.0393,3.0393,3.0482,3.0846,3.1307,3.1307,3.174,3.2218,3.2218,3.2218,3.2218,3.2218,3.2218,3.2241,3.2241,3.2516,3.2775,3.2775,3.3058,3.3199,3.2881,3.281,3.2881,3.3304,3.3374,3.3374,3.3409,3.3409,3.3514,3.3839,3.3908,3.4269,3.5103,3.5267,3.5479,3.5944,3.6414,3.6723,3.6785,3.7225,3.751,3.751,3.751,3.751,3.751,3.751,3.7133,3.6393,3.5805,3.4794,3.3419,3.3456,3.3972,0.0,0.0,0.0,0.0,0.0,0.0,2.5368,2.6091,2.6775,0.0,0.0,0.0,0.0,0.0,0.0,0.0,0.0,0.0,0.0,0.0,0.0,0.0,0.0,0.0,0.0,0.0,2.851,2.851,2.851,2.851,2.851,2.851,2.851,2.851,2.851,2.851,2.851,2.8961,2.8961,2.851,2.9,2.8961,2.851,2.9,2.9223,2.9263,2.9755,3.0024,3.0139,3.0139,3.0024,2.9871,3.0063,3.0139,3.0126,3.0254,3.0279,3.0355,3.0859,3.1033,3.1108,3.1666,3.19,3.2009,3.2009,3.2096,3.2218,3.2218,3.2218,3.2218,3.2218,3.2408,3.2596,3.2596,3.2881,3.3164,3.3164,3.3234,3.3374,3.3563,3.3374,3.3304,3.3632,3.3701,3.3805,3.4128,3.4196,3.4196,3.4264,3.4654,3.5004,3.5169,3.5544,3.5991,3.6492,3.6646,3.6877,3.7315,3.745,3.751,3.751,3.751,3.751,3.751,3.751,3.7133,3.6393,3.6266,3.5489,3.4126,3.4563,3.478,0.0,0.0,0.0,2.4155,0.0,0.0,0.0,2.6434,2.7074,0.0,0.0,0.0,0.0,0.0,0.0,0.0,0.0,0.0,0.0,0.0,0.0,0.0,0.0,0.0,0.0,0.0,2.851,2.851,2.8776,2.8961,2.8961,2.9223,2.9419,2.9419,2.9419,2.9419,2.9419,2.9678,2.9678,2.9419,2.9716,2.9678,2.9419,2.9716,2.9832,2.9871,3.0177,3.0469,3.0733,3.0733,3.0934,3.1209,3.0897,3.0733,3.0771,3.1121,3.1246,3.1283,3.1579,3.1703,3.174,3.2096,3.2218,3.2218,3.2218,3.2218,3.2218,3.2218,3.2314,3.2444,3.2444,3.2704,3.2988,3.2988,3.3269,3.3563,3.3563,3.3701,3.3908,3.4059,3.4167,3.4235,3.4128,3.4094,3.4162,3.438,3.4635,3.4787,3.4787,3.5234,3.564,3.5911,3.6164,3.6507,3.7059,3.7105,3.7225,3.748,3.751,3.751,3.751,3.751,3.751,3.751,3.751,3.7336,3.6959,3.723,3.6606,3.5268,3.5517,3.5874,0.0,0.0,0.0,0.0,0.0,2.5327,0.0,0.0,0.0,0.0,0.0,0.0,0.0,0.0,0.0,0.0,0.0,0.0,0.0,0.0,0.0,0.0,0.0,0.0,0.0,0.0,2.859,2.8657,2.9145,2.9484,2.9574,3.0024,3.0279,3.0279,3.0279,3.0279,3.0279,3.0444,3.0393,3.0279,3.0444,3.0393,3.0279,3.0431,3.0469,3.0469,3.0595,3.0934,3.1381,3.1381,3.1703,3.2132,3.1579,3.1381,3.1468,3.2009,3.2218,3.2218,3.2218,3.2241,3.2314,3.2314,3.235,3.2422,3.2422,3.2422,3.2422,3.2422,3.261,3.281,3.281,3.3094,3.3409,3.3409,3.3667,3.3942,3.4045,3.4317,3.4568,3.4668,3.5037,3.5169,3.4635,3.4635,3.4687,3.4687,3.507,3.5317,3.5317,3.5769,3.6212,3.6646,3.6785,3.7029,3.745,3.751,3.751,3.751,3.751,3.751,3.751,3.751,3.7539,3.7583,3.7583,3.7642,3.7756,3.8181,3.7752,3.6458,3.6653,3.7161,0.0,0.0,0.0,0.0,2.577,0.0,0.0,0.0,0.0,0.0,0.0,0.0,0.0,0.0,0.0,0.0,0.0,0.0,0.0,0.0,0.0,0.0,0.0,0.0,0.0,0.0,0.0,2.9263,2.9523,2.9819,3.0177,3.0241,3.0279,3.0279,3.0279,3.0279,3.0279,3.0809,3.0809,3.0317,3.0846,3.0809,3.0317,3.0846,3.1108,3.1108,3.1753,3.2023,3.2096,3.2096,3.2132,3.2182,3.2132,3.2096,3.2096,3.2169,3.2218,3.2218,3.2218,3.2372,3.2632,3.2632,3.2881,3.3178,3.3178,3.3178,3.3178,3.3178,3.3199,3.3234,3.3234,3.3479,3.3736,3.3736,3.4059,3.4467,3.4938,3.507,3.5234,3.5672,3.5785,3.5672,3.5201,3.5447,3.5721,3.5721,3.5785,3.5817,3.5817,3.629,3.6616,3.6693,3.7135,3.7435,3.748,3.751,3.751,3.751,3.751,3.751,3.751,3.751,3.7596,3.7857,3.7857,3.8141,3.8734,3.8799,3.8324,3.7383,3.833,3.8564,0.0,0.0,0.0,0.0,0.0,0.0,0.0,0.0,2.6487,0.0,0.0,0.0,0.0,0.0,0.0,0.0,0.0,0.0,0.0,0.0,0.0,0.0,0.0,0.0,0.0,0.0,0.0,0.0,0.0,3.0908,3.0809,3.1209,3.1394,3.1394,3.1394,3.1394,3.1394,3.1666,3.1666,3.1408,3.1666,3.1666,3.1394,3.1666,3.1776,3.1813,3.2096,3.2218,3.2218,3.2218,3.23,3.248,3.2277,3.2218,3.2218,3.2218,3.23,3.2503,3.2503,3.2753,3.3058,3.3058,3.3164,3.3304,3.3304,3.3304,3.3304,3.3304,3.3444,3.3652,3.3968,3.4322,3.4691,3.4942,3.5154,3.5317,3.5576,3.5608,3.5657,3.5849,3.6149,3.629,3.6101,3.5959,3.5913,3.5913,3.6149,3.6352,3.6352,3.6831,3.7165,3.7165,3.7361,3.751,3.751,3.751,3.751,3.751,3.7655,3.7727,3.7727,3.7934,3.8078,3.8177,3.8205,3.8411,3.8908,3.9256,3.9393,3.932,3.9678,3.9887,2.5031,0.0,0.0,0.0,0.0,0.0,0.0,0.0,0.0,0.0,0.0,0.0,0.0,0.0,0.0,0.0,0.0,0.0,0.0,0.0,0.0,0.0,0.0,0.0,0.0,0.0,0.0,0.0,3.1613,3.1919,3.1626,3.2069,3.2277,3.2218,3.2218,3.2218,3.2218,3.2218,3.2218,3.2218,3.2218,3.2218,3.2218,3.2218,3.2218,3.2218,3.2218,3.2218,3.2218,3.2314,3.2467,3.2704,3.2552,3.248,3.248,3.2372,3.2503,3.2739,3.2846,3.3129,3.3444,3.3563,3.3597,3.3597,3.3597,3.3687,3.3811,3.3811,3.4085,3.4457,3.4861,3.5172,3.5479,3.5817,3.5913,3.5944,3.6086,3.6117,3.6149,3.6305,3.6646,3.6907,3.6907,3.66,3.6337,3.6337,3.6677,3.6907,3.6907,3.7255,3.751,3.751,3.751,3.7539,3.7612,3.7612,3.7642,3.773,3.7947,3.8046,3.8046,3.8278,3.842,3.8504,3.8628,3.8865,3.9308,3.9868,4.04,4.0855,4.0731,4.0896,0.0,0.0,0.0,2.5895,0.0,0.0,0.0,0.0,2.5937,0.0,0.0,0.0,0.0,0.0,0.0,0.0,0.0,0.0,0.0,0.0,0.0,0.0,0.0,0.0,0.0,0.0,0.0,3.229,3.2533,3.2668,3.2654,3.2668,3.2538,3.2218,3.2218,3.2218,3.2218,3.2218,3.2218,3.2218,3.2218,3.2218,3.2218,3.2218,3.2218,3.2218,3.2218,3.2218,3.2218,3.2538,3.2704,3.2739,3.3129,3.3269,3.3199,3.2846,3.2704,3.2775,3.3164,3.3479,3.3839,3.423,3.4346,3.4346,3.4346,3.4721,3.5136,3.5136,3.5479,3.5849,3.5849,3.5881,3.5881,3.5913,3.5913,3.6054,3.6554,3.6677,3.6816,3.7345,3.745,3.748,3.748,3.745,3.745,3.745,3.7464,3.748,3.748,3.748,3.751,3.751,3.751,3.7612,3.7857,3.7886,3.8017,3.8335,3.8363,3.8363,3.8363,3.8391,3.8532,3.8777,3.9162,3.968,4.0351,4.0772,4.1163,4.1542,4.1426,4.1448,0.0,0.0,2.5895,2.5895,0.0,0.0,0.0,0.0,0.0,0.0,0.0,0.0,0.0,0.0,0.0,0.0,0.0,0.0,0.0,0.0,0.0,0.0,0.0,0.0,0.0,0.0,0.0,3.3009,3.3058,3.3094,0.0,3.3094,3.2917,3.2538,3.2789,3.2789,3.2538,3.2538,3.2538,3.2538,3.2314,3.2314,3.2538,3.2538,3.2682,3.2931,3.2931,3.2931,3.2931,3.3058,3.3234,3.3409,3.3339,3.3444,3.3597,3.3234,3.3234,3.3479,3.3874,3.4094,3.4264,3.4754,3.492,3.4986,3.5285,3.5512,3.5657,3.5657,3.58,3.5976,3.6352,3.6414,3.6507,3.6861,3.6952,3.7029,3.7195,3.7225,3.7285,3.7464,3.751,3.751,3.751,3.751,3.751,3.751,3.751,3.7553,3.7727,3.7756,3.786,3.8078,3.8094,3.8135,3.8205,3.8234,3.8262,3.8391,3.8572,3.8761,3.9044,3.9249,3.954,3.9851,4.0003,4.0302,4.0795,4.0913,4.1226,4.1604,4.156,4.156,2.5853,2.5895,0.0,2.5895,2.6135,0.0,2.6385,0.0,0.0,0.0,0.0,0.0,0.0,0.0,0.0,0.0,0.0,0.0,0.0,3.2218,0.0,0.0,0.0,0.0,0.0,0.0,3.3409,3.3304,3.3563,3.3597,0.0,0.0,3.3304,3.2917,3.3164,3.3164,3.2917,3.2917,3.2917,3.2917,3.2682,3.2682,3.2917,3.2917,3.3058,3.3304,3.3304,3.3304,3.3304,3.3409,3.3632,3.3805,3.3736,3.3928,3.4235,3.3687,3.3825,3.4337,3.4587,3.4787,3.4971,3.5317,3.5447,3.5512,3.5817,3.6008,3.618,3.618,3.6305,3.6569,3.6907,3.6968,3.7075,3.7421,3.751,3.751,3.751,3.751,3.751,3.751,3.751,3.7539,3.7642,3.7626,3.7626,3.7626,3.7626,3.7743,3.8046,3.8075,3.8177,3.8363,3.8391,3.8504,3.875,3.886,3.8969,3.9098,3.9269,3.9506,3.9732,3.9961,4.0179,4.04,4.0538,4.0731,4.1001,4.114,4.134,4.1604,4.1604,4.1604]}]]